<?xml version='1.0' encoding='UTF-8'?><gpx version="1.1" creator="JPX - https://github.com/jenetics/jpx" xmlns="http://www.topografix.com/GPX/1/1"><trk><trkseg><trkpt lat="45.8631883" lon="8.682675"><ele>264.0</ele><time>2026-04-26T06:44:33.07Z</time></trkpt><trkpt lat="45.863265" lon="8.6826483"><ele>264.0</ele><time>2026-04-26T06:44:36.07Z</time></trkpt><trkpt lat="45.8632167" lon="8.6825783"><ele>264.0</ele><time>2026-04-26T06:44:52.07Z</time></trkpt><trkpt lat="45.8631717" lon="8.6825083"><ele>264.0</ele><time>2026-04-26T06:44:57.07Z</time></trkpt><trkpt lat="45.86324" lon="8.682425"><ele>264.0</ele><time>2026-04-26T06:50:33.07Z</time></trkpt><trkpt lat="45.8632967" lon="8.6822717"><ele>264.0</ele><time>2026-04-26T06:50:36.07Z</time></trkpt><trkpt lat="45.8633367" lon="8.6821733"><ele>264.0</ele><time>2026-04-26T06:50:37.07Z</time></trkpt><trkpt lat="45.8633883" lon="8.682065"><ele>264.0</ele><time>2026-04-26T06:50:38.07Z</time></trkpt><trkpt lat="45.8634533" lon="8.6819483"><ele>264.0</ele><time>2026-04-26T06:50:39.07Z</time></trkpt><trkpt lat="45.8635267" lon="8.681815"><ele>264.0</ele><time>2026-04-26T06:50:40.071Z</time></trkpt><trkpt lat="45.8636067" lon="8.6816717"><ele>264.0</ele><time>2026-04-26T06:50:41.07Z</time></trkpt><trkpt lat="45.8636933" lon="8.6815283"><ele>264.0</ele><time>2026-04-26T06:50:42.071Z</time></trkpt><trkpt lat="45.8637767" lon="8.681375"><ele>264.0</ele><time>2026-04-26T06:50:43.07Z</time></trkpt><trkpt lat="45.8638733" lon="8.68123"><ele>264.0</ele><time>2026-04-26T06:50:44.07Z</time></trkpt><trkpt lat="45.863975" lon="8.6810917"><ele>264.0</ele><time>2026-04-26T06:50:45.07Z</time></trkpt><trkpt lat="45.864075" lon="8.6809767"><ele>263.4</ele><time>2026-04-26T06:50:46.07Z</time></trkpt><trkpt lat="45.8641667" lon="8.68088"><ele>262.79999999999995</ele><time>2026-04-26T06:50:47.07Z</time></trkpt><trkpt lat="45.8642567" lon="8.6808117"><ele>262.20000000000005</ele><time>2026-04-26T06:50:48.071Z</time></trkpt><trkpt lat="45.864345" lon="8.6807417"><ele>261.6</ele><time>2026-04-26T06:50:49.07Z</time></trkpt><trkpt lat="45.8644317" lon="8.6806983"><ele>261.0</ele><time>2026-04-26T06:50:50.07Z</time></trkpt><trkpt lat="45.8645083" lon="8.6806533"><ele>261.0</ele><time>2026-04-26T06:50:51.07Z</time></trkpt><trkpt lat="45.86458" lon="8.680615"><ele>261.0</ele><time>2026-04-26T06:50:52.07Z</time></trkpt><trkpt lat="45.8646567" lon="8.6805767"><ele>261.0</ele><time>2026-04-26T06:50:53.071Z</time></trkpt><trkpt lat="45.86474" lon="8.6805317"><ele>261.0</ele><time>2026-04-26T06:50:55.07Z</time></trkpt><trkpt lat="45.8647683" lon="8.6804017"><ele>261.0</ele><time>2026-04-26T06:50:57.071Z</time></trkpt><trkpt lat="45.86473" lon="8.680225"><ele>260.5</ele><time>2026-04-26T06:50:59.07Z</time></trkpt><trkpt lat="45.8647017" lon="8.6801317"><ele>260.0</ele><time>2026-04-26T06:51:00.07Z</time></trkpt><trkpt lat="45.8646617" lon="8.6800367"><ele>259.5</ele><time>2026-04-26T06:51:01.07Z</time></trkpt><trkpt lat="45.8646083" lon="8.67995"><ele>259.0</ele><time>2026-04-26T06:51:02.07Z</time></trkpt><trkpt lat="45.8645517" lon="8.6798633"><ele>258.5</ele><time>2026-04-26T06:51:03.07Z</time></trkpt><trkpt lat="45.86449" lon="8.6797733"><ele>258.0</ele><time>2026-04-26T06:51:04.07Z</time></trkpt><trkpt lat="45.8644333" lon="8.6796867"><ele>258.0</ele><time>2026-04-26T06:51:05.07Z</time></trkpt><trkpt lat="45.8643767" lon="8.6795867"><ele>258.0</ele><time>2026-04-26T06:51:06.071Z</time></trkpt><trkpt lat="45.8643267" lon="8.6794883"><ele>258.0</ele><time>2026-04-26T06:51:07.07Z</time></trkpt><trkpt lat="45.8642783" lon="8.6794017"><ele>258.0</ele><time>2026-04-26T06:51:08.07Z</time></trkpt><trkpt lat="45.86423" lon="8.67931"><ele>258.0</ele><time>2026-04-26T06:51:09.07Z</time></trkpt><trkpt lat="45.864185" lon="8.679215"><ele>258.0</ele><time>2026-04-26T06:51:10.07Z</time></trkpt><trkpt lat="45.86416" lon="8.6791"><ele>257.6</ele><time>2026-04-26T06:51:11.07Z</time></trkpt><trkpt lat="45.8641417" lon="8.6789867"><ele>257.20000000000005</ele><time>2026-04-26T06:51:12.07Z</time></trkpt><trkpt lat="45.8641483" lon="8.67887"><ele>256.8</ele><time>2026-04-26T06:51:13.071Z</time></trkpt><trkpt lat="45.8641767" lon="8.678745"><ele>256.40000000000003</ele><time>2026-04-26T06:51:14.07Z</time></trkpt><trkpt lat="45.8642283" lon="8.67862"><ele>256.0</ele><time>2026-04-26T06:51:15.07Z</time></trkpt><trkpt lat="45.8642733" lon="8.6784983"><ele>254.8</ele><time>2026-04-26T06:51:16.071Z</time></trkpt><trkpt lat="45.8643117" lon="8.67839"><ele>253.60000000000002</ele><time>2026-04-26T06:51:17.07Z</time></trkpt><trkpt lat="45.8643483" lon="8.6782867"><ele>252.4</ele><time>2026-04-26T06:51:18.07Z</time></trkpt><trkpt lat="45.8643717" lon="8.6781983"><ele>251.2</ele><time>2026-04-26T06:51:19.07Z</time></trkpt><trkpt lat="45.864235" lon="8.6781183"><ele>250.0</ele><time>2026-04-26T06:51:21.07Z</time></trkpt><trkpt lat="45.86414" lon="8.6781467"><ele>249.8</ele><time>2026-04-26T06:51:22.07Z</time></trkpt><trkpt lat="45.8640417" lon="8.6781717"><ele>249.6</ele><time>2026-04-26T06:51:23.07Z</time></trkpt><trkpt lat="45.863935" lon="8.6782033"><ele>249.39999999999998</ele><time>2026-04-26T06:51:24.07Z</time></trkpt><trkpt lat="45.8638317" lon="8.67822"><ele>249.2</ele><time>2026-04-26T06:51:25.07Z</time></trkpt><trkpt lat="45.86373" lon="8.6782367"><ele>249.0</ele><time>2026-04-26T06:51:26.07Z</time></trkpt><trkpt lat="45.86363" lon="8.67825"><ele>249.0</ele><time>2026-04-26T06:51:27.07Z</time></trkpt><trkpt lat="45.8635333" lon="8.67827"><ele>248.99999999999997</ele><time>2026-04-26T06:51:28.071Z</time></trkpt><trkpt lat="45.86344" lon="8.67829"><ele>248.99999999999997</ele><time>2026-04-26T06:51:29.07Z</time></trkpt><trkpt lat="45.86334" lon="8.6783183"><ele>249.0</ele><time>2026-04-26T06:51:30.07Z</time></trkpt><trkpt lat="45.863235" lon="8.67834"><ele>249.0</ele><time>2026-04-26T06:51:31.07Z</time></trkpt><trkpt lat="45.863135" lon="8.67837"><ele>249.5</ele><time>2026-04-26T06:51:32.07Z</time></trkpt><trkpt lat="45.8630383" lon="8.6783967"><ele>250.0</ele><time>2026-04-26T06:51:33.07Z</time></trkpt><trkpt lat="45.862955" lon="8.67842"><ele>250.5</ele><time>2026-04-26T06:51:34.07Z</time></trkpt><trkpt lat="45.8628817" lon="8.67844"><ele>251.0</ele><time>2026-04-26T06:51:35.07Z</time></trkpt><trkpt lat="45.86281" lon="8.67844"><ele>251.5</ele><time>2026-04-26T06:51:36.07Z</time></trkpt><trkpt lat="45.86274" lon="8.67841"><ele>252.0</ele><time>2026-04-26T06:51:37.07Z</time></trkpt><trkpt lat="45.8626633" lon="8.678355"><ele>251.5</ele><time>2026-04-26T06:51:38.07Z</time></trkpt><trkpt lat="45.862595" lon="8.678295"><ele>251.0</ele><time>2026-04-26T06:51:39.07Z</time></trkpt><trkpt lat="45.8625217" lon="8.67822"><ele>250.5</ele><time>2026-04-26T06:51:40.07Z</time></trkpt><trkpt lat="45.8624583" lon="8.67813"><ele>250.0</ele><time>2026-04-26T06:51:41.07Z</time></trkpt><trkpt lat="45.8623967" lon="8.6780517"><ele>249.5</ele><time>2026-04-26T06:51:42.071Z</time></trkpt><trkpt lat="45.8623467" lon="8.6779683"><ele>249.0</ele><time>2026-04-26T06:51:43.07Z</time></trkpt><trkpt lat="45.862305" lon="8.6778833"><ele>249.0</ele><time>2026-04-26T06:51:44.07Z</time></trkpt><trkpt lat="45.8622633" lon="8.6777883"><ele>249.0</ele><time>2026-04-26T06:51:45.07Z</time></trkpt><trkpt lat="45.8622267" lon="8.6777133"><ele>249.0</ele><time>2026-04-26T06:51:46.07Z</time></trkpt><trkpt lat="45.8621833" lon="8.67764"><ele>249.0</ele><time>2026-04-26T06:51:47.07Z</time></trkpt><trkpt lat="45.8621" lon="8.6775183"><ele>249.0</ele><time>2026-04-26T06:51:49.07Z</time></trkpt><trkpt lat="45.8620333" lon="8.6774183"><ele>249.0</ele><time>2026-04-26T06:51:51.07Z</time></trkpt><trkpt lat="45.8619867" lon="8.6773367"><ele>248.66666666666666</ele><time>2026-04-26T06:51:53.07Z</time></trkpt><trkpt lat="45.8619417" lon="8.6772583"><ele>248.33333333333331</ele><time>2026-04-26T06:51:55.07Z</time></trkpt><trkpt lat="45.8618967" lon="8.67715"><ele>248.0</ele><time>2026-04-26T06:51:58.07Z</time></trkpt><trkpt lat="45.8618417" lon="8.6770467"><ele>247.66666666666666</ele><time>2026-04-26T06:52:00.07Z</time></trkpt><trkpt lat="45.8617933" lon="8.6769783"><ele>247.33333333333331</ele><time>2026-04-26T06:52:01.07Z</time></trkpt><trkpt lat="45.8617333" lon="8.6768983"><ele>247.0</ele><time>2026-04-26T06:52:02.07Z</time></trkpt><trkpt lat="45.861665" lon="8.6768033"><ele>246.25</ele><time>2026-04-26T06:52:03.07Z</time></trkpt><trkpt lat="45.861585" lon="8.6766967"><ele>245.5</ele><time>2026-04-26T06:52:04.07Z</time></trkpt><trkpt lat="45.8614933" lon="8.676585"><ele>244.75</ele><time>2026-04-26T06:52:05.07Z</time></trkpt><trkpt lat="45.8614017" lon="8.67648"><ele>244.0</ele><time>2026-04-26T06:52:06.07Z</time></trkpt><trkpt lat="45.86131" lon="8.6763667"><ele>244.0</ele><time>2026-04-26T06:52:07.07Z</time></trkpt><trkpt lat="45.861225" lon="8.6762567"><ele>243.99999999999997</ele><time>2026-04-26T06:52:08.07Z</time></trkpt><trkpt lat="45.8611467" lon="8.6761533"><ele>243.99999999999997</ele><time>2026-04-26T06:52:09.07Z</time></trkpt><trkpt lat="45.8610783" lon="8.676045"><ele>244.0</ele><time>2026-04-26T06:52:10.07Z</time></trkpt><trkpt lat="45.8610167" lon="8.6759417"><ele>244.0</ele><time>2026-04-26T06:52:11.07Z</time></trkpt><trkpt lat="45.8609517" lon="8.675835"><ele>243.2</ele><time>2026-04-26T06:52:12.07Z</time></trkpt><trkpt lat="45.8608783" lon="8.6757217"><ele>242.39999999999998</ele><time>2026-04-26T06:52:13.07Z</time></trkpt><trkpt lat="45.8608067" lon="8.6756283"><ele>241.6</ele><time>2026-04-26T06:52:14.071Z</time></trkpt><trkpt lat="45.8607483" lon="8.6755517"><ele>240.8</ele><time>2026-04-26T06:52:15.07Z</time></trkpt><trkpt lat="45.8607033" lon="8.675475"><ele>240.0</ele><time>2026-04-26T06:52:16.07Z</time></trkpt><trkpt lat="45.8606383" lon="8.675325"><ele>240.0</ele><time>2026-04-26T06:52:18.07Z</time></trkpt><trkpt lat="45.8606033" lon="8.6752333"><ele>240.0</ele><time>2026-04-26T06:52:19.07Z</time></trkpt><trkpt lat="45.86056" lon="8.67513"><ele>240.0</ele><time>2026-04-26T06:52:20.07Z</time></trkpt><trkpt lat="45.860505" lon="8.67502"><ele>240.0</ele><time>2026-04-26T06:52:21.07Z</time></trkpt><trkpt lat="45.8604533" lon="8.6749067"><ele>240.0</ele><time>2026-04-26T06:52:22.07Z</time></trkpt><trkpt lat="45.860395" lon="8.6748017"><ele>240.0</ele><time>2026-04-26T06:52:23.07Z</time></trkpt><trkpt lat="45.860325" lon="8.6747083"><ele>240.0</ele><time>2026-04-26T06:52:24.07Z</time></trkpt><trkpt lat="45.8602467" lon="8.6746117"><ele>240.0</ele><time>2026-04-26T06:52:25.07Z</time></trkpt><trkpt lat="45.8601567" lon="8.6745133"><ele>240.0</ele><time>2026-04-26T06:52:26.07Z</time></trkpt><trkpt lat="45.8600683" lon="8.6744133"><ele>240.0</ele><time>2026-04-26T06:52:27.07Z</time></trkpt><trkpt lat="45.8599817" lon="8.6743233"><ele>240.0</ele><time>2026-04-26T06:52:28.071Z</time></trkpt><trkpt lat="45.8599" lon="8.6742283"><ele>239.2</ele><time>2026-04-26T06:52:29.07Z</time></trkpt><trkpt lat="45.859835" lon="8.6741267"><ele>238.4</ele><time>2026-04-26T06:52:30.07Z</time></trkpt><trkpt lat="45.8597817" lon="8.67403"><ele>237.60000000000002</ele><time>2026-04-26T06:52:31.07Z</time></trkpt><trkpt lat="45.859725" lon="8.6739517"><ele>236.8</ele><time>2026-04-26T06:52:32.07Z</time></trkpt><trkpt lat="45.8596333" lon="8.67386"><ele>236.0</ele><time>2026-04-26T06:52:34.07Z</time></trkpt><trkpt lat="45.85955" lon="8.6738717"><ele>236.0</ele><time>2026-04-26T06:52:36.07Z</time></trkpt><trkpt lat="45.8594767" lon="8.67399"><ele>236.00000000000003</ele><time>2026-04-26T06:52:38.07Z</time></trkpt><trkpt lat="45.8594083" lon="8.6740533"><ele>236.00000000000003</ele><time>2026-04-26T06:52:40.07Z</time></trkpt><trkpt lat="45.8593183" lon="8.673965"><ele>236.0</ele><time>2026-04-26T06:52:42.07Z</time></trkpt><trkpt lat="45.85926" lon="8.6738767"><ele>236.0</ele><time>2026-04-26T06:52:43.07Z</time></trkpt><trkpt lat="45.8591983" lon="8.67377"><ele>236.0</ele><time>2026-04-26T06:52:44.071Z</time></trkpt><trkpt lat="45.8591317" lon="8.6736633"><ele>236.00000000000003</ele><time>2026-04-26T06:52:45.07Z</time></trkpt><trkpt lat="45.8590567" lon="8.6735567"><ele>236.00000000000003</ele><time>2026-04-26T06:52:46.071Z</time></trkpt><trkpt lat="45.8589833" lon="8.67344"><ele>236.0</ele><time>2026-04-26T06:52:47.07Z</time></trkpt><trkpt lat="45.85891" lon="8.6733217"><ele>236.0</ele><time>2026-04-26T06:52:48.07Z</time></trkpt><trkpt lat="45.8588317" lon="8.673205"><ele>236.0</ele><time>2026-04-26T06:52:49.071Z</time></trkpt><trkpt lat="45.85877" lon="8.6730817"><ele>236.00000000000003</ele><time>2026-04-26T06:52:50.07Z</time></trkpt><trkpt lat="45.858715" lon="8.6729633"><ele>236.00000000000003</ele><time>2026-04-26T06:52:51.07Z</time></trkpt><trkpt lat="45.8586783" lon="8.672815"><ele>236.0</ele><time>2026-04-26T06:52:52.07Z</time></trkpt><trkpt lat="45.8586467" lon="8.6726733"><ele>236.0</ele><time>2026-04-26T06:52:53.07Z</time></trkpt><trkpt lat="45.8586183" lon="8.6725567"><ele>236.0</ele><time>2026-04-26T06:52:54.07Z</time></trkpt><trkpt lat="45.8585717" lon="8.6724267"><ele>236.00000000000003</ele><time>2026-04-26T06:52:56.07Z</time></trkpt><trkpt lat="45.8585417" lon="8.6723267"><ele>236.00000000000003</ele><time>2026-04-26T06:52:59.071Z</time></trkpt><trkpt lat="45.85851" lon="8.6722067"><ele>236.0</ele><time>2026-04-26T06:53:01.07Z</time></trkpt><trkpt lat="45.8584533" lon="8.6721033"><ele>236.0</ele><time>2026-04-26T06:53:03.07Z</time></trkpt><trkpt lat="45.8583333" lon="8.6720367"><ele>236.20000000000002</ele><time>2026-04-26T06:53:05.07Z</time></trkpt><trkpt lat="45.858255" lon="8.6719883"><ele>236.40000000000003</ele><time>2026-04-26T06:53:06.07Z</time></trkpt><trkpt lat="45.85817" lon="8.671925"><ele>236.6</ele><time>2026-04-26T06:53:07.07Z</time></trkpt><trkpt lat="45.8580767" lon="8.6718833"><ele>236.8</ele><time>2026-04-26T06:53:08.07Z</time></trkpt><trkpt lat="45.8579733" lon="8.67184"><ele>237.0</ele><time>2026-04-26T06:53:09.07Z</time></trkpt><trkpt lat="45.8578783" lon="8.6718133"><ele>238.2</ele><time>2026-04-26T06:53:10.07Z</time></trkpt><trkpt lat="45.8577717" lon="8.671785"><ele>239.39999999999998</ele><time>2026-04-26T06:53:11.07Z</time></trkpt><trkpt lat="45.8576817" lon="8.6717467"><ele>240.60000000000002</ele><time>2026-04-26T06:53:12.07Z</time></trkpt><trkpt lat="45.8576117" lon="8.6716833"><ele>241.8</ele><time>2026-04-26T06:53:13.07Z</time></trkpt><trkpt lat="45.8575417" lon="8.6716183"><ele>243.0</ele><time>2026-04-26T06:53:14.07Z</time></trkpt><trkpt lat="45.8574617" lon="8.671545"><ele>243.0</ele><time>2026-04-26T06:53:15.07Z</time></trkpt><trkpt lat="45.8573833" lon="8.6714433"><ele>243.0</ele><time>2026-04-26T06:53:16.07Z</time></trkpt><trkpt lat="45.8572983" lon="8.671325"><ele>243.0</ele><time>2026-04-26T06:53:17.071Z</time></trkpt><trkpt lat="45.85721" lon="8.6712233"><ele>243.0</ele><time>2026-04-26T06:53:18.07Z</time></trkpt><trkpt lat="45.8571117" lon="8.6711233"><ele>243.2</ele><time>2026-04-26T06:53:19.07Z</time></trkpt><trkpt lat="45.857015" lon="8.6710317"><ele>243.4</ele><time>2026-04-26T06:53:20.071Z</time></trkpt><trkpt lat="45.856925" lon="8.67095"><ele>243.59999999999997</ele><time>2026-04-26T06:53:21.07Z</time></trkpt><trkpt lat="45.85684" lon="8.6708767"><ele>243.79999999999998</ele><time>2026-04-26T06:53:22.07Z</time></trkpt><trkpt lat="45.856755" lon="8.670815"><ele>244.0</ele><time>2026-04-26T06:53:23.07Z</time></trkpt><trkpt lat="45.8566733" lon="8.6707583"><ele>243.49999999999997</ele><time>2026-04-26T06:53:24.07Z</time></trkpt><trkpt lat="45.8565867" lon="8.6707"><ele>243.0</ele><time>2026-04-26T06:53:25.07Z</time></trkpt><trkpt lat="45.8565017" lon="8.6706317"><ele>242.5</ele><time>2026-04-26T06:53:26.07Z</time></trkpt><trkpt lat="45.8564183" lon="8.6705767"><ele>242.0</ele><time>2026-04-26T06:53:27.07Z</time></trkpt><trkpt lat="45.856345" lon="8.6705183"><ele>241.49999999999997</ele><time>2026-04-26T06:53:28.07Z</time></trkpt><trkpt lat="45.8562733" lon="8.67047"><ele>241.0</ele><time>2026-04-26T06:53:29.07Z</time></trkpt><trkpt lat="45.8561833" lon="8.6703767"><ele>241.60000000000002</ele><time>2026-04-26T06:53:31.07Z</time></trkpt><trkpt lat="45.85615" lon="8.6702583"><ele>242.20000000000002</ele><time>2026-04-26T06:53:33.07Z</time></trkpt><trkpt lat="45.8561633" lon="8.6701617"><ele>242.79999999999998</ele><time>2026-04-26T06:53:34.07Z</time></trkpt><trkpt lat="45.8561867" lon="8.6700317"><ele>243.39999999999998</ele><time>2026-04-26T06:53:35.07Z</time></trkpt><trkpt lat="45.8562217" lon="8.669875"><ele>244.0</ele><time>2026-04-26T06:53:36.07Z</time></trkpt><trkpt lat="45.8562533" lon="8.6697033"><ele>244.0</ele><time>2026-04-26T06:53:37.07Z</time></trkpt><trkpt lat="45.8562783" lon="8.6695583"><ele>243.99999999999997</ele><time>2026-04-26T06:53:38.07Z</time></trkpt><trkpt lat="45.856305" lon="8.66943"><ele>243.99999999999997</ele><time>2026-04-26T06:53:39.07Z</time></trkpt><trkpt lat="45.85633" lon="8.669315"><ele>244.0</ele><time>2026-04-26T06:53:40.07Z</time></trkpt><trkpt lat="45.8563583" lon="8.6691933"><ele>244.0</ele><time>2026-04-26T06:53:41.07Z</time></trkpt><trkpt lat="45.85639" lon="8.6690717"><ele>245.0</ele><time>2026-04-26T06:53:42.07Z</time></trkpt><trkpt lat="45.856435" lon="8.6689617"><ele>245.99999999999997</ele><time>2026-04-26T06:53:43.07Z</time></trkpt><trkpt lat="45.8564883" lon="8.6688533"><ele>246.99999999999997</ele><time>2026-04-26T06:53:44.07Z</time></trkpt><trkpt lat="45.85657" lon="8.6687367"><ele>248.0</ele><time>2026-04-26T06:53:45.07Z</time></trkpt><trkpt lat="45.8566633" lon="8.6686217"><ele>249.0</ele><time>2026-04-26T06:53:46.07Z</time></trkpt><trkpt lat="45.85676" lon="8.6685"><ele>249.75</ele><time>2026-04-26T06:53:47.07Z</time></trkpt><trkpt lat="45.85686" lon="8.6684"><ele>250.5</ele><time>2026-04-26T06:53:48.07Z</time></trkpt><trkpt lat="45.8569617" lon="8.6682867"><ele>251.25</ele><time>2026-04-26T06:53:49.07Z</time></trkpt><trkpt lat="45.857065" lon="8.6681583"><ele>252.0</ele><time>2026-04-26T06:53:50.07Z</time></trkpt><trkpt lat="45.8571433" lon="8.6680433"><ele>252.0</ele><time>2026-04-26T06:53:51.07Z</time></trkpt><trkpt lat="45.8572167" lon="8.6679333"><ele>252.0</ele><time>2026-04-26T06:53:52.07Z</time></trkpt><trkpt lat="45.8572883" lon="8.667835"><ele>252.0</ele><time>2026-04-26T06:53:53.07Z</time></trkpt><trkpt lat="45.85736" lon="8.6677533"><ele>252.0</ele><time>2026-04-26T06:53:54.07Z</time></trkpt><trkpt lat="45.8574233" lon="8.66769"><ele>252.0</ele><time>2026-04-26T06:53:55.071Z</time></trkpt><trkpt lat="45.8574867" lon="8.6676267"><ele>253.16666666666666</ele><time>2026-04-26T06:53:56.07Z</time></trkpt><trkpt lat="45.8575417" lon="8.6675717"><ele>254.33333333333331</ele><time>2026-04-26T06:53:57.07Z</time></trkpt><trkpt lat="45.8575883" lon="8.6675017"><ele>255.5</ele><time>2026-04-26T06:53:58.07Z</time></trkpt><trkpt lat="45.8576283" lon="8.66743"><ele>256.66666666666663</ele><time>2026-04-26T06:53:59.07Z</time></trkpt><trkpt lat="45.8576917" lon="8.66726"><ele>257.8333333333333</ele><time>2026-04-26T06:54:01.07Z</time></trkpt><trkpt lat="45.857745" lon="8.667165"><ele>259.0</ele><time>2026-04-26T06:54:03.07Z</time></trkpt><trkpt lat="45.8577833" lon="8.6670667"><ele>259.0</ele><time>2026-04-26T06:54:04.07Z</time></trkpt><trkpt lat="45.8578417" lon="8.6669517"><ele>259.0</ele><time>2026-04-26T06:54:05.071Z</time></trkpt><trkpt lat="45.85791" lon="8.6668367"><ele>259.0</ele><time>2026-04-26T06:54:06.07Z</time></trkpt><trkpt lat="45.8579783" lon="8.66669"><ele>259.0</ele><time>2026-04-26T06:54:07.071Z</time></trkpt><trkpt lat="45.85805" lon="8.6665633"><ele>259.0</ele><time>2026-04-26T06:54:08.071Z</time></trkpt><trkpt lat="45.8581433" lon="8.666435"><ele>260.75</ele><time>2026-04-26T06:54:09.07Z</time></trkpt><trkpt lat="45.8582317" lon="8.6663117"><ele>262.5</ele><time>2026-04-26T06:54:10.07Z</time></trkpt><trkpt lat="45.8583267" lon="8.6662083"><ele>264.25</ele><time>2026-04-26T06:54:11.071Z</time></trkpt><trkpt lat="45.8584167" lon="8.6661"><ele>266.0</ele><time>2026-04-26T06:54:12.07Z</time></trkpt><trkpt lat="45.8585067" lon="8.6659933"><ele>267.25</ele><time>2026-04-26T06:54:13.07Z</time></trkpt><trkpt lat="45.8586067" lon="8.6658717"><ele>268.5</ele><time>2026-04-26T06:54:14.07Z</time></trkpt><trkpt lat="45.8586933" lon="8.6657483"><ele>269.75</ele><time>2026-04-26T06:54:15.07Z</time></trkpt><trkpt lat="45.85878" lon="8.6656233"><ele>271.0</ele><time>2026-04-26T06:54:16.071Z</time></trkpt><trkpt lat="45.85887" lon="8.6655"><ele>271.0</ele><time>2026-04-26T06:54:17.07Z</time></trkpt><trkpt lat="45.85895" lon="8.6653867"><ele>271.0</ele><time>2026-04-26T06:54:18.07Z</time></trkpt><trkpt lat="45.85902" lon="8.66529"><ele>271.0</ele><time>2026-04-26T06:54:19.07Z</time></trkpt><trkpt lat="45.8590933" lon="8.6651867"><ele>271.0</ele><time>2026-04-26T06:54:20.07Z</time></trkpt><trkpt lat="45.8591633" lon="8.6650783"><ele>271.0</ele><time>2026-04-26T06:54:21.07Z</time></trkpt><trkpt lat="45.8592433" lon="8.66498"><ele>271.8</ele><time>2026-04-26T06:54:22.07Z</time></trkpt><trkpt lat="45.8593333" lon="8.6648867"><ele>272.6</ele><time>2026-04-26T06:54:23.071Z</time></trkpt><trkpt lat="45.8594233" lon="8.66481"><ele>273.4</ele><time>2026-04-26T06:54:24.07Z</time></trkpt><trkpt lat="45.8595083" lon="8.6647417"><ele>274.2</ele><time>2026-04-26T06:54:25.07Z</time></trkpt><trkpt lat="45.85959" lon="8.664665"><ele>275.0</ele><time>2026-04-26T06:54:26.07Z</time></trkpt><trkpt lat="45.8596683" lon="8.6645717"><ele>275.0</ele><time>2026-04-26T06:54:27.07Z</time></trkpt><trkpt lat="45.8597417" lon="8.6644767"><ele>275.0</ele><time>2026-04-26T06:54:28.07Z</time></trkpt><trkpt lat="45.8598117" lon="8.6643633"><ele>275.0</ele><time>2026-04-26T06:54:29.071Z</time></trkpt><trkpt lat="45.8598817" lon="8.6642533"><ele>275.0</ele><time>2026-04-26T06:54:30.07Z</time></trkpt><trkpt lat="45.8599567" lon="8.664155"><ele>275.0</ele><time>2026-04-26T06:54:31.07Z</time></trkpt><trkpt lat="45.860025" lon="8.6640567"><ele>275.5</ele><time>2026-04-26T06:54:32.07Z</time></trkpt><trkpt lat="45.8601083" lon="8.6639667"><ele>276.0</ele><time>2026-04-26T06:54:33.07Z</time></trkpt><trkpt lat="45.8601717" lon="8.6638983"><ele>276.5</ele><time>2026-04-26T06:54:34.07Z</time></trkpt><trkpt lat="45.8602383" lon="8.6638283"><ele>277.0</ele><time>2026-04-26T06:54:35.07Z</time></trkpt><trkpt lat="45.8603133" lon="8.6637667"><ele>277.5</ele><time>2026-04-26T06:54:36.07Z</time></trkpt><trkpt lat="45.8604" lon="8.6637117"><ele>278.0</ele><time>2026-04-26T06:54:37.07Z</time></trkpt><trkpt lat="45.8604817" lon="8.66365"><ele>279.75</ele><time>2026-04-26T06:54:38.07Z</time></trkpt><trkpt lat="45.8605733" lon="8.663575"><ele>281.5</ele><time>2026-04-26T06:54:39.07Z</time></trkpt><trkpt lat="45.8606717" lon="8.6634983"><ele>283.25</ele><time>2026-04-26T06:54:40.07Z</time></trkpt><trkpt lat="45.8607733" lon="8.6634217"><ele>285.0</ele><time>2026-04-26T06:54:41.07Z</time></trkpt><trkpt lat="45.8608817" lon="8.6633267"><ele>284.75</ele><time>2026-04-26T06:54:42.07Z</time></trkpt><trkpt lat="45.8609933" lon="8.6632267"><ele>284.5</ele><time>2026-04-26T06:54:43.07Z</time></trkpt><trkpt lat="45.8610983" lon="8.6631333"><ele>284.25</ele><time>2026-04-26T06:54:44.07Z</time></trkpt><trkpt lat="45.861195" lon="8.6630567"><ele>284.0</ele><time>2026-04-26T06:54:45.07Z</time></trkpt><trkpt lat="45.861285" lon="8.6629783"><ele>284.0</ele><time>2026-04-26T06:54:46.07Z</time></trkpt><trkpt lat="45.861375" lon="8.6628917"><ele>284.0</ele><time>2026-04-26T06:54:47.071Z</time></trkpt><trkpt lat="45.8614717" lon="8.6627983"><ele>284.0</ele><time>2026-04-26T06:54:48.07Z</time></trkpt><trkpt lat="45.86156" lon="8.662705"><ele>284.0</ele><time>2026-04-26T06:54:49.07Z</time></trkpt><trkpt lat="45.8616483" lon="8.66262"><ele>284.0</ele><time>2026-04-26T06:54:50.07Z</time></trkpt><trkpt lat="45.861735" lon="8.6625483"><ele>285.0</ele><time>2026-04-26T06:54:51.07Z</time></trkpt><trkpt lat="45.86182" lon="8.6624783"><ele>286.0</ele><time>2026-04-26T06:54:52.07Z</time></trkpt><trkpt lat="45.8619017" lon="8.6624183"><ele>287.0</ele><time>2026-04-26T06:54:53.07Z</time></trkpt><trkpt lat="45.8619883" lon="8.6623733"><ele>288.0</ele><time>2026-04-26T06:54:54.07Z</time></trkpt><trkpt lat="45.8620667" lon="8.662355"><ele>289.0</ele><time>2026-04-26T06:54:55.07Z</time></trkpt><trkpt lat="45.8621383" lon="8.6623267"><ele>290.0</ele><time>2026-04-26T06:54:56.07Z</time></trkpt><trkpt lat="45.862245" lon="8.6622967"><ele>290.0</ele><time>2026-04-26T06:54:58.07Z</time></trkpt><trkpt lat="45.8623317" lon="8.6622383"><ele>290.0</ele><time>2026-04-26T06:55:00.07Z</time></trkpt><trkpt lat="45.8623667" lon="8.66212"><ele>290.0</ele><time>2026-04-26T06:55:02.07Z</time></trkpt><trkpt lat="45.8624033" lon="8.6619983"><ele>290.0</ele><time>2026-04-26T06:55:04.071Z</time></trkpt><trkpt lat="45.86248" lon="8.6619033"><ele>290.0</ele><time>2026-04-26T06:55:06.07Z</time></trkpt><trkpt lat="45.8625433" lon="8.6618483"><ele>290.6666666666667</ele><time>2026-04-26T06:55:07.07Z</time></trkpt><trkpt lat="45.8626333" lon="8.6618033"><ele>291.33333333333337</ele><time>2026-04-26T06:55:08.07Z</time></trkpt><trkpt lat="45.8627133" lon="8.6617683"><ele>292.0</ele><time>2026-04-26T06:55:09.07Z</time></trkpt><trkpt lat="45.86278" lon="8.6617333"><ele>292.6666666666667</ele><time>2026-04-26T06:55:10.07Z</time></trkpt><trkpt lat="45.8628517" lon="8.6616867"><ele>293.3333333333333</ele><time>2026-04-26T06:55:11.07Z</time></trkpt><trkpt lat="45.8629183" lon="8.661625"><ele>294.0</ele><time>2026-04-26T06:55:12.07Z</time></trkpt><trkpt lat="45.8629883" lon="8.6615517"><ele>294.0</ele><time>2026-04-26T06:55:13.07Z</time></trkpt><trkpt lat="45.863065" lon="8.661475"><ele>294.0</ele><time>2026-04-26T06:55:14.07Z</time></trkpt><trkpt lat="45.8631333" lon="8.6614133"><ele>294.0</ele><time>2026-04-26T06:55:15.07Z</time></trkpt><trkpt lat="45.8632" lon="8.6613333"><ele>294.0</ele><time>2026-04-26T06:55:16.07Z</time></trkpt><trkpt lat="45.863265" lon="8.6612533"><ele>294.0</ele><time>2026-04-26T06:55:17.071Z</time></trkpt><trkpt lat="45.8633383" lon="8.661185"><ele>294.0</ele><time>2026-04-26T06:55:18.071Z</time></trkpt><trkpt lat="45.8634167" lon="8.66111"><ele>294.59999999999997</ele><time>2026-04-26T06:55:19.07Z</time></trkpt><trkpt lat="45.8634867" lon="8.6610483"><ele>295.2</ele><time>2026-04-26T06:55:20.07Z</time></trkpt><trkpt lat="45.86355" lon="8.66099"><ele>295.79999999999995</ele><time>2026-04-26T06:55:21.07Z</time></trkpt><trkpt lat="45.8636667" lon="8.6609417"><ele>296.4</ele><time>2026-04-26T06:55:23.07Z</time></trkpt><trkpt lat="45.8637933" lon="8.6609767"><ele>297.0</ele><time>2026-04-26T06:55:25.07Z</time></trkpt><trkpt lat="45.8639183" lon="8.660975"><ele>297.0</ele><time>2026-04-26T06:55:27.07Z</time></trkpt><trkpt lat="45.8640383" lon="8.6609083"><ele>297.0</ele><time>2026-04-26T06:55:29.07Z</time></trkpt><trkpt lat="45.8640933" lon="8.6608633"><ele>297.0</ele><time>2026-04-26T06:55:30.07Z</time></trkpt><trkpt lat="45.8641583" lon="8.6608267"><ele>297.0</ele><time>2026-04-26T06:55:31.07Z</time></trkpt><trkpt lat="45.8642183" lon="8.66079"><ele>297.0</ele><time>2026-04-26T06:55:32.07Z</time></trkpt><trkpt lat="45.8642783" lon="8.66076"><ele>297.0</ele><time>2026-04-26T06:55:33.07Z</time></trkpt><trkpt lat="45.8643767" lon="8.6607"><ele>295.0</ele><time>2026-04-26T06:55:35.07Z</time></trkpt><trkpt lat="45.864445" lon="8.6606517"><ele>293.0</ele><time>2026-04-26T06:55:36.07Z</time></trkpt><trkpt lat="45.8645283" lon="8.660585"><ele>291.0</ele><time>2026-04-26T06:55:37.07Z</time></trkpt><trkpt lat="45.8646167" lon="8.6604983"><ele>289.0</ele><time>2026-04-26T06:55:38.07Z</time></trkpt><trkpt lat="45.86469" lon="8.6604233"><ele>287.0</ele><time>2026-04-26T06:55:39.07Z</time></trkpt><trkpt lat="45.8647617" lon="8.660355"><ele>287.0</ele><time>2026-04-26T06:55:40.07Z</time></trkpt><trkpt lat="45.8648117" lon="8.6602867"><ele>287.0</ele><time>2026-04-26T06:55:41.07Z</time></trkpt><trkpt lat="45.864865" lon="8.660175"><ele>287.0</ele><time>2026-04-26T06:55:43.07Z</time></trkpt><trkpt lat="45.864865" lon="8.660035"><ele>287.0</ele><time>2026-04-26T06:55:45.07Z</time></trkpt><trkpt lat="45.86484" lon="8.6599033"><ele>287.0</ele><time>2026-04-26T06:55:47.071Z</time></trkpt><trkpt lat="45.8648083" lon="8.6598183"><ele>287.0</ele><time>2026-04-26T06:55:48.07Z</time></trkpt><trkpt lat="45.8647733" lon="8.6597167"><ele>288.8</ele><time>2026-04-26T06:55:49.07Z</time></trkpt><trkpt lat="45.8647433" lon="8.65962"><ele>290.6</ele><time>2026-04-26T06:55:50.07Z</time></trkpt><trkpt lat="45.864675" lon="8.6595083"><ele>292.40000000000003</ele><time>2026-04-26T06:55:52.07Z</time></trkpt><trkpt lat="45.8645867" lon="8.6594383"><ele>294.2</ele><time>2026-04-26T06:55:54.07Z</time></trkpt><trkpt lat="45.864485" lon="8.6593833"><ele>296.0</ele><time>2026-04-26T06:55:56.07Z</time></trkpt><trkpt lat="45.8643833" lon="8.65936"><ele>297.25</ele><time>2026-04-26T06:55:58.07Z</time></trkpt><trkpt lat="45.86429" lon="8.6593333"><ele>298.5</ele><time>2026-04-26T06:56:01.07Z</time></trkpt><trkpt lat="45.8641917" lon="8.6592383"><ele>299.75</ele><time>2026-04-26T06:56:13.07Z</time></trkpt><trkpt lat="45.86423" lon="8.6591"><ele>301.0</ele><time>2026-04-26T06:56:15.07Z</time></trkpt><trkpt lat="45.86426" lon="8.6589133"><ele>301.0</ele><time>2026-04-26T06:56:17.07Z</time></trkpt><trkpt lat="45.8642783" lon="8.6588217"><ele>301.0</ele><time>2026-04-26T06:56:18.07Z</time></trkpt><trkpt lat="45.8643067" lon="8.6586917"><ele>301.0</ele><time>2026-04-26T06:56:19.07Z</time></trkpt><trkpt lat="45.864345" lon="8.6585483"><ele>301.0</ele><time>2026-04-26T06:56:20.07Z</time></trkpt><trkpt lat="45.8643633" lon="8.6584267"><ele>301.0</ele><time>2026-04-26T06:56:21.07Z</time></trkpt><trkpt lat="45.86439" lon="8.6583067"><ele>301.0</ele><time>2026-04-26T06:56:22.071Z</time></trkpt><trkpt lat="45.8644233" lon="8.6581883"><ele>301.16666666666663</ele><time>2026-04-26T06:56:23.07Z</time></trkpt><trkpt lat="45.8644683" lon="8.6580783"><ele>301.3333333333333</ele><time>2026-04-26T06:56:24.07Z</time></trkpt><trkpt lat="45.8645083" lon="8.6579917"><ele>301.5</ele><time>2026-04-26T06:56:25.07Z</time></trkpt><trkpt lat="45.8645517" lon="8.6579217"><ele>301.6666666666667</ele><time>2026-04-26T06:56:26.07Z</time></trkpt><trkpt lat="45.86463" lon="8.657825"><ele>301.83333333333337</ele><time>2026-04-26T06:56:28.07Z</time></trkpt><trkpt lat="45.864695" lon="8.6577333"><ele>302.0</ele><time>2026-04-26T06:56:30.07Z</time></trkpt><trkpt lat="45.8647467" lon="8.6576433"><ele>302.2</ele><time>2026-04-26T06:56:32.07Z</time></trkpt><trkpt lat="45.8648133" lon="8.657545"><ele>302.4</ele><time>2026-04-26T06:56:34.07Z</time></trkpt><trkpt lat="45.86487" lon="8.657385"><ele>302.6</ele><time>2026-04-26T06:56:36.07Z</time></trkpt><trkpt lat="45.864905" lon="8.6572767"><ele>302.8</ele><time>2026-04-26T06:56:37.07Z</time></trkpt><trkpt lat="45.8649433" lon="8.6571583"><ele>303.0</ele><time>2026-04-26T06:56:38.071Z</time></trkpt><trkpt lat="45.8650033" lon="8.65705"><ele>304.25</ele><time>2026-04-26T06:56:39.071Z</time></trkpt><trkpt lat="45.86506" lon="8.6569417"><ele>305.5</ele><time>2026-04-26T06:56:40.07Z</time></trkpt><trkpt lat="45.86512" lon="8.6568033"><ele>306.75</ele><time>2026-04-26T06:56:41.07Z</time></trkpt><trkpt lat="45.8651633" lon="8.6566733"><ele>308.0</ele><time>2026-04-26T06:56:42.07Z</time></trkpt><trkpt lat="45.8652067" lon="8.6564417"><ele>298.75</ele><time>2026-04-26T06:56:43.07Z</time></trkpt><trkpt lat="45.8652317" lon="8.65626"><ele>289.5</ele><time>2026-04-26T06:56:44.07Z</time></trkpt><trkpt lat="45.8652517" lon="8.6560283"><ele>280.25</ele><time>2026-04-26T06:56:45.07Z</time></trkpt><trkpt lat="45.8652533" lon="8.6558583"><ele>271.0</ele><time>2026-04-26T06:56:46.07Z</time></trkpt><trkpt lat="45.8652467" lon="8.6556883"><ele>271.0</ele><time>2026-04-26T06:56:47.07Z</time></trkpt><trkpt lat="45.86525" lon="8.6555283"><ele>271.0</ele><time>2026-04-26T06:56:48.07Z</time></trkpt><trkpt lat="45.8652483" lon="8.6554117"><ele>271.0</ele><time>2026-04-26T06:56:49.07Z</time></trkpt><trkpt lat="45.8652517" lon="8.6552983"><ele>271.0</ele><time>2026-04-26T06:56:50.07Z</time></trkpt><trkpt lat="45.8652533" lon="8.655205"><ele>271.0</ele><time>2026-04-26T06:56:51.07Z</time></trkpt><trkpt lat="45.8652433" lon="8.6550517"><ele>271.0</ele><time>2026-04-26T06:56:53.07Z</time></trkpt><trkpt lat="45.8652167" lon="8.6549267"><ele>271.5</ele><time>2026-04-26T06:57:04.07Z</time></trkpt><trkpt lat="45.865205" lon="8.6548117"><ele>272.0</ele><time>2026-04-26T06:57:06.07Z</time></trkpt><trkpt lat="45.8652033" lon="8.654695"><ele>272.5</ele><time>2026-04-26T06:57:07.071Z</time></trkpt><trkpt lat="45.8651983" lon="8.65457"><ele>273.0</ele><time>2026-04-26T06:57:08.07Z</time></trkpt><trkpt lat="45.86518" lon="8.6544433"><ele>273.5</ele><time>2026-04-26T06:57:09.07Z</time></trkpt><trkpt lat="45.8651683" lon="8.65431"><ele>274.0</ele><time>2026-04-26T06:57:10.07Z</time></trkpt><trkpt lat="45.8651617" lon="8.6541633"><ele>274.3333333333333</ele><time>2026-04-26T06:57:11.07Z</time></trkpt><trkpt lat="45.86515" lon="8.65404"><ele>274.66666666666663</ele><time>2026-04-26T06:57:12.07Z</time></trkpt><trkpt lat="45.8651417" lon="8.6539267"><ele>275.0</ele><time>2026-04-26T06:57:13.07Z</time></trkpt><trkpt lat="45.8651317" lon="8.6538367"><ele>275.3333333333333</ele><time>2026-04-26T06:57:14.07Z</time></trkpt><trkpt lat="45.8651283" lon="8.6536733"><ele>275.6666666666667</ele><time>2026-04-26T06:57:16.07Z</time></trkpt><trkpt lat="45.8651367" lon="8.653575"><ele>276.0</ele><time>2026-04-26T06:57:17.07Z</time></trkpt><trkpt lat="45.8651583" lon="8.653455"><ele>276.2</ele><time>2026-04-26T06:57:18.07Z</time></trkpt><trkpt lat="45.8651783" lon="8.6533033"><ele>276.40000000000003</ele><time>2026-04-26T06:57:19.07Z</time></trkpt><trkpt lat="45.8652033" lon="8.6531283"><ele>276.6</ele><time>2026-04-26T06:57:20.07Z</time></trkpt><trkpt lat="45.8652317" lon="8.6529717"><ele>276.8</ele><time>2026-04-26T06:57:21.07Z</time></trkpt><trkpt lat="45.8652633" lon="8.6528367"><ele>277.0</ele><time>2026-04-26T06:57:22.07Z</time></trkpt><trkpt lat="45.8652867" lon="8.65272"><ele>278.4</ele><time>2026-04-26T06:57:23.07Z</time></trkpt><trkpt lat="45.8653117" lon="8.652625"><ele>279.79999999999995</ele><time>2026-04-26T06:57:24.07Z</time></trkpt><trkpt lat="45.8653767" lon="8.6524917"><ele>281.2</ele><time>2026-04-26T06:57:26.07Z</time></trkpt><trkpt lat="45.8654333" lon="8.65244"><ele>282.59999999999997</ele><time>2026-04-26T06:57:27.07Z</time></trkpt><trkpt lat="45.8655283" lon="8.6523733"><ele>284.0</ele><time>2026-04-26T06:57:29.07Z</time></trkpt><trkpt lat="45.8655717" lon="8.6521983"><ele>284.0</ele><time>2026-04-26T06:57:31.07Z</time></trkpt><trkpt lat="45.8655617" lon="8.6520017"><ele>284.0</ele><time>2026-04-26T06:57:32.07Z</time></trkpt><trkpt lat="45.86555" lon="8.6517983"><ele>284.0</ele><time>2026-04-26T06:57:33.07Z</time></trkpt><trkpt lat="45.86553" lon="8.651605"><ele>284.0</ele><time>2026-04-26T06:57:34.07Z</time></trkpt><trkpt lat="45.8655067" lon="8.651425"><ele>285.0</ele><time>2026-04-26T06:57:35.07Z</time></trkpt><trkpt lat="45.8654967" lon="8.6512633"><ele>286.0</ele><time>2026-04-26T06:57:36.071Z</time></trkpt><trkpt lat="45.8654883" lon="8.6511183"><ele>287.0</ele><time>2026-04-26T06:57:37.07Z</time></trkpt><trkpt lat="45.8654833" lon="8.6509983"><ele>288.0</ele><time>2026-04-26T06:57:38.07Z</time></trkpt><trkpt lat="45.8654783" lon="8.6508967"><ele>289.0</ele><time>2026-04-26T06:57:39.07Z</time></trkpt><trkpt lat="45.865475" lon="8.650805"><ele>290.0</ele><time>2026-04-26T06:57:40.07Z</time></trkpt><trkpt lat="45.86547" lon="8.6506317"><ele>290.1666666666667</ele><time>2026-04-26T06:57:42.07Z</time></trkpt><trkpt lat="45.86547" lon="8.650535"><ele>290.33333333333337</ele><time>2026-04-26T06:57:43.07Z</time></trkpt><trkpt lat="45.8654517" lon="8.650445"><ele>290.5</ele><time>2026-04-26T06:57:44.07Z</time></trkpt><trkpt lat="45.865425" lon="8.6503483"><ele>290.6666666666667</ele><time>2026-04-26T06:57:45.07Z</time></trkpt><trkpt lat="45.8653967" lon="8.6501783"><ele>290.8333333333333</ele><time>2026-04-26T06:57:47.07Z</time></trkpt><trkpt lat="45.8653917" lon="8.6500367"><ele>291.0</ele><time>2026-04-26T06:57:49.07Z</time></trkpt><trkpt lat="45.8653617" lon="8.6499183"><ele>290.5</ele><time>2026-04-26T06:57:51.07Z</time></trkpt><trkpt lat="45.86531" lon="8.64981"><ele>290.0</ele><time>2026-04-26T06:57:53.07Z</time></trkpt><trkpt lat="45.8652583" lon="8.6497433"><ele>289.5</ele><time>2026-04-26T06:57:55.07Z</time></trkpt><trkpt lat="45.86519" lon="8.649685"><ele>289.0</ele><time>2026-04-26T06:57:57.07Z</time></trkpt><trkpt lat="45.8650917" lon="8.649615"><ele>288.5</ele><time>2026-04-26T06:57:59.07Z</time></trkpt><trkpt lat="45.8650083" lon="8.64956"><ele>288.0</ele><time>2026-04-26T06:58:01.07Z</time></trkpt><trkpt lat="45.86508" lon="8.6494433"><ele>287.4</ele><time>2026-04-26T06:58:44.07Z</time></trkpt><trkpt lat="45.8651467" lon="8.6493017"><ele>286.8</ele><time>2026-04-26T06:58:46.07Z</time></trkpt><trkpt lat="45.8651883" lon="8.649195"><ele>286.2</ele><time>2026-04-26T06:58:47.07Z</time></trkpt><trkpt lat="45.8652333" lon="8.64909"><ele>285.6</ele><time>2026-04-26T06:58:49.07Z</time></trkpt><trkpt lat="45.865275" lon="8.6489933"><ele>285.0</ele><time>2026-04-26T06:58:51.07Z</time></trkpt><trkpt lat="45.8652917" lon="8.6488717"><ele>285.0</ele><time>2026-04-26T06:58:53.07Z</time></trkpt><trkpt lat="45.865315" lon="8.6486633"><ele>285.0</ele><time>2026-04-26T06:58:55.07Z</time></trkpt><trkpt lat="45.8653483" lon="8.6484883"><ele>285.0</ele><time>2026-04-26T06:58:56.07Z</time></trkpt><trkpt lat="45.8653633" lon="8.6483067"><ele>285.0</ele><time>2026-04-26T06:58:57.07Z</time></trkpt><trkpt lat="45.8653833" lon="8.6481333"><ele>285.6</ele><time>2026-04-26T06:58:58.07Z</time></trkpt><trkpt lat="45.8653967" lon="8.6479983"><ele>286.2</ele><time>2026-04-26T06:58:59.07Z</time></trkpt><trkpt lat="45.8654067" lon="8.6478767"><ele>286.8</ele><time>2026-04-26T06:59:00.07Z</time></trkpt><trkpt lat="45.86542" lon="8.647735"><ele>287.4</ele><time>2026-04-26T06:59:01.071Z</time></trkpt><trkpt lat="45.8654367" lon="8.6475733"><ele>288.0</ele><time>2026-04-26T06:59:02.07Z</time></trkpt><trkpt lat="45.865445" lon="8.6474183"><ele>288.5</ele><time>2026-04-26T06:59:03.07Z</time></trkpt><trkpt lat="45.8654533" lon="8.6472633"><ele>289.0</ele><time>2026-04-26T06:59:04.07Z</time></trkpt><trkpt lat="45.865445" lon="8.6470867"><ele>289.5</ele><time>2026-04-26T06:59:05.07Z</time></trkpt><trkpt lat="45.865415" lon="8.6469217"><ele>290.0</ele><time>2026-04-26T06:59:06.07Z</time></trkpt><trkpt lat="45.8653817" lon="8.6467733"><ele>288.8</ele><time>2026-04-26T06:59:07.07Z</time></trkpt><trkpt lat="45.865355" lon="8.64662"><ele>287.6</ele><time>2026-04-26T06:59:08.07Z</time></trkpt><trkpt lat="45.86532" lon="8.646465"><ele>286.4</ele><time>2026-04-26T06:59:09.07Z</time></trkpt><trkpt lat="45.8652883" lon="8.646325"><ele>285.2</ele><time>2026-04-26T06:59:10.07Z</time></trkpt><trkpt lat="45.8652683" lon="8.64621"><ele>284.0</ele><time>2026-04-26T06:59:11.07Z</time></trkpt><trkpt lat="45.86525" lon="8.64611"><ele>283.4</ele><time>2026-04-26T06:59:12.07Z</time></trkpt><trkpt lat="45.8651817" lon="8.645955"><ele>282.79999999999995</ele><time>2026-04-26T06:59:14.07Z</time></trkpt><trkpt lat="45.86511" lon="8.6458383"><ele>282.20000000000005</ele><time>2026-04-26T06:59:16.07Z</time></trkpt><trkpt lat="45.8650717" lon="8.645765"><ele>281.6</ele><time>2026-04-26T06:59:17.07Z</time></trkpt><trkpt lat="45.8650333" lon="8.6455783"><ele>281.0</ele><time>2026-04-26T06:59:19.07Z</time></trkpt><trkpt lat="45.8649667" lon="8.6454833"><ele>283.6</ele><time>2026-04-26T06:59:20.07Z</time></trkpt><trkpt lat="45.86489" lon="8.6453817"><ele>286.20000000000005</ele><time>2026-04-26T06:59:21.07Z</time></trkpt><trkpt lat="45.8648467" lon="8.64528"><ele>288.79999999999995</ele><time>2026-04-26T06:59:22.07Z</time></trkpt><trkpt lat="45.8647817" lon="8.6451917"><ele>291.4</ele><time>2026-04-26T06:59:23.071Z</time></trkpt><trkpt lat="45.8647083" lon="8.6450967"><ele>294.0</ele><time>2026-04-26T06:59:24.07Z</time></trkpt><trkpt lat="45.8646333" lon="8.645"><ele>294.0</ele><time>2026-04-26T06:59:25.07Z</time></trkpt><trkpt lat="45.86455" lon="8.6448983"><ele>294.0</ele><time>2026-04-26T06:59:26.07Z</time></trkpt><trkpt lat="45.8644483" lon="8.644775"><ele>294.0</ele><time>2026-04-26T06:59:27.07Z</time></trkpt><trkpt lat="45.8643583" lon="8.64465"><ele>294.0</ele><time>2026-04-26T06:59:28.07Z</time></trkpt><trkpt lat="45.8642717" lon="8.6445367"><ele>296.4</ele><time>2026-04-26T06:59:29.07Z</time></trkpt><trkpt lat="45.8641833" lon="8.6444283"><ele>298.79999999999995</ele><time>2026-04-26T06:59:30.07Z</time></trkpt><trkpt lat="45.8640917" lon="8.6443317"><ele>301.20000000000005</ele><time>2026-04-26T06:59:31.07Z</time></trkpt><trkpt lat="45.8640117" lon="8.6442367"><ele>303.6</ele><time>2026-04-26T06:59:32.07Z</time></trkpt><trkpt lat="45.8639833" lon="8.6441417"><ele>306.0</ele><time>2026-04-26T06:59:33.07Z</time></trkpt><trkpt lat="45.863925" lon="8.6440367"><ele>306.0</ele><time>2026-04-26T06:59:34.07Z</time></trkpt><trkpt lat="45.8638633" lon="8.64392"><ele>306.0</ele><time>2026-04-26T06:59:35.07Z</time></trkpt><trkpt lat="45.86379" lon="8.6437933"><ele>306.0</ele><time>2026-04-26T06:59:36.071Z</time></trkpt><trkpt lat="45.8637283" lon="8.6436817"><ele>306.0</ele><time>2026-04-26T06:59:37.07Z</time></trkpt><trkpt lat="45.8636833" lon="8.6435917"><ele>306.0</ele><time>2026-04-26T06:59:38.07Z</time></trkpt><trkpt lat="45.863645" lon="8.643495"><ele>306.0</ele><time>2026-04-26T06:59:39.07Z</time></trkpt><trkpt lat="45.8636067" lon="8.6434117"><ele>306.0</ele><time>2026-04-26T06:59:40.07Z</time></trkpt><trkpt lat="45.8635683" lon="8.64333"><ele>306.0</ele><time>2026-04-26T06:59:41.07Z</time></trkpt><trkpt lat="45.8635017" lon="8.6432183"><ele>306.0</ele><time>2026-04-26T06:59:43.07Z</time></trkpt><trkpt lat="45.8634267" lon="8.64316"><ele>306.0</ele><time>2026-04-26T06:59:45.07Z</time></trkpt><trkpt lat="45.863355" lon="8.6431283"><ele>306.0</ele><time>2026-04-26T06:59:47.07Z</time></trkpt><trkpt lat="45.8632917" lon="8.6431267"><ele>306.0</ele><time>2026-04-26T06:59:49.07Z</time></trkpt><trkpt lat="45.8632117" lon="8.643115"><ele>306.0</ele><time>2026-04-26T06:59:52.07Z</time></trkpt><trkpt lat="45.86314" lon="8.6430917"><ele>306.0</ele><time>2026-04-26T06:59:54.07Z</time></trkpt><trkpt lat="45.863005" lon="8.6430733"><ele>306.0</ele><time>2026-04-26T06:59:56.07Z</time></trkpt><trkpt lat="45.8629083" lon="8.64308"><ele>306.0</ele><time>2026-04-26T06:59:57.07Z</time></trkpt><trkpt lat="45.862825" lon="8.6431033"><ele>306.0</ele><time>2026-04-26T06:59:58.07Z</time></trkpt><trkpt lat="45.8627417" lon="8.6431317"><ele>306.0</ele><time>2026-04-26T06:59:59.07Z</time></trkpt><trkpt lat="45.8626717" lon="8.6431567"><ele>306.0</ele><time>2026-04-26T07:00:00.07Z</time></trkpt><trkpt lat="45.8626033" lon="8.6431917"><ele>306.0</ele><time>2026-04-26T07:00:01.07Z</time></trkpt><trkpt lat="45.8625417" lon="8.6432367"><ele>306.0</ele><time>2026-04-26T07:00:02.07Z</time></trkpt><trkpt lat="45.8624817" lon="8.6432717"><ele>306.0</ele><time>2026-04-26T07:00:03.071Z</time></trkpt><trkpt lat="45.8623917" lon="8.6432867"><ele>306.1666666666667</ele><time>2026-04-26T07:00:05.071Z</time></trkpt><trkpt lat="45.8623133" lon="8.6432683"><ele>306.3333333333333</ele><time>2026-04-26T07:00:07.07Z</time></trkpt><trkpt lat="45.862245" lon="8.6433083"><ele>306.5</ele><time>2026-04-26T07:00:09.07Z</time></trkpt><trkpt lat="45.8621583" lon="8.6434267"><ele>306.66666666666663</ele><time>2026-04-26T07:00:11.071Z</time></trkpt><trkpt lat="45.86211" lon="8.6435167"><ele>306.8333333333333</ele><time>2026-04-26T07:00:12.07Z</time></trkpt><trkpt lat="45.8620683" lon="8.6435967"><ele>307.0</ele><time>2026-04-26T07:00:13.07Z</time></trkpt><trkpt lat="45.862" lon="8.643705"><ele>307.0</ele><time>2026-04-26T07:00:15.07Z</time></trkpt><trkpt lat="45.8618967" lon="8.64376"><ele>307.0</ele><time>2026-04-26T07:00:17.07Z</time></trkpt><trkpt lat="45.861785" lon="8.64378"><ele>307.0</ele><time>2026-04-26T07:00:19.07Z</time></trkpt><trkpt lat="45.861685" lon="8.643785"><ele>307.0</ele><time>2026-04-26T07:00:21.07Z</time></trkpt><trkpt lat="45.8616133" lon="8.6437783"><ele>307.0</ele><time>2026-04-26T07:00:23.07Z</time></trkpt><trkpt lat="45.8615283" lon="8.643795"><ele>305.5</ele><time>2026-04-26T07:00:26.07Z</time></trkpt><trkpt lat="45.86147" lon="8.643865"><ele>304.0</ele><time>2026-04-26T07:00:29.07Z</time></trkpt><trkpt lat="45.86146" lon="8.643965"><ele>302.5</ele><time>2026-04-26T07:00:32.07Z</time></trkpt><trkpt lat="45.8613883" lon="8.6439583"><ele>301.0</ele><time>2026-04-26T07:00:44.07Z</time></trkpt><trkpt lat="45.861335" lon="8.6438933"><ele>299.5</ele><time>2026-04-26T07:00:46.07Z</time></trkpt><trkpt lat="45.86129" lon="8.64383"><ele>298.0</ele><time>2026-04-26T07:00:48.07Z</time></trkpt><trkpt lat="45.8612633" lon="8.6436933"><ele>297.7142857142857</ele><time>2026-04-26T07:00:52.07Z</time></trkpt><trkpt lat="45.8612633" lon="8.6436017"><ele>297.4285714285714</ele><time>2026-04-26T07:00:54.07Z</time></trkpt><trkpt lat="45.86127" lon="8.643505"><ele>297.1428571428571</ele><time>2026-04-26T07:00:56.07Z</time></trkpt><trkpt lat="45.8612633" lon="8.6434067"><ele>296.85714285714283</ele><time>2026-04-26T07:00:58.07Z</time></trkpt><trkpt lat="45.861245" lon="8.64331"><ele>296.57142857142856</ele><time>2026-04-26T07:01:00.07Z</time></trkpt><trkpt lat="45.8612367" lon="8.64321"><ele>296.2857142857143</ele><time>2026-04-26T07:01:02.07Z</time></trkpt><trkpt lat="45.8612483" lon="8.64312"><ele>296.0</ele><time>2026-04-26T07:01:04.07Z</time></trkpt><trkpt lat="45.8612517" lon="8.6430233"><ele>296.0</ele><time>2026-04-26T07:01:06.07Z</time></trkpt><trkpt lat="45.861265" lon="8.6429283"><ele>296.0</ele><time>2026-04-26T07:01:08.071Z</time></trkpt><trkpt lat="45.8612933" lon="8.6428367"><ele>296.0</ele><time>2026-04-26T07:01:10.07Z</time></trkpt><trkpt lat="45.8613367" lon="8.6427367"><ele>296.0</ele><time>2026-04-26T07:01:13.07Z</time></trkpt><trkpt lat="45.8613967" lon="8.6426517"><ele>296.0</ele><time>2026-04-26T07:01:17.07Z</time></trkpt><trkpt lat="45.8614533" lon="8.6426067"><ele>296.0</ele><time>2026-04-26T07:01:19.07Z</time></trkpt><trkpt lat="45.8615333" lon="8.6425467"><ele>295.0</ele><time>2026-04-26T07:01:21.07Z</time></trkpt><trkpt lat="45.8616033" lon="8.6425133"><ele>294.0</ele><time>2026-04-26T07:01:23.07Z</time></trkpt><trkpt lat="45.86167" lon="8.6425083"><ele>293.0</ele><time>2026-04-26T07:01:25.07Z</time></trkpt><trkpt lat="45.861735" lon="8.6425183"><ele>292.0</ele><time>2026-04-26T07:01:28.07Z</time></trkpt><trkpt lat="45.86181" lon="8.64246"><ele>291.0</ele><time>2026-04-26T07:01:32.071Z</time></trkpt><trkpt lat="45.8618683" lon="8.6424217"><ele>290.0</ele><time>2026-04-26T07:01:34.07Z</time></trkpt><trkpt lat="45.8619433" lon="8.6423233"><ele>290.0</ele><time>2026-04-26T07:01:37.07Z</time></trkpt><trkpt lat="45.8620383" lon="8.6422633"><ele>290.0</ele><time>2026-04-26T07:01:39.07Z</time></trkpt><trkpt lat="45.8621533" lon="8.64221"><ele>290.0</ele><time>2026-04-26T07:01:41.071Z</time></trkpt><trkpt lat="45.862215" lon="8.6421783"><ele>290.0</ele><time>2026-04-26T07:01:42.07Z</time></trkpt><trkpt lat="45.862275" lon="8.642145"><ele>290.0</ele><time>2026-04-26T07:01:43.071Z</time></trkpt><trkpt lat="45.86235" lon="8.6421217"><ele>290.0</ele><time>2026-04-26T07:01:44.07Z</time></trkpt><trkpt lat="45.8624217" lon="8.6421"><ele>290.0</ele><time>2026-04-26T07:01:45.07Z</time></trkpt><trkpt lat="45.862495" lon="8.6420717"><ele>290.0</ele><time>2026-04-26T07:01:46.07Z</time></trkpt><trkpt lat="45.862585" lon="8.6420233"><ele>290.0</ele><time>2026-04-26T07:01:48.07Z</time></trkpt><trkpt lat="45.8626583" lon="8.6420067"><ele>290.0</ele><time>2026-04-26T07:01:50.071Z</time></trkpt><trkpt lat="45.8627467" lon="8.6420133"><ele>290.0</ele><time>2026-04-26T07:01:53.071Z</time></trkpt><trkpt lat="45.8628317" lon="8.6420233"><ele>290.0</ele><time>2026-04-26T07:01:55.07Z</time></trkpt><trkpt lat="45.8629183" lon="8.642025"><ele>289.0</ele><time>2026-04-26T07:01:57.07Z</time></trkpt><trkpt lat="45.863005" lon="8.6419967"><ele>288.0</ele><time>2026-04-26T07:01:59.07Z</time></trkpt><trkpt lat="45.8630833" lon="8.641995"><ele>287.0</ele><time>2026-04-26T07:02:01.07Z</time></trkpt><trkpt lat="45.8631567" lon="8.6419833"><ele>286.0</ele><time>2026-04-26T07:02:03.07Z</time></trkpt><trkpt lat="45.8632217" lon="8.6419283"><ele>285.0</ele><time>2026-04-26T07:02:05.07Z</time></trkpt><trkpt lat="45.863255" lon="8.6418467"><ele>284.0</ele><time>2026-04-26T07:02:06.07Z</time></trkpt><trkpt lat="45.8632733" lon="8.6417567"><ele>283.0</ele><time>2026-04-26T07:02:07.07Z</time></trkpt><trkpt lat="45.8633017" lon="8.64166"><ele>279.8333333333333</ele><time>2026-04-26T07:02:08.07Z</time></trkpt><trkpt lat="45.8633067" lon="8.6415683"><ele>276.66666666666663</ele><time>2026-04-26T07:02:09.07Z</time></trkpt><trkpt lat="45.86333" lon="8.6414417"><ele>273.5</ele><time>2026-04-26T07:02:10.07Z</time></trkpt><trkpt lat="45.86335" lon="8.6413517"><ele>270.3333333333333</ele><time>2026-04-26T07:02:11.07Z</time></trkpt><trkpt lat="45.8633633" lon="8.6412567"><ele>267.1666666666667</ele><time>2026-04-26T07:02:12.07Z</time></trkpt><trkpt lat="45.8633817" lon="8.64117"><ele>264.0</ele><time>2026-04-26T07:02:13.07Z</time></trkpt><trkpt lat="45.863395" lon="8.6410267"><ele>261.8333333333333</ele><time>2026-04-26T07:02:15.07Z</time></trkpt><trkpt lat="45.863415" lon="8.6408933"><ele>259.6666666666667</ele><time>2026-04-26T07:02:17.07Z</time></trkpt><trkpt lat="45.8634433" lon="8.6407883"><ele>257.5</ele><time>2026-04-26T07:02:19.07Z</time></trkpt><trkpt lat="45.8634417" lon="8.6406767"><ele>255.33333333333334</ele><time>2026-04-26T07:02:22.07Z</time></trkpt><trkpt lat="45.8633517" lon="8.6406267"><ele>253.16666666666669</ele><time>2026-04-26T07:02:54.07Z</time></trkpt><trkpt lat="45.86329" lon="8.640595"><ele>251.0</ele><time>2026-04-26T07:02:56.07Z</time></trkpt><trkpt lat="45.8632133" lon="8.6405667"><ele>251.0</ele><time>2026-04-26T07:02:58.07Z</time></trkpt><trkpt lat="45.86313" lon="8.64053"><ele>251.00000000000003</ele><time>2026-04-26T07:03:00.07Z</time></trkpt><trkpt lat="45.8630267" lon="8.6404633"><ele>251.00000000000003</ele><time>2026-04-26T07:03:02.07Z</time></trkpt><trkpt lat="45.8629067" lon="8.6404167"><ele>251.0</ele><time>2026-04-26T07:03:04.07Z</time></trkpt><trkpt lat="45.8628017" lon="8.640425"><ele>251.0</ele><time>2026-04-26T07:03:06.07Z</time></trkpt><trkpt lat="45.8627517" lon="8.64037"><ele>249.33333333333334</ele><time>2026-04-26T07:03:08.07Z</time></trkpt><trkpt lat="45.8627717" lon="8.6402433"><ele>247.66666666666669</ele><time>2026-04-26T07:03:10.07Z</time></trkpt><trkpt lat="45.8628117" lon="8.640075"><ele>246.0</ele><time>2026-04-26T07:03:12.07Z</time></trkpt><trkpt lat="45.8628383" lon="8.6399783"><ele>244.33333333333331</ele><time>2026-04-26T07:03:13.07Z</time></trkpt><trkpt lat="45.8628583" lon="8.639885"><ele>242.66666666666666</ele><time>2026-04-26T07:03:14.07Z</time></trkpt><trkpt lat="45.862865" lon="8.63978"><ele>241.0</ele><time>2026-04-26T07:03:15.07Z</time></trkpt><trkpt lat="45.8628567" lon="8.6396833"><ele>241.0</ele><time>2026-04-26T07:03:16.07Z</time></trkpt><trkpt lat="45.8628967" lon="8.6395483"><ele>241.00000000000003</ele><time>2026-04-26T07:03:18.07Z</time></trkpt><trkpt lat="45.86298" lon="8.63945"><ele>241.00000000000003</ele><time>2026-04-26T07:03:20.07Z</time></trkpt><trkpt lat="45.8630767" lon="8.639385"><ele>241.0</ele><time>2026-04-26T07:03:22.07Z</time></trkpt><trkpt lat="45.86314" lon="8.6393667"><ele>241.0</ele><time>2026-04-26T07:03:23.07Z</time></trkpt><trkpt lat="45.8632167" lon="8.6393617"><ele>238.5</ele><time>2026-04-26T07:03:24.07Z</time></trkpt><trkpt lat="45.863315" lon="8.639365"><ele>236.0</ele><time>2026-04-26T07:03:25.07Z</time></trkpt><trkpt lat="45.8634117" lon="8.6393683"><ele>233.5</ele><time>2026-04-26T07:03:26.07Z</time></trkpt><trkpt lat="45.8635983" lon="8.6393817"><ele>231.0</ele><time>2026-04-26T07:03:28.07Z</time></trkpt><trkpt lat="45.86367" lon="8.6393917"><ele>229.83333333333334</ele><time>2026-04-26T07:03:29.07Z</time></trkpt><trkpt lat="45.8637783" lon="8.6394083"><ele>228.66666666666669</ele><time>2026-04-26T07:03:31.07Z</time></trkpt><trkpt lat="45.86386" lon="8.6394067"><ele>227.5</ele><time>2026-04-26T07:03:33.07Z</time></trkpt><trkpt lat="45.8639367" lon="8.6394067"><ele>226.33333333333334</ele><time>2026-04-26T07:03:35.07Z</time></trkpt><trkpt lat="45.8640183" lon="8.6394267"><ele>225.16666666666669</ele><time>2026-04-26T07:03:38.071Z</time></trkpt><trkpt lat="45.8640767" lon="8.6393733"><ele>224.0</ele><time>2026-04-26T07:03:41.07Z</time></trkpt><trkpt lat="45.8640167" lon="8.6392783"><ele>224.0</ele><time>2026-04-26T07:03:44.07Z</time></trkpt><trkpt lat="45.863915" lon="8.6391967"><ele>223.99999999999997</ele><time>2026-04-26T07:03:46.07Z</time></trkpt><trkpt lat="45.86386" lon="8.639105"><ele>223.99999999999997</ele><time>2026-04-26T07:03:47.07Z</time></trkpt><trkpt lat="45.8638117" lon="8.639"><ele>224.0</ele><time>2026-04-26T07:03:48.07Z</time></trkpt><trkpt lat="45.8637617" lon="8.638885"><ele>224.0</ele><time>2026-04-26T07:03:49.07Z</time></trkpt><trkpt lat="45.8637167" lon="8.6387883"><ele>224.0</ele><time>2026-04-26T07:03:50.07Z</time></trkpt><trkpt lat="45.863675" lon="8.6387033"><ele>223.99999999999997</ele><time>2026-04-26T07:03:51.07Z</time></trkpt><trkpt lat="45.86362" lon="8.6386283"><ele>223.99999999999997</ele><time>2026-04-26T07:03:52.07Z</time></trkpt><trkpt lat="45.8635433" lon="8.638565"><ele>224.0</ele><time>2026-04-26T07:03:53.07Z</time></trkpt><trkpt lat="45.8634383" lon="8.6385"><ele>224.0</ele><time>2026-04-26T07:03:54.07Z</time></trkpt><trkpt lat="45.8633217" lon="8.638435"><ele>223.0</ele><time>2026-04-26T07:03:55.07Z</time></trkpt><trkpt lat="45.86322" lon="8.6383617"><ele>221.99999999999997</ele><time>2026-04-26T07:03:56.07Z</time></trkpt><trkpt lat="45.863135" lon="8.6382833"><ele>220.99999999999997</ele><time>2026-04-26T07:03:57.071Z</time></trkpt><trkpt lat="45.8630633" lon="8.638215"><ele>220.0</ele><time>2026-04-26T07:03:58.07Z</time></trkpt><trkpt lat="45.8629933" lon="8.6381467"><ele>219.0</ele><time>2026-04-26T07:03:59.07Z</time></trkpt><trkpt lat="45.862925" lon="8.6380883"><ele>219.0</ele><time>2026-04-26T07:04:00.07Z</time></trkpt><trkpt lat="45.8628633" lon="8.63805"><ele>219.0</ele><time>2026-04-26T07:04:01.07Z</time></trkpt><trkpt lat="45.8627633" lon="8.6380167"><ele>219.0</ele><time>2026-04-26T07:04:03.07Z</time></trkpt><trkpt lat="45.8626983" lon="8.6380183"><ele>219.0</ele><time>2026-04-26T07:04:04.07Z</time></trkpt><trkpt lat="45.8626233" lon="8.6380267"><ele>219.0</ele><time>2026-04-26T07:04:05.07Z</time></trkpt><trkpt lat="45.862545" lon="8.6380383"><ele>219.0</ele><time>2026-04-26T07:04:06.07Z</time></trkpt><trkpt lat="45.8624683" lon="8.63805"><ele>218.66666666666666</ele><time>2026-04-26T07:04:07.07Z</time></trkpt><trkpt lat="45.8624017" lon="8.638055"><ele>218.33333333333331</ele><time>2026-04-26T07:04:08.07Z</time></trkpt><trkpt lat="45.8623383" lon="8.63805"><ele>218.0</ele><time>2026-04-26T07:04:09.071Z</time></trkpt><trkpt lat="45.862245" lon="8.637995"><ele>217.66666666666666</ele><time>2026-04-26T07:04:11.07Z</time></trkpt><trkpt lat="45.8621767" lon="8.6378533"><ele>217.33333333333331</ele><time>2026-04-26T07:04:13.071Z</time></trkpt><trkpt lat="45.8621317" lon="8.63776"><ele>217.0</ele><time>2026-04-26T07:04:14.07Z</time></trkpt><trkpt lat="45.862085" lon="8.6376583"><ele>216.99999999999997</ele><time>2026-04-26T07:04:15.07Z</time></trkpt><trkpt lat="45.8620467" lon="8.63757"><ele>217.0</ele><time>2026-04-26T07:04:16.07Z</time></trkpt><trkpt lat="45.862" lon="8.637495"><ele>217.0</ele><time>2026-04-26T07:04:17.07Z</time></trkpt><trkpt lat="45.8619533" lon="8.6374333"><ele>217.0</ele><time>2026-04-26T07:04:18.07Z</time></trkpt><trkpt lat="45.861885" lon="8.63739"><ele>216.99999999999997</ele><time>2026-04-26T07:04:19.069Z</time></trkpt><trkpt lat="45.8618" lon="8.6374067"><ele>217.0</ele><time>2026-04-26T07:04:20.069Z</time></trkpt><trkpt lat="45.861685" lon="8.637455"><ele>216.8</ele><time>2026-04-26T07:04:21.069Z</time></trkpt><trkpt lat="45.8615733" lon="8.6374933"><ele>216.6</ele><time>2026-04-26T07:04:22.069Z</time></trkpt><trkpt lat="45.8614683" lon="8.6375233"><ele>216.40000000000003</ele><time>2026-04-26T07:04:23.069Z</time></trkpt><trkpt lat="45.8613617" lon="8.6375533"><ele>216.20000000000002</ele><time>2026-04-26T07:04:24.069Z</time></trkpt><trkpt lat="45.8612783" lon="8.6375733"><ele>216.0</ele><time>2026-04-26T07:04:25.069Z</time></trkpt><trkpt lat="45.8612017" lon="8.6375917"><ele>216.0</ele><time>2026-04-26T07:04:26.07Z</time></trkpt><trkpt lat="45.8611283" lon="8.6376183"><ele>216.0</ele><time>2026-04-26T07:04:27.069Z</time></trkpt><trkpt lat="45.861065" lon="8.637665"><ele>216.0</ele><time>2026-04-26T07:04:28.069Z</time></trkpt><trkpt lat="45.8610133" lon="8.637725"><ele>216.0</ele><time>2026-04-26T07:04:29.069Z</time></trkpt><trkpt lat="45.8609617" lon="8.6377933"><ele>216.0</ele><time>2026-04-26T07:04:30.069Z</time></trkpt><trkpt lat="45.860915" lon="8.6378683"><ele>216.0</ele><time>2026-04-26T07:04:31.069Z</time></trkpt><trkpt lat="45.860865" lon="8.637935"><ele>216.0</ele><time>2026-04-26T07:04:32.069Z</time></trkpt><trkpt lat="45.8608083" lon="8.6379933"><ele>216.5</ele><time>2026-04-26T07:04:33.069Z</time></trkpt><trkpt lat="45.8607567" lon="8.6380633"><ele>217.0</ele><time>2026-04-26T07:04:34.069Z</time></trkpt><trkpt lat="45.8607083" lon="8.6381433"><ele>217.5</ele><time>2026-04-26T07:04:35.069Z</time></trkpt><trkpt lat="45.8606533" lon="8.6382267"><ele>218.0</ele><time>2026-04-26T07:04:36.069Z</time></trkpt><trkpt lat="45.8606" lon="8.638305"><ele>218.5</ele><time>2026-04-26T07:04:37.069Z</time></trkpt><trkpt lat="45.8605333" lon="8.638375"><ele>219.0</ele><time>2026-04-26T07:04:38.069Z</time></trkpt><trkpt lat="45.8604567" lon="8.6384433"><ele>219.0</ele><time>2026-04-26T07:04:39.069Z</time></trkpt><trkpt lat="45.8603683" lon="8.63851"><ele>219.0</ele><time>2026-04-26T07:04:40.069Z</time></trkpt><trkpt lat="45.8602567" lon="8.6385783"><ele>219.0</ele><time>2026-04-26T07:04:41.07Z</time></trkpt><trkpt lat="45.8601433" lon="8.638665"><ele>219.0</ele><time>2026-04-26T07:04:42.069Z</time></trkpt><trkpt lat="45.860035" lon="8.6387617"><ele>219.0</ele><time>2026-04-26T07:04:43.069Z</time></trkpt><trkpt lat="45.8599483" lon="8.6388517"><ele>218.99999999999997</ele><time>2026-04-26T07:04:44.069Z</time></trkpt><trkpt lat="45.8598633" lon="8.6389517"><ele>218.99999999999997</ele><time>2026-04-26T07:04:45.069Z</time></trkpt><trkpt lat="45.8597833" lon="8.6390617"><ele>219.0</ele><time>2026-04-26T07:04:46.069Z</time></trkpt><trkpt lat="45.8596883" lon="8.6391617"><ele>219.0</ele><time>2026-04-26T07:04:47.069Z</time></trkpt><trkpt lat="45.8595783" lon="8.6392783"><ele>219.0</ele><time>2026-04-26T07:04:48.07Z</time></trkpt><trkpt lat="45.8594733" lon="8.6393767"><ele>218.99999999999997</ele><time>2026-04-26T07:04:49.069Z</time></trkpt><trkpt lat="45.8593867" lon="8.6394783"><ele>218.99999999999997</ele><time>2026-04-26T07:04:50.069Z</time></trkpt><trkpt lat="45.85931" lon="8.6395767"><ele>219.0</ele><time>2026-04-26T07:04:51.069Z</time></trkpt><trkpt lat="45.85924" lon="8.6396767"><ele>219.0</ele><time>2026-04-26T07:04:52.069Z</time></trkpt><trkpt lat="45.8591717" lon="8.63977"><ele>218.6</ele><time>2026-04-26T07:04:53.069Z</time></trkpt><trkpt lat="45.8591017" lon="8.6398283"><ele>218.2</ele><time>2026-04-26T07:04:54.069Z</time></trkpt><trkpt lat="45.8590417" lon="8.6398717"><ele>217.79999999999998</ele><time>2026-04-26T07:04:55.069Z</time></trkpt><trkpt lat="45.8589833" lon="8.6399183"><ele>217.39999999999998</ele><time>2026-04-26T07:04:56.069Z</time></trkpt><trkpt lat="45.8588967" lon="8.6400017"><ele>217.0</ele><time>2026-04-26T07:04:58.069Z</time></trkpt><trkpt lat="45.8588067" lon="8.6401433"><ele>216.99999999999997</ele><time>2026-04-26T07:05:00.069Z</time></trkpt><trkpt lat="45.85876" lon="8.6402367"><ele>217.0</ele><time>2026-04-26T07:05:01.069Z</time></trkpt><trkpt lat="45.8587133" lon="8.64034"><ele>217.0</ele><time>2026-04-26T07:05:02.069Z</time></trkpt><trkpt lat="45.85868" lon="8.640435"><ele>217.0</ele><time>2026-04-26T07:05:03.069Z</time></trkpt><trkpt lat="45.8586583" lon="8.6405433"><ele>216.99999999999997</ele><time>2026-04-26T07:05:04.069Z</time></trkpt><trkpt lat="45.8586367" lon="8.6406667"><ele>217.0</ele><time>2026-04-26T07:05:05.069Z</time></trkpt><trkpt lat="45.8586217" lon="8.6407967"><ele>217.16666666666666</ele><time>2026-04-26T07:05:06.069Z</time></trkpt><trkpt lat="45.8586183" lon="8.6409183"><ele>217.33333333333331</ele><time>2026-04-26T07:05:07.069Z</time></trkpt><trkpt lat="45.8586167" lon="8.64102"><ele>217.5</ele><time>2026-04-26T07:05:08.069Z</time></trkpt><trkpt lat="45.85863" lon="8.6411333"><ele>217.66666666666669</ele><time>2026-04-26T07:05:09.069Z</time></trkpt><trkpt lat="45.8586383" lon="8.6412267"><ele>217.83333333333334</ele><time>2026-04-26T07:05:10.069Z</time></trkpt><trkpt lat="45.8586617" lon="8.6413717"><ele>218.0</ele><time>2026-04-26T07:05:12.069Z</time></trkpt><trkpt lat="45.8587133" lon="8.6415467"><ele>218.57142857142858</ele><time>2026-04-26T07:05:14.069Z</time></trkpt><trkpt lat="45.8587367" lon="8.641655"><ele>219.14285714285717</ele><time>2026-04-26T07:05:15.069Z</time></trkpt><trkpt lat="45.858765" lon="8.6417633"><ele>219.71428571428572</ele><time>2026-04-26T07:05:16.069Z</time></trkpt><trkpt lat="45.85879" lon="8.641865"><ele>220.28571428571428</ele><time>2026-04-26T07:05:17.069Z</time></trkpt><trkpt lat="45.8587967" lon="8.64196"><ele>220.85714285714286</ele><time>2026-04-26T07:05:18.069Z</time></trkpt><trkpt lat="45.8587817" lon="8.6420517"><ele>221.42857142857142</ele><time>2026-04-26T07:05:19.069Z</time></trkpt><trkpt lat="45.8587683" lon="8.6421483"><ele>222.0</ele><time>2026-04-26T07:05:20.069Z</time></trkpt><trkpt lat="45.8587517" lon="8.642245"><ele>222.42857142857142</ele><time>2026-04-26T07:05:21.069Z</time></trkpt><trkpt lat="45.8587333" lon="8.6423333"><ele>222.8571428571429</ele><time>2026-04-26T07:05:22.069Z</time></trkpt><trkpt lat="45.8587133" lon="8.6424283"><ele>223.2857142857143</ele><time>2026-04-26T07:05:23.069Z</time></trkpt><trkpt lat="45.8587017" lon="8.6425233"><ele>223.71428571428572</ele><time>2026-04-26T07:05:24.069Z</time></trkpt><trkpt lat="45.85868" lon="8.6426117"><ele>224.14285714285717</ele><time>2026-04-26T07:05:25.069Z</time></trkpt><trkpt lat="45.85864" lon="8.642705"><ele>224.5714285714286</ele><time>2026-04-26T07:05:26.07Z</time></trkpt><trkpt lat="45.858595" lon="8.6428"><ele>225.00000000000003</ele><time>2026-04-26T07:05:27.069Z</time></trkpt><trkpt lat="45.8585467" lon="8.6428817"><ele>224.0</ele><time>2026-04-26T07:05:28.069Z</time></trkpt><trkpt lat="45.858495" lon="8.6429567"><ele>223.0</ele><time>2026-04-26T07:05:29.069Z</time></trkpt><trkpt lat="45.858445" lon="8.64302"><ele>222.0</ele><time>2026-04-26T07:05:30.069Z</time></trkpt><trkpt lat="45.8583633" lon="8.643095"><ele>221.0</ele><time>2026-04-26T07:05:32.069Z</time></trkpt><trkpt lat="45.858255" lon="8.6429867"><ele>220.0</ele><time>2026-04-26T07:05:35.069Z</time></trkpt><trkpt lat="45.8581983" lon="8.6428883"><ele>220.0</ele><time>2026-04-26T07:05:36.069Z</time></trkpt><trkpt lat="45.8581333" lon="8.642805"><ele>220.0</ele><time>2026-04-26T07:05:37.069Z</time></trkpt><trkpt lat="45.8580533" lon="8.642725"><ele>220.0</ele><time>2026-04-26T07:05:38.069Z</time></trkpt><trkpt lat="45.8579683" lon="8.6426583"><ele>220.0</ele><time>2026-04-26T07:05:39.069Z</time></trkpt><trkpt lat="45.8578717" lon="8.64259"><ele>220.0</ele><time>2026-04-26T07:05:40.069Z</time></trkpt><trkpt lat="45.8577883" lon="8.64253"><ele>218.8</ele><time>2026-04-26T07:05:41.069Z</time></trkpt><trkpt lat="45.8577" lon="8.64249"><ele>217.6</ele><time>2026-04-26T07:05:42.069Z</time></trkpt><trkpt lat="45.8576017" lon="8.6424883"><ele>216.39999999999998</ele><time>2026-04-26T07:05:43.069Z</time></trkpt><trkpt lat="45.8574817" lon="8.6425033"><ele>215.2</ele><time>2026-04-26T07:05:44.069Z</time></trkpt><trkpt lat="45.85736" lon="8.6425283"><ele>214.0</ele><time>2026-04-26T07:05:45.069Z</time></trkpt><trkpt lat="45.8572533" lon="8.642545"><ele>213.0</ele><time>2026-04-26T07:05:46.069Z</time></trkpt><trkpt lat="45.8571617" lon="8.6425633"><ele>211.99999999999997</ele><time>2026-04-26T07:05:47.069Z</time></trkpt><trkpt lat="45.85709" lon="8.6425717"><ele>211.0</ele><time>2026-04-26T07:05:48.069Z</time></trkpt><trkpt lat="45.8570067" lon="8.6425517"><ele>210.0</ele><time>2026-04-26T07:05:50.069Z</time></trkpt><trkpt lat="45.8569533" lon="8.642375"><ele>209.0</ele><time>2026-04-26T07:05:52.069Z</time></trkpt><trkpt lat="45.8569333" lon="8.6422333"><ele>209.0</ele><time>2026-04-26T07:05:53.069Z</time></trkpt><trkpt lat="45.85691" lon="8.64209"><ele>209.0</ele><time>2026-04-26T07:05:54.069Z</time></trkpt><trkpt lat="45.8568733" lon="8.6419467"><ele>209.0</ele><time>2026-04-26T07:05:55.069Z</time></trkpt><trkpt lat="45.8568283" lon="8.641805"><ele>209.0</ele><time>2026-04-26T07:05:56.069Z</time></trkpt><trkpt lat="45.8567867" lon="8.641665"><ele>209.0</ele><time>2026-04-26T07:05:57.07Z</time></trkpt><trkpt lat="45.8567467" lon="8.641535"><ele>210.50000000000003</ele><time>2026-04-26T07:05:58.069Z</time></trkpt><trkpt lat="45.8567083" lon="8.641415"><ele>212.0</ele><time>2026-04-26T07:05:59.069Z</time></trkpt><trkpt lat="45.856665" lon="8.6413067"><ele>213.5</ele><time>2026-04-26T07:06:00.069Z</time></trkpt><trkpt lat="45.856625" lon="8.6412083"><ele>215.0</ele><time>2026-04-26T07:06:01.069Z</time></trkpt><trkpt lat="45.85659" lon="8.6411217"><ele>216.50000000000003</ele><time>2026-04-26T07:06:02.069Z</time></trkpt><trkpt lat="45.8565417" lon="8.6410333"><ele>218.0</ele><time>2026-04-26T07:06:04.069Z</time></trkpt><trkpt lat="45.856425" lon="8.6411183"><ele>218.0</ele><time>2026-04-26T07:06:07.069Z</time></trkpt><trkpt lat="45.8563667" lon="8.6411767"><ele>218.0</ele><time>2026-04-26T07:06:08.069Z</time></trkpt><trkpt lat="45.8562933" lon="8.6412333"><ele>218.0</ele><time>2026-04-26T07:06:09.069Z</time></trkpt><trkpt lat="45.856215" lon="8.6412817"><ele>218.0</ele><time>2026-04-26T07:06:10.069Z</time></trkpt><trkpt lat="45.8561233" lon="8.6413367"><ele>218.0</ele><time>2026-04-26T07:06:11.069Z</time></trkpt><trkpt lat="45.8560217" lon="8.6414083"><ele>219.60000000000002</ele><time>2026-04-26T07:06:12.069Z</time></trkpt><trkpt lat="45.8559267" lon="8.6414833"><ele>221.20000000000002</ele><time>2026-04-26T07:06:13.069Z</time></trkpt><trkpt lat="45.8558283" lon="8.641535"><ele>222.8</ele><time>2026-04-26T07:06:14.069Z</time></trkpt><trkpt lat="45.85574" lon="8.64158"><ele>224.4</ele><time>2026-04-26T07:06:15.069Z</time></trkpt><trkpt lat="45.85567" lon="8.6416317"><ele>226.0</ele><time>2026-04-26T07:06:16.069Z</time></trkpt><trkpt lat="45.8555967" lon="8.6416933"><ele>226.0</ele><time>2026-04-26T07:06:17.069Z</time></trkpt><trkpt lat="45.85553" lon="8.6417733"><ele>226.00000000000003</ele><time>2026-04-26T07:06:18.069Z</time></trkpt><trkpt lat="45.8554683" lon="8.64187"><ele>226.00000000000003</ele><time>2026-04-26T07:06:19.069Z</time></trkpt><trkpt lat="45.8554167" lon="8.6419683"><ele>226.0</ele><time>2026-04-26T07:06:20.069Z</time></trkpt><trkpt lat="45.8553917" lon="8.6420733"><ele>226.0</ele><time>2026-04-26T07:06:21.069Z</time></trkpt><trkpt lat="45.8553267" lon="8.6422183"><ele>225.33333333333331</ele><time>2026-04-26T07:06:23.069Z</time></trkpt><trkpt lat="45.855275" lon="8.6422933"><ele>224.66666666666666</ele><time>2026-04-26T07:06:24.069Z</time></trkpt><trkpt lat="45.8552067" lon="8.6423633"><ele>224.0</ele><time>2026-04-26T07:06:25.069Z</time></trkpt><trkpt lat="45.8551383" lon="8.6424133"><ele>223.33333333333331</ele><time>2026-04-26T07:06:26.069Z</time></trkpt><trkpt lat="45.8550683" lon="8.6424267"><ele>222.66666666666666</ele><time>2026-04-26T07:06:27.069Z</time></trkpt><trkpt lat="45.8549917" lon="8.642435"><ele>222.0</ele><time>2026-04-26T07:06:28.07Z</time></trkpt><trkpt lat="45.854895" lon="8.6424183"><ele>222.0</ele><time>2026-04-26T07:06:29.069Z</time></trkpt><trkpt lat="45.8547967" lon="8.6423967"><ele>222.0</ele><time>2026-04-26T07:06:30.07Z</time></trkpt><trkpt lat="45.854705" lon="8.642355"><ele>222.0</ele><time>2026-04-26T07:06:31.069Z</time></trkpt><trkpt lat="45.8546083" lon="8.6422917"><ele>222.0</ele><time>2026-04-26T07:06:32.069Z</time></trkpt><trkpt lat="45.8545317" lon="8.64221"><ele>222.0</ele><time>2026-04-26T07:06:33.069Z</time></trkpt><trkpt lat="45.854435" lon="8.6421383"><ele>222.0</ele><time>2026-04-26T07:06:34.069Z</time></trkpt><trkpt lat="45.8543217" lon="8.64208"><ele>222.0</ele><time>2026-04-26T07:06:35.069Z</time></trkpt><trkpt lat="45.8542317" lon="8.6420183"><ele>222.0</ele><time>2026-04-26T07:06:36.069Z</time></trkpt><trkpt lat="45.85415" lon="8.6419733"><ele>222.0</ele><time>2026-04-26T07:06:37.069Z</time></trkpt><trkpt lat="45.8540817" lon="8.64193"><ele>222.0</ele><time>2026-04-26T07:06:38.069Z</time></trkpt><trkpt lat="45.85402" lon="8.6419017"><ele>222.0</ele><time>2026-04-26T07:06:39.069Z</time></trkpt><trkpt lat="45.85391" lon="8.6418717"><ele>222.6</ele><time>2026-04-26T07:06:41.07Z</time></trkpt><trkpt lat="45.8537867" lon="8.6418383"><ele>223.2</ele><time>2026-04-26T07:06:43.069Z</time></trkpt><trkpt lat="45.8536683" lon="8.6417633"><ele>223.8</ele><time>2026-04-26T07:06:45.069Z</time></trkpt><trkpt lat="45.8536183" lon="8.6416417"><ele>224.4</ele><time>2026-04-26T07:06:46.069Z</time></trkpt><trkpt lat="45.8535633" lon="8.6415433"><ele>225.0</ele><time>2026-04-26T07:06:47.069Z</time></trkpt><trkpt lat="45.8535083" lon="8.6414583"><ele>224.16666666666666</ele><time>2026-04-26T07:06:48.069Z</time></trkpt><trkpt lat="45.8534517" lon="8.64136"><ele>223.33333333333331</ele><time>2026-04-26T07:06:49.069Z</time></trkpt><trkpt lat="45.8534083" lon="8.6412733"><ele>222.5</ele><time>2026-04-26T07:06:50.069Z</time></trkpt><trkpt lat="45.8533583" lon="8.6412067"><ele>221.66666666666666</ele><time>2026-04-26T07:06:51.069Z</time></trkpt><trkpt lat="45.8533183" lon="8.6411367"><ele>220.83333333333331</ele><time>2026-04-26T07:06:52.069Z</time></trkpt><trkpt lat="45.8532467" lon="8.6410283"><ele>220.0</ele><time>2026-04-26T07:06:54.069Z</time></trkpt><trkpt lat="45.8531833" lon="8.6410217"><ele>219.8</ele><time>2026-04-26T07:06:56.069Z</time></trkpt><trkpt lat="45.8531083" lon="8.6410683"><ele>219.6</ele><time>2026-04-26T07:06:58.069Z</time></trkpt><trkpt lat="45.8530383" lon="8.6411"><ele>219.39999999999998</ele><time>2026-04-26T07:07:00.069Z</time></trkpt><trkpt lat="45.8529383" lon="8.6410533"><ele>219.2</ele><time>2026-04-26T07:07:03.069Z</time></trkpt><trkpt lat="45.8528183" lon="8.64098"><ele>219.0</ele><time>2026-04-26T07:07:05.07Z</time></trkpt><trkpt lat="45.85274" lon="8.6409083"><ele>219.0</ele><time>2026-04-26T07:07:06.069Z</time></trkpt><trkpt lat="45.85267" lon="8.6408483"><ele>219.0</ele><time>2026-04-26T07:07:07.069Z</time></trkpt><trkpt lat="45.8526083" lon="8.6407767"><ele>219.0</ele><time>2026-04-26T07:07:08.069Z</time></trkpt><trkpt lat="45.852555" lon="8.6407017"><ele>219.0</ele><time>2026-04-26T07:07:09.069Z</time></trkpt><trkpt lat="45.85251" lon="8.6406017"><ele>219.0</ele><time>2026-04-26T07:07:10.069Z</time></trkpt><trkpt lat="45.8524567" lon="8.64047"><ele>219.0</ele><time>2026-04-26T07:07:11.069Z</time></trkpt><trkpt lat="45.852405" lon="8.6403467"><ele>217.79999999999998</ele><time>2026-04-26T07:07:12.069Z</time></trkpt><trkpt lat="45.8523617" lon="8.6402067"><ele>216.59999999999997</ele><time>2026-04-26T07:07:13.069Z</time></trkpt><trkpt lat="45.8523317" lon="8.6400933"><ele>215.4</ele><time>2026-04-26T07:07:14.069Z</time></trkpt><trkpt lat="45.8522917" lon="8.63997"><ele>214.2</ele><time>2026-04-26T07:07:15.069Z</time></trkpt><trkpt lat="45.8522633" lon="8.6398333"><ele>213.0</ele><time>2026-04-26T07:07:16.07Z</time></trkpt><trkpt lat="45.8522483" lon="8.6397"><ele>213.0</ele><time>2026-04-26T07:07:17.07Z</time></trkpt><trkpt lat="45.852245" lon="8.6395733"><ele>213.0</ele><time>2026-04-26T07:07:18.069Z</time></trkpt><trkpt lat="45.8522633" lon="8.6394117"><ele>213.0</ele><time>2026-04-26T07:07:19.069Z</time></trkpt><trkpt lat="45.8523033" lon="8.6392333"><ele>213.0</ele><time>2026-04-26T07:07:20.07Z</time></trkpt><trkpt lat="45.8523533" lon="8.6390433"><ele>213.25</ele><time>2026-04-26T07:07:21.069Z</time></trkpt><trkpt lat="45.852395" lon="8.6388567"><ele>213.5</ele><time>2026-04-26T07:07:22.069Z</time></trkpt><trkpt lat="45.8524283" lon="8.6386883"><ele>213.75</ele><time>2026-04-26T07:07:23.069Z</time></trkpt><trkpt lat="45.85245" lon="8.6385383"><ele>214.0</ele><time>2026-04-26T07:07:24.069Z</time></trkpt><trkpt lat="45.852465" lon="8.6384033"><ele>214.33333333333331</ele><time>2026-04-26T07:07:25.069Z</time></trkpt><trkpt lat="45.852475" lon="8.6382867"><ele>214.66666666666666</ele><time>2026-04-26T07:07:26.069Z</time></trkpt><trkpt lat="45.8524683" lon="8.6381783"><ele>215.0</ele><time>2026-04-26T07:07:27.069Z</time></trkpt><trkpt lat="45.8524467" lon="8.6380633"><ele>215.33333333333331</ele><time>2026-04-26T07:07:28.069Z</time></trkpt><trkpt lat="45.8524083" lon="8.6379483"><ele>215.66666666666666</ele><time>2026-04-26T07:07:29.069Z</time></trkpt><trkpt lat="45.8523833" lon="8.6378383"><ele>216.0</ele><time>2026-04-26T07:07:30.069Z</time></trkpt><trkpt lat="45.8523767" lon="8.6377383"><ele>216.4</ele><time>2026-04-26T07:07:31.069Z</time></trkpt><trkpt lat="45.8523883" lon="8.6376417"><ele>216.8</ele><time>2026-04-26T07:07:32.069Z</time></trkpt><trkpt lat="45.852445" lon="8.6374717"><ele>217.20000000000002</ele><time>2026-04-26T07:07:34.069Z</time></trkpt><trkpt lat="45.8524833" lon="8.6373867"><ele>217.60000000000002</ele><time>2026-04-26T07:07:35.069Z</time></trkpt><trkpt lat="45.852515" lon="8.6372417"><ele>218.0</ele><time>2026-04-26T07:07:37.069Z</time></trkpt><trkpt lat="45.85244" lon="8.637125"><ele>218.0</ele><time>2026-04-26T07:07:39.069Z</time></trkpt><trkpt lat="45.85236" lon="8.63706"><ele>218.0</ele><time>2026-04-26T07:07:40.069Z</time></trkpt><trkpt lat="45.8522783" lon="8.636985"><ele>218.0</ele><time>2026-04-26T07:07:41.069Z</time></trkpt><trkpt lat="45.8521983" lon="8.636895"><ele>218.0</ele><time>2026-04-26T07:07:42.069Z</time></trkpt><trkpt lat="45.8521467" lon="8.6367967"><ele>218.0</ele><time>2026-04-26T07:07:43.069Z</time></trkpt><trkpt lat="45.852165" lon="8.6365817"><ele>217.0</ele><time>2026-04-26T07:07:45.069Z</time></trkpt><trkpt lat="45.8522183" lon="8.63645"><ele>216.0</ele><time>2026-04-26T07:07:46.069Z</time></trkpt><trkpt lat="45.852285" lon="8.6363333"><ele>215.0</ele><time>2026-04-26T07:07:47.069Z</time></trkpt><trkpt lat="45.8523483" lon="8.6362367"><ele>214.0</ele><time>2026-04-26T07:07:48.069Z</time></trkpt><trkpt lat="45.8524033" lon="8.6361533"><ele>213.0</ele><time>2026-04-26T07:07:49.069Z</time></trkpt><trkpt lat="45.85247" lon="8.6360283"><ele>212.4</ele><time>2026-04-26T07:07:51.07Z</time></trkpt><trkpt lat="45.8525017" lon="8.6359317"><ele>211.8</ele><time>2026-04-26T07:07:54.069Z</time></trkpt><trkpt lat="45.8524633" lon="8.6358317"><ele>211.2</ele><time>2026-04-26T07:11:05.069Z</time></trkpt><trkpt lat="45.85234" lon="8.6358"><ele>210.6</ele><time>2026-04-26T07:11:07.069Z</time></trkpt><trkpt lat="45.8522017" lon="8.6358167"><ele>210.0</ele><time>2026-04-26T07:11:08.069Z</time></trkpt><trkpt lat="45.8520633" lon="8.6358317"><ele>210.0</ele><time>2026-04-26T07:11:09.069Z</time></trkpt><trkpt lat="45.85193" lon="8.6358583"><ele>210.0</ele><time>2026-04-26T07:11:10.069Z</time></trkpt><trkpt lat="45.851795" lon="8.6358833"><ele>210.0</ele><time>2026-04-26T07:11:11.069Z</time></trkpt><trkpt lat="45.85167" lon="8.6359017"><ele>210.0</ele><time>2026-04-26T07:11:12.069Z</time></trkpt><trkpt lat="45.8515583" lon="8.6359233"><ele>209.16666666666666</ele><time>2026-04-26T07:11:13.07Z</time></trkpt><trkpt lat="45.851455" lon="8.63594"><ele>208.33333333333331</ele><time>2026-04-26T07:11:14.069Z</time></trkpt><trkpt lat="45.8513633" lon="8.6359617"><ele>207.5</ele><time>2026-04-26T07:11:15.069Z</time></trkpt><trkpt lat="45.85128" lon="8.6359867"><ele>206.66666666666666</ele><time>2026-04-26T07:11:16.069Z</time></trkpt><trkpt lat="45.8512033" lon="8.6360067"><ele>205.83333333333331</ele><time>2026-04-26T07:11:17.069Z</time></trkpt><trkpt lat="45.85114" lon="8.636015"><ele>205.0</ele><time>2026-04-26T07:11:18.069Z</time></trkpt><trkpt lat="45.8510717" lon="8.636005"><ele>204.99999999999997</ele><time>2026-04-26T07:11:20.069Z</time></trkpt><trkpt lat="45.8510483" lon="8.6358933"><ele>205.0</ele><time>2026-04-26T07:11:22.069Z</time></trkpt><trkpt lat="45.8510517" lon="8.63579"><ele>205.0</ele><time>2026-04-26T07:11:23.07Z</time></trkpt><trkpt lat="45.8510567" lon="8.6356617"><ele>205.0</ele><time>2026-04-26T07:11:24.069Z</time></trkpt><trkpt lat="45.851055" lon="8.635525"><ele>204.99999999999997</ele><time>2026-04-26T07:11:25.07Z</time></trkpt><trkpt lat="45.851055" lon="8.6353817"><ele>205.0</ele><time>2026-04-26T07:11:26.07Z</time></trkpt><trkpt lat="45.85106" lon="8.6352283"><ele>205.2</ele><time>2026-04-26T07:11:27.069Z</time></trkpt><trkpt lat="45.851065" lon="8.635085"><ele>205.4</ele><time>2026-04-26T07:11:28.069Z</time></trkpt><trkpt lat="45.85107" lon="8.6349383"><ele>205.60000000000002</ele><time>2026-04-26T07:11:29.069Z</time></trkpt><trkpt lat="45.851075" lon="8.634805"><ele>205.8</ele><time>2026-04-26T07:11:30.069Z</time></trkpt><trkpt lat="45.851085" lon="8.6346783"><ele>206.0</ele><time>2026-04-26T07:11:31.069Z</time></trkpt><trkpt lat="45.8510917" lon="8.6345617"><ele>206.33333333333334</ele><time>2026-04-26T07:11:32.069Z</time></trkpt><trkpt lat="45.8511183" lon="8.63445"><ele>206.66666666666669</ele><time>2026-04-26T07:11:33.069Z</time></trkpt><trkpt lat="45.8511633" lon="8.6343433"><ele>207.0</ele><time>2026-04-26T07:11:34.069Z</time></trkpt><trkpt lat="45.8512217" lon="8.6342433"><ele>207.33333333333331</ele><time>2026-04-26T07:11:35.069Z</time></trkpt><trkpt lat="45.8512933" lon="8.6341517"><ele>207.66666666666666</ele><time>2026-04-26T07:11:36.07Z</time></trkpt><trkpt lat="45.8513667" lon="8.63407"><ele>208.0</ele><time>2026-04-26T07:11:37.069Z</time></trkpt><trkpt lat="45.8514383" lon="8.633985"><ele>207.99999999999997</ele><time>2026-04-26T07:11:38.069Z</time></trkpt><trkpt lat="45.8515033" lon="8.633905"><ele>208.0</ele><time>2026-04-26T07:11:39.069Z</time></trkpt><trkpt lat="45.851555" lon="8.6338167"><ele>208.0</ele><time>2026-04-26T07:11:40.069Z</time></trkpt><trkpt lat="45.8515917" lon="8.6337417"><ele>208.0</ele><time>2026-04-26T07:11:41.069Z</time></trkpt><trkpt lat="45.851605" lon="8.6336483"><ele>207.99999999999997</ele><time>2026-04-26T07:11:42.069Z</time></trkpt><trkpt lat="45.8516167" lon="8.6335367"><ele>208.0</ele><time>2026-04-26T07:11:43.069Z</time></trkpt><trkpt lat="45.8516217" lon="8.6334033"><ele>208.33333333333331</ele><time>2026-04-26T07:11:44.069Z</time></trkpt><trkpt lat="45.851625" lon="8.633265"><ele>208.66666666666666</ele><time>2026-04-26T07:11:45.069Z</time></trkpt><trkpt lat="45.851635" lon="8.6331367"><ele>209.0</ele><time>2026-04-26T07:11:46.069Z</time></trkpt><trkpt lat="45.8516567" lon="8.6330183"><ele>209.33333333333331</ele><time>2026-04-26T07:11:47.069Z</time></trkpt><trkpt lat="45.851685" lon="8.6328967"><ele>209.66666666666666</ele><time>2026-04-26T07:11:48.069Z</time></trkpt><trkpt lat="45.8517" lon="8.632775"><ele>210.0</ele><time>2026-04-26T07:11:49.069Z</time></trkpt><trkpt lat="45.8516933" lon="8.6326733"><ele>210.33333333333334</ele><time>2026-04-26T07:11:50.069Z</time></trkpt><trkpt lat="45.8516667" lon="8.63259"><ele>210.66666666666669</ele><time>2026-04-26T07:11:51.07Z</time></trkpt><trkpt lat="45.8516167" lon="8.632505"><ele>211.0</ele><time>2026-04-26T07:11:52.07Z</time></trkpt><trkpt lat="45.85156" lon="8.632425"><ele>211.33333333333334</ele><time>2026-04-26T07:11:53.069Z</time></trkpt><trkpt lat="45.8515117" lon="8.6323417"><ele>211.66666666666669</ele><time>2026-04-26T07:11:54.069Z</time></trkpt><trkpt lat="45.8514683" lon="8.63223"><ele>212.0</ele><time>2026-04-26T07:11:55.069Z</time></trkpt><trkpt lat="45.8514333" lon="8.6321133"><ele>212.00000000000003</ele><time>2026-04-26T07:11:56.069Z</time></trkpt><trkpt lat="45.8513983" lon="8.632"><ele>212.0</ele><time>2026-04-26T07:11:57.069Z</time></trkpt><trkpt lat="45.8513617" lon="8.6318933"><ele>212.0</ele><time>2026-04-26T07:11:58.069Z</time></trkpt><trkpt lat="45.8513133" lon="8.63182"><ele>212.0</ele><time>2026-04-26T07:11:59.07Z</time></trkpt><trkpt lat="45.8512533" lon="8.6317533"><ele>212.00000000000003</ele><time>2026-04-26T07:12:00.069Z</time></trkpt><trkpt lat="45.851175" lon="8.63169"><ele>212.0</ele><time>2026-04-26T07:12:01.069Z</time></trkpt><trkpt lat="45.851085" lon="8.63163"><ele>212.0</ele><time>2026-04-26T07:12:02.07Z</time></trkpt><trkpt lat="45.8509867" lon="8.6315767"><ele>212.0</ele><time>2026-04-26T07:12:03.069Z</time></trkpt><trkpt lat="45.8508783" lon="8.63153"><ele>212.0</ele><time>2026-04-26T07:12:04.069Z</time></trkpt><trkpt lat="45.850755" lon="8.6315"><ele>212.0</ele><time>2026-04-26T07:12:05.069Z</time></trkpt><trkpt lat="45.8506317" lon="8.6314783"><ele>210.8</ele><time>2026-04-26T07:12:06.069Z</time></trkpt><trkpt lat="45.85051" lon="8.6314633"><ele>209.6</ele><time>2026-04-26T07:12:07.069Z</time></trkpt><trkpt lat="45.8504033" lon="8.63147"><ele>208.4</ele><time>2026-04-26T07:12:08.069Z</time></trkpt><trkpt lat="45.8503067" lon="8.63146"><ele>207.20000000000002</ele><time>2026-04-26T07:12:09.069Z</time></trkpt><trkpt lat="45.8502317" lon="8.6314333"><ele>206.0</ele><time>2026-04-26T07:12:10.069Z</time></trkpt><trkpt lat="45.8501633" lon="8.6313867"><ele>206.16666666666669</ele><time>2026-04-26T07:12:11.069Z</time></trkpt><trkpt lat="45.85011" lon="8.6312933"><ele>206.33333333333334</ele><time>2026-04-26T07:12:12.069Z</time></trkpt><trkpt lat="45.85006" lon="8.6312017"><ele>206.5</ele><time>2026-04-26T07:12:13.07Z</time></trkpt><trkpt lat="45.850015" lon="8.6311067"><ele>206.66666666666669</ele><time>2026-04-26T07:12:14.07Z</time></trkpt><trkpt lat="45.8499517" lon="8.6310083"><ele>206.83333333333334</ele><time>2026-04-26T07:12:15.069Z</time></trkpt><trkpt lat="45.8498717" lon="8.63091"><ele>207.0</ele><time>2026-04-26T07:12:16.069Z</time></trkpt><trkpt lat="45.8497967" lon="8.6308117"><ele>207.0</ele><time>2026-04-26T07:12:17.069Z</time></trkpt><trkpt lat="45.8497283" lon="8.630735"><ele>207.0</ele><time>2026-04-26T07:12:18.069Z</time></trkpt><trkpt lat="45.8496617" lon="8.630655"><ele>207.0</ele><time>2026-04-26T07:12:19.069Z</time></trkpt><trkpt lat="45.8496017" lon="8.630595"><ele>207.0</ele><time>2026-04-26T07:12:20.069Z</time></trkpt><trkpt lat="45.8495483" lon="8.63054"><ele>207.0</ele><time>2026-04-26T07:12:21.069Z</time></trkpt><trkpt lat="45.8494817" lon="8.6304333"><ele>207.0</ele><time>2026-04-26T07:12:23.069Z</time></trkpt><trkpt lat="45.84946" lon="8.63034"><ele>207.8</ele><time>2026-04-26T07:12:26.069Z</time></trkpt><trkpt lat="45.8494567" lon="8.6302367"><ele>208.6</ele><time>2026-04-26T07:12:29.069Z</time></trkpt><trkpt lat="45.8494267" lon="8.630105"><ele>209.4</ele><time>2026-04-26T07:12:31.069Z</time></trkpt><trkpt lat="45.8494867" lon="8.6299917"><ele>210.20000000000002</ele><time>2026-04-26T07:12:33.069Z</time></trkpt><trkpt lat="45.8496083" lon="8.62994"><ele>211.0</ele><time>2026-04-26T07:12:35.07Z</time></trkpt><trkpt lat="45.8496817" lon="8.629935"><ele>211.0</ele><time>2026-04-26T07:12:36.069Z</time></trkpt><trkpt lat="45.8497767" lon="8.6299367"><ele>211.0</ele><time>2026-04-26T07:12:37.069Z</time></trkpt><trkpt lat="45.8498617" lon="8.6299383"><ele>211.0</ele><time>2026-04-26T07:12:38.069Z</time></trkpt><trkpt lat="45.8499733" lon="8.6298833"><ele>211.0</ele><time>2026-04-26T07:12:40.069Z</time></trkpt><trkpt lat="45.8500083" lon="8.6297033"><ele>211.0</ele><time>2026-04-26T07:12:42.069Z</time></trkpt><trkpt lat="45.85001" lon="8.6295583"><ele>211.33333333333331</ele><time>2026-04-26T07:12:44.069Z</time></trkpt><trkpt lat="45.849965" lon="8.6294283"><ele>211.66666666666666</ele><time>2026-04-26T07:12:46.069Z</time></trkpt><trkpt lat="45.8499383" lon="8.629345"><ele>212.0</ele><time>2026-04-26T07:12:47.069Z</time></trkpt><trkpt lat="45.849905" lon="8.62925"><ele>212.33333333333331</ele><time>2026-04-26T07:12:48.069Z</time></trkpt><trkpt lat="45.849885" lon="8.6291267"><ele>212.66666666666666</ele><time>2026-04-26T07:12:49.07Z</time></trkpt><trkpt lat="45.8498517" lon="8.6290233"><ele>213.0</ele><time>2026-04-26T07:12:50.069Z</time></trkpt><trkpt lat="45.8498117" lon="8.62893"><ele>213.0</ele><time>2026-04-26T07:12:51.07Z</time></trkpt><trkpt lat="45.8497617" lon="8.6288383"><ele>213.0</ele><time>2026-04-26T07:12:52.069Z</time></trkpt><trkpt lat="45.8496933" lon="8.6287383"><ele>213.0</ele><time>2026-04-26T07:12:53.069Z</time></trkpt><trkpt lat="45.8496283" lon="8.628655"><ele>213.0</ele><time>2026-04-26T07:12:54.069Z</time></trkpt><trkpt lat="45.8495633" lon="8.6285917"><ele>213.0</ele><time>2026-04-26T07:12:55.069Z</time></trkpt><trkpt lat="45.849515" lon="8.6285317"><ele>213.0</ele><time>2026-04-26T07:12:56.069Z</time></trkpt><trkpt lat="45.84946" lon="8.6284667"><ele>212.4</ele><time>2026-04-26T07:12:58.069Z</time></trkpt><trkpt lat="45.8494533" lon="8.62836"><ele>211.8</ele><time>2026-04-26T07:14:00.069Z</time></trkpt><trkpt lat="45.8494383" lon="8.6282433"><ele>211.2</ele><time>2026-04-26T07:14:02.069Z</time></trkpt><trkpt lat="45.8493867" lon="8.6280933"><ele>210.6</ele><time>2026-04-26T07:14:18.069Z</time></trkpt><trkpt lat="45.84928" lon="8.6280367"><ele>210.0</ele><time>2026-04-26T07:15:32.069Z</time></trkpt><trkpt lat="45.84921" lon="8.6280533"><ele>209.33333333333334</ele><time>2026-04-26T07:15:34.069Z</time></trkpt><trkpt lat="45.8491033" lon="8.6280533"><ele>208.66666666666669</ele><time>2026-04-26T07:15:36.069Z</time></trkpt><trkpt lat="45.8490333" lon="8.62804"><ele>208.0</ele><time>2026-04-26T07:15:37.069Z</time></trkpt><trkpt lat="45.8489517" lon="8.6280217"><ele>207.33333333333334</ele><time>2026-04-26T07:15:38.069Z</time></trkpt><trkpt lat="45.8488683" lon="8.628005"><ele>206.66666666666669</ele><time>2026-04-26T07:15:39.069Z</time></trkpt><trkpt lat="45.8487667" lon="8.6279867"><ele>206.0</ele><time>2026-04-26T07:15:40.069Z</time></trkpt><trkpt lat="45.8486833" lon="8.627975"><ele>206.00000000000003</ele><time>2026-04-26T07:15:41.069Z</time></trkpt><trkpt lat="45.8486067" lon="8.62797"><ele>206.0</ele><time>2026-04-26T07:15:42.069Z</time></trkpt><trkpt lat="45.8485383" lon="8.6279833"><ele>206.0</ele><time>2026-04-26T07:15:43.069Z</time></trkpt><trkpt lat="45.8484767" lon="8.6280117"><ele>206.0</ele><time>2026-04-26T07:15:44.069Z</time></trkpt><trkpt lat="45.8483667" lon="8.6280667"><ele>206.00000000000003</ele><time>2026-04-26T07:15:46.069Z</time></trkpt><trkpt lat="45.8482983" lon="8.628115"><ele>206.0</ele><time>2026-04-26T07:15:48.069Z</time></trkpt><trkpt lat="45.8482183" lon="8.6281133"><ele>206.00000000000003</ele><time>2026-04-26T07:15:51.069Z</time></trkpt><trkpt lat="45.8482667" lon="8.6282017"><ele>206.0</ele><time>2026-04-26T07:15:58.069Z</time></trkpt><trkpt lat="45.8483383" lon="8.6282083"><ele>206.0</ele><time>2026-04-26T07:16:01.069Z</time></trkpt><trkpt lat="45.84842" lon="8.62819"><ele>206.0</ele><time>2026-04-26T07:16:03.069Z</time></trkpt><trkpt lat="45.8485117" lon="8.6281733"><ele>206.00000000000003</ele><time>2026-04-26T07:16:05.069Z</time></trkpt><trkpt lat="45.8485933" lon="8.6281433"><ele>206.0</ele><time>2026-04-26T07:16:07.07Z</time></trkpt><trkpt lat="45.8486517" lon="8.628055"><ele>206.0</ele><time>2026-04-26T07:16:09.069Z</time></trkpt><trkpt lat="45.848705" lon="8.6278533"><ele>206.0</ele><time>2026-04-26T07:16:11.069Z</time></trkpt><trkpt lat="45.8487233" lon="8.6277317"><ele>206.0</ele><time>2026-04-26T07:16:12.07Z</time></trkpt><trkpt lat="45.84872" lon="8.6275817"><ele>206.0</ele><time>2026-04-26T07:16:13.069Z</time></trkpt><trkpt lat="45.8486967" lon="8.6273917"><ele>205.25</ele><time>2026-04-26T07:16:14.07Z</time></trkpt><trkpt lat="45.8486767" lon="8.6272133"><ele>204.5</ele><time>2026-04-26T07:16:15.069Z</time></trkpt><trkpt lat="45.8486583" lon="8.6270483"><ele>203.75</ele><time>2026-04-26T07:16:16.069Z</time></trkpt><trkpt lat="45.8486383" lon="8.6268917"><ele>203.0</ele><time>2026-04-26T07:16:17.069Z</time></trkpt><trkpt lat="45.8486183" lon="8.6267417"><ele>202.60000000000002</ele><time>2026-04-26T07:16:18.069Z</time></trkpt><trkpt lat="45.8485683" lon="8.6266083"><ele>202.20000000000002</ele><time>2026-04-26T07:16:19.069Z</time></trkpt><trkpt lat="45.8485467" lon="8.6264633"><ele>201.8</ele><time>2026-04-26T07:16:20.069Z</time></trkpt><trkpt lat="45.8485133" lon="8.62634"><ele>201.4</ele><time>2026-04-26T07:16:21.069Z</time></trkpt><trkpt lat="45.8484967" lon="8.6262183"><ele>201.0</ele><time>2026-04-26T07:16:22.069Z</time></trkpt><trkpt lat="45.8484767" lon="8.6261217"><ele>201.0</ele><time>2026-04-26T07:16:23.07Z</time></trkpt><trkpt lat="45.848435" lon="8.625975"><ele>201.0</ele><time>2026-04-26T07:16:25.069Z</time></trkpt><trkpt lat="45.8483817" lon="8.6258383"><ele>201.0</ele><time>2026-04-26T07:16:27.069Z</time></trkpt><trkpt lat="45.8483867" lon="8.6256967"><ele>201.0</ele><time>2026-04-26T07:16:29.069Z</time></trkpt><trkpt lat="45.8484283" lon="8.6255967"><ele>201.0</ele><time>2026-04-26T07:16:30.069Z</time></trkpt><trkpt lat="45.8484717" lon="8.6254867"><ele>201.0</ele><time>2026-04-26T07:16:31.069Z</time></trkpt><trkpt lat="45.8485117" lon="8.6253883"><ele>201.0</ele><time>2026-04-26T07:16:32.07Z</time></trkpt><trkpt lat="45.8485417" lon="8.6252783"><ele>201.0</ele><time>2026-04-26T07:16:34.07Z</time></trkpt><trkpt lat="45.8486417" lon="8.6253017"><ele>201.0</ele><time>2026-04-26T07:17:13.069Z</time></trkpt><trkpt lat="45.8487333" lon="8.6253383"><ele>201.0</ele><time>2026-04-26T07:17:15.069Z</time></trkpt><trkpt lat="45.8488317" lon="8.6253633"><ele>201.0</ele><time>2026-04-26T07:17:17.069Z</time></trkpt><trkpt lat="45.8489133" lon="8.6253783"><ele>201.0</ele><time>2026-04-26T07:17:19.069Z</time></trkpt><trkpt lat="45.8488767" lon="8.6253033"><ele>201.0</ele><time>2026-04-26T07:18:16.069Z</time></trkpt><trkpt lat="45.848805" lon="8.625285"><ele>201.0</ele><time>2026-04-26T07:18:18.069Z</time></trkpt><trkpt lat="45.8487217" lon="8.6252667"><ele>201.0</ele><time>2026-04-26T07:18:20.069Z</time></trkpt><trkpt lat="45.8486433" lon="8.6252417"><ele>201.0</ele><time>2026-04-26T07:18:22.07Z</time></trkpt><trkpt lat="45.8485733" lon="8.6252817"><ele>201.0</ele><time>2026-04-26T07:18:25.069Z</time></trkpt><trkpt lat="45.8485467" lon="8.6253717"><ele>201.0</ele><time>2026-04-26T07:18:26.069Z</time></trkpt><trkpt lat="45.84851" lon="8.625485"><ele>201.0</ele><time>2026-04-26T07:18:27.069Z</time></trkpt><trkpt lat="45.8484733" lon="8.6255933"><ele>201.0</ele><time>2026-04-26T07:18:28.069Z</time></trkpt><trkpt lat="45.84844" lon="8.6256817"><ele>201.0</ele><time>2026-04-26T07:18:29.069Z</time></trkpt><trkpt lat="45.84839" lon="8.6258183"><ele>201.0</ele><time>2026-04-26T07:18:31.069Z</time></trkpt><trkpt lat="45.8483933" lon="8.6259183"><ele>201.0</ele><time>2026-04-26T07:18:33.069Z</time></trkpt><trkpt lat="45.8484333" lon="8.6260333"><ele>201.0</ele><time>2026-04-26T07:18:35.069Z</time></trkpt><trkpt lat="45.8484617" lon="8.6262283"><ele>201.0</ele><time>2026-04-26T07:18:37.069Z</time></trkpt><trkpt lat="45.8484783" lon="8.62635"><ele>201.0</ele><time>2026-04-26T07:18:38.069Z</time></trkpt><trkpt lat="45.8484983" lon="8.62648"><ele>201.0</ele><time>2026-04-26T07:18:39.069Z</time></trkpt><trkpt lat="45.8485217" lon="8.6266133"><ele>201.0</ele><time>2026-04-26T07:18:40.069Z</time></trkpt><trkpt lat="45.8485467" lon="8.626755"><ele>201.0</ele><time>2026-04-26T07:18:41.069Z</time></trkpt><trkpt lat="45.8485767" lon="8.6269"><ele>201.0</ele><time>2026-04-26T07:18:42.069Z</time></trkpt><trkpt lat="45.8486083" lon="8.6270467"><ele>201.0</ele><time>2026-04-26T07:18:43.069Z</time></trkpt><trkpt lat="45.848635" lon="8.6271733"><ele>201.0</ele><time>2026-04-26T07:18:44.069Z</time></trkpt><trkpt lat="45.8486583" lon="8.627295"><ele>201.33333333333334</ele><time>2026-04-26T07:18:45.069Z</time></trkpt><trkpt lat="45.848675" lon="8.6274033"><ele>201.66666666666669</ele><time>2026-04-26T07:18:46.069Z</time></trkpt><trkpt lat="45.8486883" lon="8.6275117"><ele>202.0</ele><time>2026-04-26T07:18:47.069Z</time></trkpt><trkpt lat="45.8487" lon="8.627615"><ele>202.33333333333334</ele><time>2026-04-26T07:18:48.069Z</time></trkpt><trkpt lat="45.848715" lon="8.6277033"><ele>202.66666666666669</ele><time>2026-04-26T07:18:49.069Z</time></trkpt><trkpt lat="45.8487367" lon="8.6278967"><ele>203.0</ele><time>2026-04-26T07:18:51.069Z</time></trkpt><trkpt lat="45.8487883" lon="8.62799"><ele>203.50000000000003</ele><time>2026-04-26T07:18:54.069Z</time></trkpt><trkpt lat="45.8489067" lon="8.628015"><ele>204.0</ele><time>2026-04-26T07:18:56.069Z</time></trkpt><trkpt lat="45.8489817" lon="8.6280167"><ele>204.5</ele><time>2026-04-26T07:18:57.069Z</time></trkpt><trkpt lat="45.8490683" lon="8.628045"><ele>205.0</ele><time>2026-04-26T07:18:58.069Z</time></trkpt><trkpt lat="45.8491483" lon="8.6280633"><ele>205.50000000000003</ele><time>2026-04-26T07:18:59.069Z</time></trkpt><trkpt lat="45.8492133" lon="8.6280833"><ele>206.0</ele><time>2026-04-26T07:19:00.069Z</time></trkpt><trkpt lat="45.8492933" lon="8.628095"><ele>206.0</ele><time>2026-04-26T07:19:02.069Z</time></trkpt><trkpt lat="45.8491933" lon="8.6282017"><ele>206.0</ele><time>2026-04-26T07:19:27.069Z</time></trkpt><trkpt lat="45.849115" lon="8.62829"><ele>206.0</ele><time>2026-04-26T07:19:28.069Z</time></trkpt><trkpt lat="45.8490217" lon="8.6283883"><ele>206.0</ele><time>2026-04-26T07:19:29.069Z</time></trkpt><trkpt lat="45.8489317" lon="8.6284783"><ele>206.0</ele><time>2026-04-26T07:19:30.069Z</time></trkpt><trkpt lat="45.84883" lon="8.6285767"><ele>206.0</ele><time>2026-04-26T07:19:31.069Z</time></trkpt><trkpt lat="45.8487217" lon="8.6286967"><ele>206.0</ele><time>2026-04-26T07:19:32.069Z</time></trkpt><trkpt lat="45.8486117" lon="8.628815"><ele>206.0</ele><time>2026-04-26T07:19:33.069Z</time></trkpt><trkpt lat="45.8484967" lon="8.6289417"><ele>206.25</ele><time>2026-04-26T07:19:34.069Z</time></trkpt><trkpt lat="45.848375" lon="8.62906"><ele>206.5</ele><time>2026-04-26T07:19:35.069Z</time></trkpt><trkpt lat="45.8482633" lon="8.62916"><ele>206.75</ele><time>2026-04-26T07:19:36.069Z</time></trkpt><trkpt lat="45.8481533" lon="8.6292433"><ele>207.0</ele><time>2026-04-26T07:19:37.069Z</time></trkpt><trkpt lat="45.8480217" lon="8.6293267"><ele>207.0</ele><time>2026-04-26T07:19:38.07Z</time></trkpt><trkpt lat="45.8478917" lon="8.6293867"><ele>207.0</ele><time>2026-04-26T07:19:39.069Z</time></trkpt><trkpt lat="45.8477567" lon="8.6294217"><ele>207.0</ele><time>2026-04-26T07:19:40.069Z</time></trkpt><trkpt lat="45.8476233" lon="8.6294433"><ele>207.0</ele><time>2026-04-26T07:19:41.069Z</time></trkpt><trkpt lat="45.8474933" lon="8.629445"><ele>209.0</ele><time>2026-04-26T07:19:42.069Z</time></trkpt><trkpt lat="45.8473683" lon="8.62943"><ele>211.0</ele><time>2026-04-26T07:19:43.07Z</time></trkpt><trkpt lat="45.8472433" lon="8.6294017"><ele>213.0</ele><time>2026-04-26T07:19:44.069Z</time></trkpt><trkpt lat="45.84712" lon="8.629365"><ele>215.0</ele><time>2026-04-26T07:19:45.069Z</time></trkpt><trkpt lat="45.8469933" lon="8.6293433"><ele>215.0</ele><time>2026-04-26T07:19:46.069Z</time></trkpt><trkpt lat="45.8468633" lon="8.629305"><ele>215.0</ele><time>2026-04-26T07:19:47.069Z</time></trkpt><trkpt lat="45.8467417" lon="8.6292483"><ele>215.0</ele><time>2026-04-26T07:19:48.069Z</time></trkpt><trkpt lat="45.8466167" lon="8.62919"><ele>215.0</ele><time>2026-04-26T07:19:49.069Z</time></trkpt><trkpt lat="45.8464983" lon="8.6291383"><ele>214.75</ele><time>2026-04-26T07:19:50.069Z</time></trkpt><trkpt lat="45.8463783" lon="8.6290733"><ele>214.5</ele><time>2026-04-26T07:19:51.069Z</time></trkpt><trkpt lat="45.84625" lon="8.6290333"><ele>214.25</ele><time>2026-04-26T07:19:52.07Z</time></trkpt><trkpt lat="45.846125" lon="8.62899"><ele>214.0</ele><time>2026-04-26T07:19:53.069Z</time></trkpt><trkpt lat="45.846" lon="8.6289533"><ele>213.25</ele><time>2026-04-26T07:19:54.069Z</time></trkpt><trkpt lat="45.8458717" lon="8.628935"><ele>212.5</ele><time>2026-04-26T07:19:55.069Z</time></trkpt><trkpt lat="45.8457283" lon="8.62893"><ele>211.75</ele><time>2026-04-26T07:19:56.069Z</time></trkpt><trkpt lat="45.8455733" lon="8.6289317"><ele>211.0</ele><time>2026-04-26T07:19:57.069Z</time></trkpt><trkpt lat="45.8454183" lon="8.6289333"><ele>211.0</ele><time>2026-04-26T07:19:58.069Z</time></trkpt><trkpt lat="45.8452633" lon="8.6289333"><ele>211.0</ele><time>2026-04-26T07:19:59.069Z</time></trkpt><trkpt lat="45.84512" lon="8.628935"><ele>211.0</ele><time>2026-04-26T07:20:00.07Z</time></trkpt><trkpt lat="45.8449767" lon="8.6289317"><ele>211.0</ele><time>2026-04-26T07:20:01.069Z</time></trkpt><trkpt lat="45.8448367" lon="8.6289233"><ele>210.75</ele><time>2026-04-26T07:20:02.069Z</time></trkpt><trkpt lat="45.8446933" lon="8.6289283"><ele>210.5</ele><time>2026-04-26T07:20:03.069Z</time></trkpt><trkpt lat="45.8445617" lon="8.6289233"><ele>210.25</ele><time>2026-04-26T07:20:04.069Z</time></trkpt><trkpt lat="45.8444483" lon="8.6288983"><ele>210.0</ele><time>2026-04-26T07:20:05.069Z</time></trkpt><trkpt lat="45.84432" lon="8.6289"><ele>210.0</ele><time>2026-04-26T07:20:06.069Z</time></trkpt><trkpt lat="45.8441983" lon="8.6289233"><ele>210.0</ele><time>2026-04-26T07:20:07.069Z</time></trkpt><trkpt lat="45.8440733" lon="8.628945"><ele>210.0</ele><time>2026-04-26T07:20:08.07Z</time></trkpt><trkpt lat="45.84395" lon="8.6289517"><ele>210.0</ele><time>2026-04-26T07:20:09.069Z</time></trkpt><trkpt lat="45.84382" lon="8.6289617"><ele>210.0</ele><time>2026-04-26T07:20:10.069Z</time></trkpt><trkpt lat="45.8436983" lon="8.6289633"><ele>210.0</ele><time>2026-04-26T07:20:11.069Z</time></trkpt><trkpt lat="45.84356" lon="8.6289617"><ele>210.0</ele><time>2026-04-26T07:20:12.069Z</time></trkpt><trkpt lat="45.8434133" lon="8.62896"><ele>210.0</ele><time>2026-04-26T07:20:13.069Z</time></trkpt><trkpt lat="45.84327" lon="8.6289533"><ele>210.0</ele><time>2026-04-26T07:20:14.069Z</time></trkpt><trkpt lat="45.8431267" lon="8.628945"><ele>210.0</ele><time>2026-04-26T07:20:15.069Z</time></trkpt><trkpt lat="45.8429817" lon="8.6289333"><ele>210.0</ele><time>2026-04-26T07:20:16.069Z</time></trkpt><trkpt lat="45.842835" lon="8.628945"><ele>210.0</ele><time>2026-04-26T07:20:17.069Z</time></trkpt><trkpt lat="45.8426933" lon="8.628945"><ele>209.2</ele><time>2026-04-26T07:20:18.069Z</time></trkpt><trkpt lat="45.84257" lon="8.62895"><ele>208.4</ele><time>2026-04-26T07:20:19.069Z</time></trkpt><trkpt lat="45.8424533" lon="8.628955"><ele>207.60000000000002</ele><time>2026-04-26T07:20:20.069Z</time></trkpt><trkpt lat="45.8423567" lon="8.6289667"><ele>206.8</ele><time>2026-04-26T07:20:21.069Z</time></trkpt><trkpt lat="45.84227" lon="8.6289683"><ele>206.0</ele><time>2026-04-26T07:20:22.069Z</time></trkpt><trkpt lat="45.8421983" lon="8.6289667"><ele>206.00000000000003</ele><time>2026-04-26T07:20:23.069Z</time></trkpt><trkpt lat="45.842135" lon="8.62897"><ele>206.0</ele><time>2026-04-26T07:20:24.069Z</time></trkpt><trkpt lat="45.842035" lon="8.628945"><ele>206.0</ele><time>2026-04-26T07:20:26.07Z</time></trkpt><trkpt lat="45.84196" lon="8.6288283"><ele>206.0</ele><time>2026-04-26T07:20:28.069Z</time></trkpt><trkpt lat="45.84194" lon="8.6287283"><ele>206.00000000000003</ele><time>2026-04-26T07:20:29.069Z</time></trkpt><trkpt lat="45.841925" lon="8.6285967"><ele>206.0</ele><time>2026-04-26T07:20:30.069Z</time></trkpt><trkpt lat="45.8419117" lon="8.62848"><ele>206.4</ele><time>2026-04-26T07:20:31.069Z</time></trkpt><trkpt lat="45.8418983" lon="8.6283533"><ele>206.8</ele><time>2026-04-26T07:20:32.069Z</time></trkpt><trkpt lat="45.8418867" lon="8.628225"><ele>207.20000000000002</ele><time>2026-04-26T07:20:33.069Z</time></trkpt><trkpt lat="45.8418667" lon="8.6280833"><ele>207.60000000000002</ele><time>2026-04-26T07:20:34.069Z</time></trkpt><trkpt lat="45.8418483" lon="8.6279317"><ele>208.0</ele><time>2026-04-26T07:20:35.069Z</time></trkpt><trkpt lat="45.8418283" lon="8.6278067"><ele>207.83333333333331</ele><time>2026-04-26T07:20:36.069Z</time></trkpt><trkpt lat="45.8418083" lon="8.6277083"><ele>207.66666666666666</ele><time>2026-04-26T07:20:37.069Z</time></trkpt><trkpt lat="45.8417767" lon="8.627575"><ele>207.5</ele><time>2026-04-26T07:20:39.069Z</time></trkpt><trkpt lat="45.8417583" lon="8.6274817"><ele>207.33333333333331</ele><time>2026-04-26T07:20:41.069Z</time></trkpt><trkpt lat="45.841735" lon="8.6273533"><ele>207.16666666666666</ele><time>2026-04-26T07:20:43.069Z</time></trkpt><trkpt lat="45.8417167" lon="8.6272583"><ele>207.0</ele><time>2026-04-26T07:20:44.069Z</time></trkpt><trkpt lat="45.8416867" lon="8.6270967"><ele>207.0</ele><time>2026-04-26T07:20:46.069Z</time></trkpt><trkpt lat="45.841655" lon="8.6269433"><ele>207.0</ele><time>2026-04-26T07:20:48.069Z</time></trkpt><trkpt lat="45.841615" lon="8.6267783"><ele>207.0</ele><time>2026-04-26T07:20:50.069Z</time></trkpt><trkpt lat="45.841585" lon="8.6266983"><ele>207.0</ele><time>2026-04-26T07:20:51.07Z</time></trkpt><trkpt lat="45.84156" lon="8.6265233"><ele>207.0</ele><time>2026-04-26T07:20:53.069Z</time></trkpt><trkpt lat="45.841525" lon="8.6263617"><ele>207.0</ele><time>2026-04-26T07:20:55.069Z</time></trkpt><trkpt lat="45.8414867" lon="8.6262167"><ele>207.0</ele><time>2026-04-26T07:20:57.07Z</time></trkpt><trkpt lat="45.8414717" lon="8.6261083"><ele>207.0</ele><time>2026-04-26T07:20:59.069Z</time></trkpt><trkpt lat="45.8414467" lon="8.625955"><ele>207.0</ele><time>2026-04-26T07:21:01.069Z</time></trkpt><trkpt lat="45.841405" lon="8.6258067"><ele>207.0</ele><time>2026-04-26T07:21:03.069Z</time></trkpt><trkpt lat="45.8414083" lon="8.625705"><ele>207.0</ele><time>2026-04-26T07:21:06.07Z</time></trkpt><trkpt lat="45.841465" lon="8.6256317"><ele>207.0</ele><time>2026-04-26T07:22:37.069Z</time></trkpt><trkpt lat="45.8414033" lon="8.6255283"><ele>207.0</ele><time>2026-04-26T07:22:39.069Z</time></trkpt><trkpt lat="45.8413533" lon="8.6253933"><ele>207.0</ele><time>2026-04-26T07:22:41.069Z</time></trkpt><trkpt lat="45.8413317" lon="8.6252933"><ele>207.0</ele><time>2026-04-26T07:22:42.069Z</time></trkpt><trkpt lat="45.8413117" lon="8.625195"><ele>207.0</ele><time>2026-04-26T07:22:43.069Z</time></trkpt><trkpt lat="45.8412917" lon="8.6250933"><ele>206.83333333333334</ele><time>2026-04-26T07:22:44.069Z</time></trkpt><trkpt lat="45.8412767" lon="8.6249883"><ele>206.66666666666669</ele><time>2026-04-26T07:22:45.069Z</time></trkpt><trkpt lat="45.8412633" lon="8.6248833"><ele>206.5</ele><time>2026-04-26T07:22:46.069Z</time></trkpt><trkpt lat="45.8412583" lon="8.6247833"><ele>206.33333333333334</ele><time>2026-04-26T07:22:47.07Z</time></trkpt><trkpt lat="45.8412267" lon="8.6245983"><ele>206.16666666666669</ele><time>2026-04-26T07:22:49.069Z</time></trkpt><trkpt lat="45.841205" lon="8.624505"><ele>206.0</ele><time>2026-04-26T07:22:50.069Z</time></trkpt><trkpt lat="45.8411933" lon="8.6244033"><ele>205.50000000000003</ele><time>2026-04-26T07:22:51.069Z</time></trkpt><trkpt lat="45.84118" lon="8.6243133"><ele>205.0</ele><time>2026-04-26T07:22:52.069Z</time></trkpt><trkpt lat="45.8411583" lon="8.6241667"><ele>204.5</ele><time>2026-04-26T07:22:54.069Z</time></trkpt><trkpt lat="45.8411383" lon="8.6240533"><ele>204.0</ele><time>2026-04-26T07:22:56.069Z</time></trkpt><trkpt lat="45.8411167" lon="8.623955"><ele>203.50000000000003</ele><time>2026-04-26T07:22:59.069Z</time></trkpt><trkpt lat="45.8410633" lon="8.6238583"><ele>203.0</ele><time>2026-04-26T07:23:15.069Z</time></trkpt><trkpt lat="45.8409933" lon="8.6238283"><ele>202.33333333333334</ele><time>2026-04-26T07:23:18.069Z</time></trkpt><trkpt lat="45.840905" lon="8.6238217"><ele>201.66666666666669</ele><time>2026-04-26T07:23:20.069Z</time></trkpt><trkpt lat="45.840825" lon="8.6238233"><ele>201.0</ele><time>2026-04-26T07:23:22.069Z</time></trkpt><trkpt lat="45.8407383" lon="8.6238183"><ele>200.33333333333331</ele><time>2026-04-26T07:23:24.069Z</time></trkpt><trkpt lat="45.8406533" lon="8.623815"><ele>199.66666666666666</ele><time>2026-04-26T07:23:26.069Z</time></trkpt><trkpt lat="45.8405783" lon="8.623825"><ele>199.0</ele><time>2026-04-26T07:23:28.069Z</time></trkpt><trkpt lat="45.8405083" lon="8.62384"><ele>198.99999999999997</ele><time>2026-04-26T07:23:30.069Z</time></trkpt><trkpt lat="45.840425" lon="8.6238667"><ele>199.0</ele><time>2026-04-26T07:23:32.069Z</time></trkpt><trkpt lat="45.84035" lon="8.6238833"><ele>199.0</ele><time>2026-04-26T07:23:34.069Z</time></trkpt><trkpt lat="45.8402683" lon="8.6238883"><ele>199.0</ele><time>2026-04-26T07:23:38.069Z</time></trkpt><trkpt lat="45.84021" lon="8.6239583"><ele>198.99999999999997</ele><time>2026-04-26T07:23:50.069Z</time></trkpt><trkpt lat="45.84016" lon="8.6240467"><ele>199.0</ele><time>2026-04-26T07:23:52.07Z</time></trkpt><trkpt lat="45.8401" lon="8.6241133"><ele>199.0</ele><time>2026-04-26T07:23:54.069Z</time></trkpt><trkpt lat="45.8399967" lon="8.6241517"><ele>199.0</ele><time>2026-04-26T07:23:56.069Z</time></trkpt><trkpt lat="45.8399183" lon="8.6241917"><ele>199.0</ele><time>2026-04-26T07:23:59.07Z</time></trkpt><trkpt lat="45.83983" lon="8.624275"><ele>199.0</ele><time>2026-04-26T07:24:01.069Z</time></trkpt><trkpt lat="45.8397483" lon="8.6243933"><ele>199.0</ele><time>2026-04-26T07:24:03.069Z</time></trkpt><trkpt lat="45.8396483" lon="8.6244967"><ele>198.39999999999998</ele><time>2026-04-26T07:24:05.069Z</time></trkpt><trkpt lat="45.8395683" lon="8.6245367"><ele>197.8</ele><time>2026-04-26T07:24:07.069Z</time></trkpt><trkpt lat="45.8395017" lon="8.6245533"><ele>197.2</ele><time>2026-04-26T07:24:09.069Z</time></trkpt><trkpt lat="45.839425" lon="8.6246333"><ele>196.60000000000002</ele><time>2026-04-26T07:24:12.069Z</time></trkpt><trkpt lat="45.8394" lon="8.62478"><ele>196.0</ele><time>2026-04-26T07:24:14.069Z</time></trkpt><trkpt lat="45.83937" lon="8.62493"><ele>196.0</ele><time>2026-04-26T07:24:16.069Z</time></trkpt><trkpt lat="45.839355" lon="8.6250283"><ele>196.0</ele><time>2026-04-26T07:24:17.069Z</time></trkpt><trkpt lat="45.8393233" lon="8.6251067"><ele>196.0</ele><time>2026-04-26T07:24:18.069Z</time></trkpt><trkpt lat="45.8392433" lon="8.6252283"><ele>196.0</ele><time>2026-04-26T07:24:20.07Z</time></trkpt><trkpt lat="45.839145" lon="8.625355"><ele>196.0</ele><time>2026-04-26T07:24:22.069Z</time></trkpt><trkpt lat="45.8390933" lon="8.6254267"><ele>196.16666666666666</ele><time>2026-04-26T07:24:23.069Z</time></trkpt><trkpt lat="45.8390333" lon="8.6254883"><ele>196.33333333333331</ele><time>2026-04-26T07:24:24.069Z</time></trkpt><trkpt lat="45.8389667" lon="8.6255333"><ele>196.5</ele><time>2026-04-26T07:24:25.069Z</time></trkpt><trkpt lat="45.8389083" lon="8.6255717"><ele>196.66666666666669</ele><time>2026-04-26T07:24:26.069Z</time></trkpt><trkpt lat="45.8388533" lon="8.6256183"><ele>196.83333333333334</ele><time>2026-04-26T07:24:27.069Z</time></trkpt><trkpt lat="45.8387433" lon="8.6256917"><ele>197.0</ele><time>2026-04-26T07:24:29.069Z</time></trkpt><trkpt lat="45.8386767" lon="8.6257133"><ele>197.0</ele><time>2026-04-26T07:24:30.069Z</time></trkpt><trkpt lat="45.8385667" lon="8.6257683"><ele>197.0</ele><time>2026-04-26T07:24:32.069Z</time></trkpt><trkpt lat="45.838495" lon="8.6258867"><ele>197.0</ele><time>2026-04-26T07:24:34.069Z</time></trkpt><trkpt lat="45.838485" lon="8.6260617"><ele>197.0</ele><time>2026-04-26T07:24:36.069Z</time></trkpt><trkpt lat="45.83849" lon="8.6261717"><ele>197.0</ele><time>2026-04-26T07:24:37.07Z</time></trkpt><trkpt lat="45.8385067" lon="8.6263033"><ele>197.50000000000003</ele><time>2026-04-26T07:24:38.069Z</time></trkpt><trkpt lat="45.8385167" lon="8.626425"><ele>198.0</ele><time>2026-04-26T07:24:39.069Z</time></trkpt><trkpt lat="45.8385317" lon="8.6265417"><ele>198.5</ele><time>2026-04-26T07:24:40.069Z</time></trkpt><trkpt lat="45.83854" lon="8.62666"><ele>199.0</ele><time>2026-04-26T07:24:41.069Z</time></trkpt><trkpt lat="45.8385417" lon="8.62678"><ele>199.50000000000003</ele><time>2026-04-26T07:24:42.069Z</time></trkpt><trkpt lat="45.8385317" lon="8.6269"><ele>200.0</ele><time>2026-04-26T07:24:43.069Z</time></trkpt><trkpt lat="45.838515" lon="8.6270233"><ele>200.2</ele><time>2026-04-26T07:24:44.069Z</time></trkpt><trkpt lat="45.838495" lon="8.6271467"><ele>200.4</ele><time>2026-04-26T07:24:45.069Z</time></trkpt><trkpt lat="45.83846" lon="8.62727"><ele>200.60000000000002</ele><time>2026-04-26T07:24:46.069Z</time></trkpt><trkpt lat="45.838415" lon="8.6273983"><ele>200.8</ele><time>2026-04-26T07:24:47.069Z</time></trkpt><trkpt lat="45.8383633" lon="8.6275283"><ele>201.0</ele><time>2026-04-26T07:24:48.069Z</time></trkpt><trkpt lat="45.8383133" lon="8.62766"><ele>201.0</ele><time>2026-04-26T07:24:49.069Z</time></trkpt><trkpt lat="45.8382533" lon="8.62777"><ele>201.0</ele><time>2026-04-26T07:24:50.069Z</time></trkpt><trkpt lat="45.8381817" lon="8.627865"><ele>201.0</ele><time>2026-04-26T07:24:51.069Z</time></trkpt><trkpt lat="45.838095" lon="8.62795"><ele>201.0</ele><time>2026-04-26T07:24:52.069Z</time></trkpt><trkpt lat="45.8379983" lon="8.6280133"><ele>201.0</ele><time>2026-04-26T07:24:53.069Z</time></trkpt><trkpt lat="45.8379017" lon="8.6280667"><ele>201.0</ele><time>2026-04-26T07:24:54.069Z</time></trkpt><trkpt lat="45.83782" lon="8.6281167"><ele>201.0</ele><time>2026-04-26T07:24:55.069Z</time></trkpt><trkpt lat="45.83775" lon="8.6281683"><ele>201.0</ele><time>2026-04-26T07:24:56.069Z</time></trkpt><trkpt lat="45.8376967" lon="8.6282333"><ele>201.0</ele><time>2026-04-26T07:24:57.069Z</time></trkpt><trkpt lat="45.8376533" lon="8.6283683"><ele>201.0</ele><time>2026-04-26T07:24:59.069Z</time></trkpt><trkpt lat="45.837625" lon="8.62847"><ele>201.0</ele><time>2026-04-26T07:25:01.069Z</time></trkpt><trkpt lat="45.8375817" lon="8.6286117"><ele>201.0</ele><time>2026-04-26T07:25:09.069Z</time></trkpt><trkpt lat="45.8375817" lon="8.6287167"><ele>201.0</ele><time>2026-04-26T07:25:10.069Z</time></trkpt><trkpt lat="45.837575" lon="8.6288417"><ele>201.0</ele><time>2026-04-26T07:25:11.069Z</time></trkpt><trkpt lat="45.8375817" lon="8.6290017"><ele>201.0</ele><time>2026-04-26T07:25:12.069Z</time></trkpt><trkpt lat="45.8375833" lon="8.629155"><ele>201.0</ele><time>2026-04-26T07:25:13.069Z</time></trkpt><trkpt lat="45.83758" lon="8.6293083"><ele>201.0</ele><time>2026-04-26T07:25:14.069Z</time></trkpt><trkpt lat="45.8375717" lon="8.6294567"><ele>201.0</ele><time>2026-04-26T07:25:15.069Z</time></trkpt><trkpt lat="45.8375583" lon="8.6296167"><ele>201.0</ele><time>2026-04-26T07:25:16.07Z</time></trkpt><trkpt lat="45.8375367" lon="8.6297767"><ele>201.0</ele><time>2026-04-26T07:25:17.069Z</time></trkpt><trkpt lat="45.8375317" lon="8.6299667"><ele>201.33333333333331</ele><time>2026-04-26T07:25:18.069Z</time></trkpt><trkpt lat="45.8375167" lon="8.630185"><ele>201.66666666666666</ele><time>2026-04-26T07:25:19.069Z</time></trkpt><trkpt lat="45.8374983" lon="8.6304067"><ele>202.0</ele><time>2026-04-26T07:25:20.069Z</time></trkpt><trkpt lat="45.837475" lon="8.630635"><ele>203.0</ele><time>2026-04-26T07:25:21.069Z</time></trkpt><trkpt lat="45.8374567" lon="8.63087"><ele>204.0</ele><time>2026-04-26T07:25:22.069Z</time></trkpt><trkpt lat="45.8374367" lon="8.631095"><ele>205.0</ele><time>2026-04-26T07:25:23.069Z</time></trkpt><trkpt lat="45.83741" lon="8.631315"><ele>205.66666666666666</ele><time>2026-04-26T07:25:24.069Z</time></trkpt><trkpt lat="45.8373833" lon="8.6315467"><ele>206.33333333333331</ele><time>2026-04-26T07:25:25.069Z</time></trkpt><trkpt lat="45.8373533" lon="8.6317633"><ele>207.0</ele><time>2026-04-26T07:25:26.069Z</time></trkpt><trkpt lat="45.837335" lon="8.63198"><ele>207.0</ele><time>2026-04-26T07:25:27.069Z</time></trkpt><trkpt lat="45.837315" lon="8.6322133"><ele>207.0</ele><time>2026-04-26T07:25:28.069Z</time></trkpt><trkpt lat="45.83729" lon="8.6324433"><ele>207.0</ele><time>2026-04-26T07:25:29.069Z</time></trkpt><trkpt lat="45.8372633" lon="8.6326783"><ele>207.5</ele><time>2026-04-26T07:25:30.069Z</time></trkpt><trkpt lat="45.8372333" lon="8.6328983"><ele>208.0</ele><time>2026-04-26T07:25:31.069Z</time></trkpt><trkpt lat="45.8372117" lon="8.6331083"><ele>208.5</ele><time>2026-04-26T07:25:32.069Z</time></trkpt><trkpt lat="45.8371967" lon="8.633315"><ele>209.0</ele><time>2026-04-26T07:25:33.07Z</time></trkpt><trkpt lat="45.8371733" lon="8.633515"><ele>210.0</ele><time>2026-04-26T07:25:34.069Z</time></trkpt><trkpt lat="45.8371567" lon="8.6337133"><ele>211.0</ele><time>2026-04-26T07:25:35.069Z</time></trkpt><trkpt lat="45.8371383" lon="8.63389"><ele>212.0</ele><time>2026-04-26T07:25:36.069Z</time></trkpt><trkpt lat="45.8371167" lon="8.6340583"><ele>213.0</ele><time>2026-04-26T07:25:37.069Z</time></trkpt><trkpt lat="45.8370983" lon="8.63421"><ele>213.0</ele><time>2026-04-26T07:25:38.069Z</time></trkpt><trkpt lat="45.8370783" lon="8.6343467"><ele>213.0</ele><time>2026-04-26T07:25:39.069Z</time></trkpt><trkpt lat="45.8370583" lon="8.6344633"><ele>213.0</ele><time>2026-04-26T07:25:40.069Z</time></trkpt><trkpt lat="45.8370533" lon="8.63458"><ele>213.0</ele><time>2026-04-26T07:25:41.069Z</time></trkpt><trkpt lat="45.83705" lon="8.6346917"><ele>213.0</ele><time>2026-04-26T07:25:42.069Z</time></trkpt><trkpt lat="45.83704" lon="8.6347983"><ele>213.0</ele><time>2026-04-26T07:25:43.069Z</time></trkpt><trkpt lat="45.83703" lon="8.6349"><ele>213.5</ele><time>2026-04-26T07:25:44.069Z</time></trkpt><trkpt lat="45.83702" lon="8.634995"><ele>214.0</ele><time>2026-04-26T07:25:45.069Z</time></trkpt><trkpt lat="45.837" lon="8.6350817"><ele>214.5</ele><time>2026-04-26T07:25:46.069Z</time></trkpt><trkpt lat="45.8369783" lon="8.6351683"><ele>215.0</ele><time>2026-04-26T07:25:47.069Z</time></trkpt><trkpt lat="45.83692" lon="8.6353267"><ele>215.5</ele><time>2026-04-26T07:25:49.069Z</time></trkpt><trkpt lat="45.836835" lon="8.6354583"><ele>216.0</ele><time>2026-04-26T07:25:51.069Z</time></trkpt><trkpt lat="45.83676" lon="8.635585"><ele>217.66666666666666</ele><time>2026-04-26T07:25:53.07Z</time></trkpt><trkpt lat="45.8366917" lon="8.6357033"><ele>219.33333333333331</ele><time>2026-04-26T07:25:55.069Z</time></trkpt><trkpt lat="45.8366267" lon="8.63581"><ele>221.0</ele><time>2026-04-26T07:25:57.07Z</time></trkpt><trkpt lat="45.8365467" lon="8.6359033"><ele>222.66666666666666</ele><time>2026-04-26T07:25:59.069Z</time></trkpt><trkpt lat="45.8364833" lon="8.6359383"><ele>224.33333333333331</ele><time>2026-04-26T07:26:00.069Z</time></trkpt><trkpt lat="45.8364183" lon="8.635975"><ele>226.0</ele><time>2026-04-26T07:26:01.069Z</time></trkpt><trkpt lat="45.8363567" lon="8.636005"><ele>226.0</ele><time>2026-04-26T07:26:02.069Z</time></trkpt><trkpt lat="45.8362483" lon="8.6360883"><ele>226.00000000000003</ele><time>2026-04-26T07:26:04.069Z</time></trkpt><trkpt lat="45.836185" lon="8.6361983"><ele>226.00000000000003</ele><time>2026-04-26T07:26:06.069Z</time></trkpt><trkpt lat="45.836205" lon="8.63639"><ele>226.0</ele><time>2026-04-26T07:26:08.069Z</time></trkpt><trkpt lat="45.8362283" lon="8.6364933"><ele>226.0</ele><time>2026-04-26T07:26:09.069Z</time></trkpt><trkpt lat="45.836245" lon="8.6365817"><ele>226.0</ele><time>2026-04-26T07:26:10.069Z</time></trkpt><trkpt lat="45.83624" lon="8.63672"><ele>226.00000000000003</ele><time>2026-04-26T07:26:12.07Z</time></trkpt><trkpt lat="45.8361933" lon="8.6368083"><ele>226.00000000000003</ele><time>2026-04-26T07:26:14.069Z</time></trkpt><trkpt lat="45.8361133" lon="8.636885"><ele>226.0</ele><time>2026-04-26T07:26:16.069Z</time></trkpt><trkpt lat="45.836" lon="8.6369317"><ele>226.0</ele><time>2026-04-26T07:26:18.069Z</time></trkpt><trkpt lat="45.8358933" lon="8.636985"><ele>227.33333333333331</ele><time>2026-04-26T07:26:20.069Z</time></trkpt><trkpt lat="45.83583" lon="8.6370267"><ele>228.66666666666666</ele><time>2026-04-26T07:26:22.069Z</time></trkpt><trkpt lat="45.8357583" lon="8.6370067"><ele>230.0</ele><time>2026-04-26T07:26:28.07Z</time></trkpt><trkpt lat="45.8356767" lon="8.636935"><ele>231.33333333333331</ele><time>2026-04-26T07:26:30.069Z</time></trkpt><trkpt lat="45.8355917" lon="8.6368333"><ele>232.66666666666666</ele><time>2026-04-26T07:26:32.069Z</time></trkpt><trkpt lat="45.8355167" lon="8.6367467"><ele>234.0</ele><time>2026-04-26T07:26:34.069Z</time></trkpt><trkpt lat="45.8354333" lon="8.6366483"><ele>234.79999999999998</ele><time>2026-04-26T07:26:36.069Z</time></trkpt><trkpt lat="45.8353433" lon="8.6365617"><ele>235.59999999999997</ele><time>2026-04-26T07:26:38.069Z</time></trkpt><trkpt lat="45.8352833" lon="8.636465"><ele>236.4</ele><time>2026-04-26T07:26:40.069Z</time></trkpt><trkpt lat="45.8351983" lon="8.63633"><ele>237.2</ele><time>2026-04-26T07:26:42.07Z</time></trkpt><trkpt lat="45.8351467" lon="8.6362567"><ele>238.0</ele><time>2026-04-26T07:26:43.069Z</time></trkpt><trkpt lat="45.835095" lon="8.63619"><ele>240.66666666666666</ele><time>2026-04-26T07:26:44.069Z</time></trkpt><trkpt lat="45.8350017" lon="8.6360817"><ele>243.33333333333331</ele><time>2026-04-26T07:26:46.069Z</time></trkpt><trkpt lat="45.8349467" lon="8.636025"><ele>246.0</ele><time>2026-04-26T07:26:47.069Z</time></trkpt><trkpt lat="45.8348917" lon="8.6359683"><ele>248.66666666666669</ele><time>2026-04-26T07:26:48.069Z</time></trkpt><trkpt lat="45.8347933" lon="8.6358817"><ele>251.33333333333334</ele><time>2026-04-26T07:26:50.069Z</time></trkpt><trkpt lat="45.834735" lon="8.6358367"><ele>254.0</ele><time>2026-04-26T07:26:51.069Z</time></trkpt><trkpt lat="45.8346267" lon="8.63576"><ele>254.00000000000003</ele><time>2026-04-26T07:26:53.07Z</time></trkpt><trkpt lat="45.8345683" lon="8.635705"><ele>254.0</ele><time>2026-04-26T07:26:54.069Z</time></trkpt><trkpt lat="45.834475" lon="8.6356017"><ele>254.0</ele><time>2026-04-26T07:26:56.069Z</time></trkpt><trkpt lat="45.834405" lon="8.63553"><ele>254.0</ele><time>2026-04-26T07:26:58.069Z</time></trkpt><trkpt lat="45.8343583" lon="8.63546"><ele>254.00000000000003</ele><time>2026-04-26T07:27:04.069Z</time></trkpt><trkpt lat="45.83429" lon="8.6353733"><ele>254.0</ele><time>2026-04-26T07:27:08.069Z</time></trkpt><trkpt lat="45.8341983" lon="8.6352767"><ele>254.0</ele><time>2026-04-26T07:27:10.069Z</time></trkpt><trkpt lat="45.8340933" lon="8.6351933"><ele>253.99999999999997</ele><time>2026-04-26T07:27:12.069Z</time></trkpt><trkpt lat="45.8340217" lon="8.6351483"><ele>253.99999999999997</ele><time>2026-04-26T07:27:13.069Z</time></trkpt><trkpt lat="45.83396" lon="8.635115"><ele>254.0</ele><time>2026-04-26T07:27:14.069Z</time></trkpt><trkpt lat="45.8339017" lon="8.63508"><ele>254.0</ele><time>2026-04-26T07:27:15.069Z</time></trkpt><trkpt lat="45.8337817" lon="8.6350333"><ele>254.00000000000003</ele><time>2026-04-26T07:27:17.069Z</time></trkpt><trkpt lat="45.8336917" lon="8.635025"><ele>254.0</ele><time>2026-04-26T07:27:20.069Z</time></trkpt><trkpt lat="45.83363" lon="8.634995"><ele>254.0</ele><time>2026-04-26T07:27:22.069Z</time></trkpt><trkpt lat="45.8335667" lon="8.63495"><ele>254.0</ele><time>2026-04-26T07:27:27.069Z</time></trkpt><trkpt lat="45.8335067" lon="8.63492"><ele>254.00000000000003</ele><time>2026-04-26T07:27:32.069Z</time></trkpt><trkpt lat="45.83344" lon="8.6348467"><ele>254.0</ele><time>2026-04-26T07:27:36.069Z</time></trkpt><trkpt lat="45.833365" lon="8.6347467"><ele>254.66666666666669</ele><time>2026-04-26T07:27:38.069Z</time></trkpt><trkpt lat="45.8333167" lon="8.6346733"><ele>255.33333333333334</ele><time>2026-04-26T07:27:39.069Z</time></trkpt><trkpt lat="45.8332733" lon="8.6346017"><ele>256.0</ele><time>2026-04-26T07:27:40.069Z</time></trkpt><trkpt lat="45.8331933" lon="8.634455"><ele>256.6666666666667</ele><time>2026-04-26T07:27:42.069Z</time></trkpt><trkpt lat="45.8331583" lon="8.6343667"><ele>257.3333333333333</ele><time>2026-04-26T07:27:43.069Z</time></trkpt><trkpt lat="45.8331167" lon="8.634295"><ele>258.0</ele><time>2026-04-26T07:27:44.069Z</time></trkpt><trkpt lat="45.8330383" lon="8.634205"><ele>257.3333333333333</ele><time>2026-04-26T07:27:46.069Z</time></trkpt><trkpt lat="45.8329383" lon="8.63416"><ele>256.6666666666667</ele><time>2026-04-26T07:27:48.069Z</time></trkpt><trkpt lat="45.8328433" lon="8.6341167"><ele>256.0</ele><time>2026-04-26T07:27:50.069Z</time></trkpt><trkpt lat="45.83277" lon="8.6340917"><ele>255.33333333333334</ele><time>2026-04-26T07:27:52.07Z</time></trkpt><trkpt lat="45.8327" lon="8.6340683"><ele>254.66666666666669</ele><time>2026-04-26T07:27:54.069Z</time></trkpt><trkpt lat="45.8326383" lon="8.6340183"><ele>254.0</ele><time>2026-04-26T07:27:56.069Z</time></trkpt><trkpt lat="45.8325983" lon="8.6339283"><ele>254.00000000000003</ele><time>2026-04-26T07:27:59.069Z</time></trkpt><trkpt lat="45.832595" lon="8.63383"><ele>254.0</ele><time>2026-04-26T07:28:03.07Z</time></trkpt><trkpt lat="45.8326067" lon="8.6336967"><ele>254.0</ele><time>2026-04-26T07:28:07.069Z</time></trkpt><trkpt lat="45.8326083" lon="8.6335933"><ele>254.0</ele><time>2026-04-26T07:28:09.069Z</time></trkpt><trkpt lat="45.8325967" lon="8.633475"><ele>254.00000000000003</ele><time>2026-04-26T07:28:11.07Z</time></trkpt><trkpt lat="45.8325883" lon="8.6333633"><ele>254.0</ele><time>2026-04-26T07:28:13.069Z</time></trkpt><trkpt lat="45.8325733" lon="8.6332267"><ele>254.00000000000003</ele><time>2026-04-26T07:28:15.069Z</time></trkpt><trkpt lat="45.832555" lon="8.63306"><ele>254.0</ele><time>2026-04-26T07:28:17.069Z</time></trkpt><trkpt lat="45.8325417" lon="8.6329417"><ele>254.0</ele><time>2026-04-26T07:28:18.069Z</time></trkpt><trkpt lat="45.8325433" lon="8.63281"><ele>254.0</ele><time>2026-04-26T07:28:19.069Z</time></trkpt><trkpt lat="45.8325333" lon="8.6327133"><ele>254.00000000000003</ele><time>2026-04-26T07:28:20.069Z</time></trkpt><trkpt lat="45.832505" lon="8.632625"><ele>254.0</ele><time>2026-04-26T07:28:21.069Z</time></trkpt><trkpt lat="45.8324733" lon="8.6325367"><ele>254.00000000000003</ele><time>2026-04-26T07:28:22.069Z</time></trkpt><trkpt lat="45.8324267" lon="8.6324433"><ele>254.0</ele><time>2026-04-26T07:28:23.069Z</time></trkpt><trkpt lat="45.832385" lon="8.6323467"><ele>254.0</ele><time>2026-04-26T07:28:24.069Z</time></trkpt><trkpt lat="45.8323467" lon="8.6322483"><ele>254.0</ele><time>2026-04-26T07:28:25.069Z</time></trkpt><trkpt lat="45.8323083" lon="8.6321583"><ele>254.00000000000003</ele><time>2026-04-26T07:28:26.07Z</time></trkpt><trkpt lat="45.8322767" lon="8.6320633"><ele>254.0</ele><time>2026-04-26T07:28:27.069Z</time></trkpt><trkpt lat="45.8322033" lon="8.6319583"><ele>255.00000000000003</ele><time>2026-04-26T07:28:29.069Z</time></trkpt><trkpt lat="45.83211" lon="8.6318817"><ele>256.0</ele><time>2026-04-26T07:28:31.07Z</time></trkpt><trkpt lat="45.8320183" lon="8.6318467"><ele>257.0</ele><time>2026-04-26T07:28:33.069Z</time></trkpt><trkpt lat="45.8319533" lon="8.6318517"><ele>258.0</ele><time>2026-04-26T07:28:34.069Z</time></trkpt><trkpt lat="45.831875" lon="8.6318417"><ele>259.0</ele><time>2026-04-26T07:28:35.069Z</time></trkpt><trkpt lat="45.8318067" lon="8.63184"><ele>260.0</ele><time>2026-04-26T07:28:36.069Z</time></trkpt><trkpt lat="45.8317367" lon="8.631825"><ele>260.0</ele><time>2026-04-26T07:28:37.069Z</time></trkpt><trkpt lat="45.8316667" lon="8.6318033"><ele>260.0</ele><time>2026-04-26T07:28:38.069Z</time></trkpt><trkpt lat="45.8315917" lon="8.6317933"><ele>260.0</ele><time>2026-04-26T07:28:39.069Z</time></trkpt><trkpt lat="45.831525" lon="8.6317883"><ele>260.0</ele><time>2026-04-26T07:28:40.069Z</time></trkpt><trkpt lat="45.8314567" lon="8.63177"><ele>260.0</ele><time>2026-04-26T07:28:41.069Z</time></trkpt><trkpt lat="45.8313767" lon="8.63174"><ele>260.0</ele><time>2026-04-26T07:28:42.069Z</time></trkpt><trkpt lat="45.8312967" lon="8.6316933"><ele>260.0</ele><time>2026-04-26T07:28:43.07Z</time></trkpt><trkpt lat="45.831215" lon="8.631635"><ele>260.0</ele><time>2026-04-26T07:28:44.069Z</time></trkpt><trkpt lat="45.8311333" lon="8.6315633"><ele>260.0</ele><time>2026-04-26T07:28:45.069Z</time></trkpt><trkpt lat="45.831045" lon="8.6315017"><ele>260.0</ele><time>2026-04-26T07:28:46.069Z</time></trkpt><trkpt lat="45.8309483" lon="8.631445"><ele>260.0</ele><time>2026-04-26T07:28:47.069Z</time></trkpt><trkpt lat="45.83086" lon="8.6313967"><ele>260.2</ele><time>2026-04-26T07:28:48.069Z</time></trkpt><trkpt lat="45.8307717" lon="8.63134"><ele>260.4</ele><time>2026-04-26T07:28:49.069Z</time></trkpt><trkpt lat="45.8306867" lon="8.6312917"><ele>260.6</ele><time>2026-04-26T07:28:50.069Z</time></trkpt><trkpt lat="45.83057" lon="8.63124"><ele>260.8</ele><time>2026-04-26T07:28:51.069Z</time></trkpt><trkpt lat="45.8304783" lon="8.63121"><ele>261.0</ele><time>2026-04-26T07:28:52.069Z</time></trkpt><trkpt lat="45.83039" lon="8.6311767"><ele>260.40000000000003</ele><time>2026-04-26T07:28:53.069Z</time></trkpt><trkpt lat="45.8302967" lon="8.63114"><ele>259.8</ele><time>2026-04-26T07:28:54.069Z</time></trkpt><trkpt lat="45.8302233" lon="8.6311067"><ele>259.20000000000005</ele><time>2026-04-26T07:28:55.069Z</time></trkpt><trkpt lat="45.8301483" lon="8.6310917"><ele>258.6</ele><time>2026-04-26T07:28:56.069Z</time></trkpt><trkpt lat="45.830035" lon="8.6310867"><ele>258.0</ele><time>2026-04-26T07:28:58.069Z</time></trkpt><trkpt lat="45.8299317" lon="8.6311417"><ele>257.6666666666667</ele><time>2026-04-26T07:29:00.069Z</time></trkpt><trkpt lat="45.8298517" lon="8.6312133"><ele>257.3333333333333</ele><time>2026-04-26T07:29:02.069Z</time></trkpt><trkpt lat="45.8297733" lon="8.6312567"><ele>257.0</ele><time>2026-04-26T07:29:04.069Z</time></trkpt><trkpt lat="45.829705" lon="8.6312967"><ele>256.66666666666663</ele><time>2026-04-26T07:29:06.069Z</time></trkpt><trkpt lat="45.8296117" lon="8.63135"><ele>256.3333333333333</ele><time>2026-04-26T07:29:08.07Z</time></trkpt><trkpt lat="45.8295317" lon="8.63136"><ele>256.0</ele><time>2026-04-26T07:29:09.069Z</time></trkpt><trkpt lat="45.8294517" lon="8.6313667"><ele>256.0</ele><time>2026-04-26T07:29:10.069Z</time></trkpt><trkpt lat="45.8293717" lon="8.6313817"><ele>256.0</ele><time>2026-04-26T07:29:11.069Z</time></trkpt><trkpt lat="45.8292917" lon="8.6314067"><ele>256.0</ele><time>2026-04-26T07:29:12.069Z</time></trkpt><trkpt lat="45.82921" lon="8.63143"><ele>256.0</ele><time>2026-04-26T07:29:13.069Z</time></trkpt><trkpt lat="45.8291083" lon="8.6314383"><ele>256.0</ele><time>2026-04-26T07:29:14.069Z</time></trkpt><trkpt lat="45.8289817" lon="8.6314433"><ele>252.0</ele><time>2026-04-26T07:29:15.069Z</time></trkpt><trkpt lat="45.8288467" lon="8.6314717"><ele>248.0</ele><time>2026-04-26T07:29:16.069Z</time></trkpt><trkpt lat="45.82872" lon="8.6315183"><ele>244.0</ele><time>2026-04-26T07:29:17.069Z</time></trkpt><trkpt lat="45.8286067" lon="8.6315733"><ele>240.0</ele><time>2026-04-26T07:29:18.069Z</time></trkpt><trkpt lat="45.82851" lon="8.631635"><ele>238.16666666666666</ele><time>2026-04-26T07:29:19.069Z</time></trkpt><trkpt lat="45.82843" lon="8.6316983"><ele>236.33333333333331</ele><time>2026-04-26T07:29:20.069Z</time></trkpt><trkpt lat="45.8283717" lon="8.6317367"><ele>234.5</ele><time>2026-04-26T07:29:21.069Z</time></trkpt><trkpt lat="45.82831" lon="8.6317567"><ele>232.66666666666666</ele><time>2026-04-26T07:29:23.069Z</time></trkpt><trkpt lat="45.828225" lon="8.6316417"><ele>230.83333333333331</ele><time>2026-04-26T07:29:26.069Z</time></trkpt><trkpt lat="45.828175" lon="8.6315333"><ele>229.0</ele><time>2026-04-26T07:29:27.069Z</time></trkpt><trkpt lat="45.8281167" lon="8.6314267"><ele>229.0</ele><time>2026-04-26T07:29:28.069Z</time></trkpt><trkpt lat="45.82805" lon="8.6313217"><ele>228.99999999999997</ele><time>2026-04-26T07:29:29.069Z</time></trkpt><trkpt lat="45.8279833" lon="8.6312217"><ele>228.99999999999997</ele><time>2026-04-26T07:29:30.07Z</time></trkpt><trkpt lat="45.8279233" lon="8.631125"><ele>229.0</ele><time>2026-04-26T07:29:31.069Z</time></trkpt><trkpt lat="45.8278583" lon="8.6310317"><ele>229.0</ele><time>2026-04-26T07:29:32.069Z</time></trkpt><trkpt lat="45.8277883" lon="8.6309283"><ele>229.0</ele><time>2026-04-26T07:29:33.069Z</time></trkpt><trkpt lat="45.8277017" lon="8.6308267"><ele>228.99999999999997</ele><time>2026-04-26T07:29:34.069Z</time></trkpt><trkpt lat="45.827605" lon="8.630735"><ele>228.99999999999997</ele><time>2026-04-26T07:29:35.069Z</time></trkpt><trkpt lat="45.8275133" lon="8.6306683"><ele>229.0</ele><time>2026-04-26T07:29:36.069Z</time></trkpt><trkpt lat="45.8274183" lon="8.63058"><ele>229.0</ele><time>2026-04-26T07:29:37.069Z</time></trkpt><trkpt lat="45.8273267" lon="8.6304967"><ele>227.83333333333331</ele><time>2026-04-26T07:29:38.069Z</time></trkpt><trkpt lat="45.82726" lon="8.630425"><ele>226.66666666666666</ele><time>2026-04-26T07:29:39.069Z</time></trkpt><trkpt lat="45.8271883" lon="8.6303633"><ele>225.5</ele><time>2026-04-26T07:29:40.069Z</time></trkpt><trkpt lat="45.8271333" lon="8.6303"><ele>224.33333333333331</ele><time>2026-04-26T07:29:41.069Z</time></trkpt><trkpt lat="45.827085" lon="8.6302333"><ele>223.16666666666666</ele><time>2026-04-26T07:29:42.069Z</time></trkpt><trkpt lat="45.8269683" lon="8.63017"><ele>222.0</ele><time>2026-04-26T07:29:44.069Z</time></trkpt><trkpt lat="45.8269017" lon="8.6301483"><ele>221.0</ele><time>2026-04-26T07:29:45.07Z</time></trkpt><trkpt lat="45.8268283" lon="8.6301683"><ele>220.0</ele><time>2026-04-26T07:29:46.069Z</time></trkpt><trkpt lat="45.8267383" lon="8.6301717"><ele>219.0</ele><time>2026-04-26T07:29:47.069Z</time></trkpt><trkpt lat="45.8266433" lon="8.6302033"><ele>218.0</ele><time>2026-04-26T07:29:48.069Z</time></trkpt><trkpt lat="45.8265533" lon="8.630245"><ele>217.0</ele><time>2026-04-26T07:29:49.069Z</time></trkpt><trkpt lat="45.8264533" lon="8.6303"><ele>216.6</ele><time>2026-04-26T07:29:50.069Z</time></trkpt><trkpt lat="45.8263617" lon="8.630365"><ele>216.2</ele><time>2026-04-26T07:29:51.069Z</time></trkpt><trkpt lat="45.8262617" lon="8.630425"><ele>215.8</ele><time>2026-04-26T07:29:52.069Z</time></trkpt><trkpt lat="45.8261633" lon="8.630495"><ele>215.4</ele><time>2026-04-26T07:29:53.069Z</time></trkpt><trkpt lat="45.82606" lon="8.6305633"><ele>215.0</ele><time>2026-04-26T07:29:54.069Z</time></trkpt><trkpt lat="45.8259517" lon="8.6306433"><ele>214.6</ele><time>2026-04-26T07:29:55.069Z</time></trkpt><trkpt lat="45.8258517" lon="8.6307217"><ele>214.2</ele><time>2026-04-26T07:29:56.069Z</time></trkpt><trkpt lat="45.8257567" lon="8.6307967"><ele>213.8</ele><time>2026-04-26T07:29:57.069Z</time></trkpt><trkpt lat="45.82566" lon="8.630875"><ele>213.4</ele><time>2026-04-26T07:29:58.07Z</time></trkpt><trkpt lat="45.8255567" lon="8.6309417"><ele>213.0</ele><time>2026-04-26T07:29:59.069Z</time></trkpt><trkpt lat="45.8254533" lon="8.6310233"><ele>213.0</ele><time>2026-04-26T07:30:00.069Z</time></trkpt><trkpt lat="45.8253383" lon="8.6311183"><ele>213.0</ele><time>2026-04-26T07:30:01.069Z</time></trkpt><trkpt lat="45.8252217" lon="8.6312033"><ele>213.0</ele><time>2026-04-26T07:30:02.069Z</time></trkpt><trkpt lat="45.8250967" lon="8.6312983"><ele>213.0</ele><time>2026-04-26T07:30:03.069Z</time></trkpt><trkpt lat="45.8249733" lon="8.6313983"><ele>213.5</ele><time>2026-04-26T07:30:04.069Z</time></trkpt><trkpt lat="45.82484" lon="8.6314983"><ele>214.0</ele><time>2026-04-26T07:30:05.069Z</time></trkpt><trkpt lat="45.8247133" lon="8.631595"><ele>214.5</ele><time>2026-04-26T07:30:06.069Z</time></trkpt><trkpt lat="45.824595" lon="8.6316883"><ele>215.0</ele><time>2026-04-26T07:30:07.069Z</time></trkpt><trkpt lat="45.8244767" lon="8.6317817"><ele>215.0</ele><time>2026-04-26T07:30:08.069Z</time></trkpt><trkpt lat="45.824355" lon="8.63186"><ele>215.0</ele><time>2026-04-26T07:30:09.069Z</time></trkpt><trkpt lat="45.82424" lon="8.6319517"><ele>215.0</ele><time>2026-04-26T07:30:10.069Z</time></trkpt><trkpt lat="45.824135" lon="8.632035"><ele>215.0</ele><time>2026-04-26T07:30:11.069Z</time></trkpt><trkpt lat="45.824025" lon="8.632115"><ele>215.6</ele><time>2026-04-26T07:30:12.069Z</time></trkpt><trkpt lat="45.8239233" lon="8.63219"><ele>216.2</ele><time>2026-04-26T07:30:13.069Z</time></trkpt><trkpt lat="45.8238267" lon="8.632265"><ele>216.8</ele><time>2026-04-26T07:30:14.069Z</time></trkpt><trkpt lat="45.823745" lon="8.6323367"><ele>217.4</ele><time>2026-04-26T07:30:15.069Z</time></trkpt><trkpt lat="45.8236733" lon="8.6323933"><ele>218.0</ele><time>2026-04-26T07:30:16.069Z</time></trkpt><trkpt lat="45.82361" lon="8.6324567"><ele>218.00000000000003</ele><time>2026-04-26T07:30:17.069Z</time></trkpt><trkpt lat="45.8235417" lon="8.6324867"><ele>218.0</ele><time>2026-04-26T07:30:19.069Z</time></trkpt><trkpt lat="45.8234767" lon="8.6325317"><ele>218.0</ele><time>2026-04-26T07:30:22.069Z</time></trkpt><trkpt lat="45.8233817" lon="8.63251"><ele>218.0</ele><time>2026-04-26T07:30:25.069Z</time></trkpt><trkpt lat="45.8233367" lon="8.6324033"><ele>218.00000000000003</ele><time>2026-04-26T07:30:27.069Z</time></trkpt><trkpt lat="45.8232617" lon="8.632305"><ele>218.0</ele><time>2026-04-26T07:30:29.069Z</time></trkpt><trkpt lat="45.8232033" lon="8.63226"><ele>217.60000000000002</ele><time>2026-04-26T07:30:30.069Z</time></trkpt><trkpt lat="45.8231167" lon="8.6322183"><ele>217.20000000000002</ele><time>2026-04-26T07:30:31.069Z</time></trkpt><trkpt lat="45.82303" lon="8.6321683"><ele>216.8</ele><time>2026-04-26T07:30:32.069Z</time></trkpt><trkpt lat="45.822935" lon="8.6321217"><ele>216.4</ele><time>2026-04-26T07:30:33.069Z</time></trkpt><trkpt lat="45.8228367" lon="8.63207"><ele>216.0</ele><time>2026-04-26T07:30:34.069Z</time></trkpt><trkpt lat="45.8227383" lon="8.6320183"><ele>214.75</ele><time>2026-04-26T07:30:35.069Z</time></trkpt><trkpt lat="45.8226333" lon="8.631965"><ele>213.5</ele><time>2026-04-26T07:30:36.069Z</time></trkpt><trkpt lat="45.8225233" lon="8.6319133"><ele>212.25</ele><time>2026-04-26T07:30:37.069Z</time></trkpt><trkpt lat="45.8224133" lon="8.6318533"><ele>211.0</ele><time>2026-04-26T07:30:38.069Z</time></trkpt><trkpt lat="45.8223017" lon="8.631795"><ele>211.0</ele><time>2026-04-26T07:30:39.069Z</time></trkpt><trkpt lat="45.8221917" lon="8.6317417"><ele>211.0</ele><time>2026-04-26T07:30:40.069Z</time></trkpt><trkpt lat="45.8220783" lon="8.631685"><ele>211.0</ele><time>2026-04-26T07:30:41.069Z</time></trkpt><trkpt lat="45.8219767" lon="8.6316367"><ele>211.0</ele><time>2026-04-26T07:30:42.069Z</time></trkpt><trkpt lat="45.8218717" lon="8.63158"><ele>211.0</ele><time>2026-04-26T07:30:43.069Z</time></trkpt><trkpt lat="45.82177" lon="8.6315267"><ele>211.0</ele><time>2026-04-26T07:30:44.069Z</time></trkpt><trkpt lat="45.8216833" lon="8.6314767"><ele>211.0</ele><time>2026-04-26T07:30:45.069Z</time></trkpt><trkpt lat="45.821595" lon="8.631435"><ele>211.0</ele><time>2026-04-26T07:30:46.069Z</time></trkpt><trkpt lat="45.8215117" lon="8.6313917"><ele>211.0</ele><time>2026-04-26T07:30:47.069Z</time></trkpt><trkpt lat="45.8214417" lon="8.631355"><ele>210.99999999999997</ele><time>2026-04-26T07:30:48.069Z</time></trkpt><trkpt lat="45.82138" lon="8.6313233"><ele>211.0</ele><time>2026-04-26T07:30:49.069Z</time></trkpt><trkpt lat="45.8212833" lon="8.6312667"><ele>211.0</ele><time>2026-04-26T07:30:51.069Z</time></trkpt><trkpt lat="45.821205" lon="8.6312383"><ele>211.0</ele><time>2026-04-26T07:30:53.069Z</time></trkpt><trkpt lat="45.8211533" lon="8.6313717"><ele>210.99999999999997</ele><time>2026-04-26T07:30:58.069Z</time></trkpt><trkpt lat="45.8211717" lon="8.6314883"><ele>211.0</ele><time>2026-04-26T07:30:59.069Z</time></trkpt><trkpt lat="45.821205" lon="8.6316483"><ele>211.0</ele><time>2026-04-26T07:31:00.069Z</time></trkpt><trkpt lat="45.8212433" lon="8.63182"><ele>211.0</ele><time>2026-04-26T07:31:01.069Z</time></trkpt><trkpt lat="45.8212733" lon="8.6319883"><ele>211.0</ele><time>2026-04-26T07:31:02.069Z</time></trkpt><trkpt lat="45.8213183" lon="8.6321667"><ele>211.0</ele><time>2026-04-26T07:31:03.069Z</time></trkpt><trkpt lat="45.8213583" lon="8.6323467"><ele>211.25</ele><time>2026-04-26T07:31:04.069Z</time></trkpt><trkpt lat="45.8213917" lon="8.63253"><ele>211.5</ele><time>2026-04-26T07:31:05.069Z</time></trkpt><trkpt lat="45.82143" lon="8.6327083"><ele>211.75</ele><time>2026-04-26T07:31:06.069Z</time></trkpt><trkpt lat="45.8214617" lon="8.6328833"><ele>212.0</ele><time>2026-04-26T07:31:07.069Z</time></trkpt><trkpt lat="45.8214983" lon="8.6330483"><ele>212.0</ele><time>2026-04-26T07:31:08.07Z</time></trkpt><trkpt lat="45.82153" lon="8.6332083"><ele>212.0</ele><time>2026-04-26T07:31:09.07Z</time></trkpt><trkpt lat="45.821565" lon="8.633355"><ele>212.0</ele><time>2026-04-26T07:31:10.069Z</time></trkpt><trkpt lat="45.8215867" lon="8.6334967"><ele>212.0</ele><time>2026-04-26T07:31:11.069Z</time></trkpt><trkpt lat="45.8216083" lon="8.6336233"><ele>212.0</ele><time>2026-04-26T07:31:12.069Z</time></trkpt><trkpt lat="45.8216267" lon="8.6337383"><ele>212.0</ele><time>2026-04-26T07:31:13.069Z</time></trkpt><trkpt lat="45.8216483" lon="8.633825"><ele>212.0</ele><time>2026-04-26T07:31:14.069Z</time></trkpt><trkpt lat="45.8216383" lon="8.633945"><ele>212.0</ele><time>2026-04-26T07:31:16.069Z</time></trkpt><trkpt lat="45.8215283" lon="8.6340217"><ele>212.0</ele><time>2026-04-26T07:31:18.069Z</time></trkpt><trkpt lat="45.8214333" lon="8.634075"><ele>212.0</ele><time>2026-04-26T07:31:19.069Z</time></trkpt><trkpt lat="45.82133" lon="8.6341467"><ele>212.0</ele><time>2026-04-26T07:31:20.069Z</time></trkpt><trkpt lat="45.8212333" lon="8.63421"><ele>212.0</ele><time>2026-04-26T07:31:21.069Z</time></trkpt><trkpt lat="45.8211483" lon="8.6342783"><ele>212.0</ele><time>2026-04-26T07:31:22.069Z</time></trkpt><trkpt lat="45.821065" lon="8.6343367"><ele>212.0</ele><time>2026-04-26T07:31:23.069Z</time></trkpt><trkpt lat="45.8209867" lon="8.6344"><ele>212.0</ele><time>2026-04-26T07:31:24.07Z</time></trkpt><trkpt lat="45.8209067" lon="8.6344617"><ele>212.8</ele><time>2026-04-26T07:31:25.069Z</time></trkpt><trkpt lat="45.8208217" lon="8.63451"><ele>213.6</ele><time>2026-04-26T07:31:26.069Z</time></trkpt><trkpt lat="45.8207383" lon="8.6345667"><ele>214.40000000000003</ele><time>2026-04-26T07:31:27.069Z</time></trkpt><trkpt lat="45.8206417" lon="8.6346267"><ele>215.20000000000002</ele><time>2026-04-26T07:31:28.069Z</time></trkpt><trkpt lat="45.8205433" lon="8.6346983"><ele>216.0</ele><time>2026-04-26T07:31:29.069Z</time></trkpt><trkpt lat="45.820455" lon="8.634765"><ele>216.0</ele><time>2026-04-26T07:31:30.069Z</time></trkpt><trkpt lat="45.8203717" lon="8.6348283"><ele>216.0</ele><time>2026-04-26T07:31:31.069Z</time></trkpt><trkpt lat="45.8202917" lon="8.63489"><ele>216.0</ele><time>2026-04-26T07:31:32.069Z</time></trkpt><trkpt lat="45.8202117" lon="8.63495"><ele>216.0</ele><time>2026-04-26T07:31:33.069Z</time></trkpt><trkpt lat="45.8201317" lon="8.634995"><ele>216.0</ele><time>2026-04-26T07:31:34.069Z</time></trkpt><trkpt lat="45.8200483" lon="8.63503"><ele>216.0</ele><time>2026-04-26T07:31:35.069Z</time></trkpt><trkpt lat="45.8199717" lon="8.6350817"><ele>216.33333333333334</ele><time>2026-04-26T07:31:36.069Z</time></trkpt><trkpt lat="45.8199" lon="8.635135"><ele>216.66666666666669</ele><time>2026-04-26T07:31:37.069Z</time></trkpt><trkpt lat="45.8198317" lon="8.6351833"><ele>217.0</ele><time>2026-04-26T07:31:38.069Z</time></trkpt><trkpt lat="45.8197683" lon="8.6352317"><ele>217.33333333333334</ele><time>2026-04-26T07:31:39.069Z</time></trkpt><trkpt lat="45.8196583" lon="8.63531"><ele>217.66666666666669</ele><time>2026-04-26T07:31:41.069Z</time></trkpt><trkpt lat="45.8196" lon="8.6353467"><ele>218.0</ele><time>2026-04-26T07:31:42.069Z</time></trkpt><trkpt lat="45.8194867" lon="8.6354267"><ele>218.4</ele><time>2026-04-26T07:31:44.069Z</time></trkpt><trkpt lat="45.8194217" lon="8.6354683"><ele>218.8</ele><time>2026-04-26T07:31:45.069Z</time></trkpt><trkpt lat="45.8193483" lon="8.63552"><ele>219.2</ele><time>2026-04-26T07:31:46.069Z</time></trkpt><trkpt lat="45.8192633" lon="8.635575"><ele>219.6</ele><time>2026-04-26T07:31:47.069Z</time></trkpt><trkpt lat="45.8191683" lon="8.6356367"><ele>220.0</ele><time>2026-04-26T07:31:48.069Z</time></trkpt><trkpt lat="45.8190683" lon="8.6357033"><ele>219.8</ele><time>2026-04-26T07:31:49.069Z</time></trkpt><trkpt lat="45.8189767" lon="8.6357917"><ele>219.6</ele><time>2026-04-26T07:31:50.069Z</time></trkpt><trkpt lat="45.818885" lon="8.6358733"><ele>219.39999999999998</ele><time>2026-04-26T07:31:51.07Z</time></trkpt><trkpt lat="45.81879" lon="8.635955"><ele>219.2</ele><time>2026-04-26T07:31:52.069Z</time></trkpt><trkpt lat="45.818695" lon="8.6360533"><ele>219.0</ele><time>2026-04-26T07:31:53.069Z</time></trkpt><trkpt lat="45.8185967" lon="8.6361383"><ele>219.25</ele><time>2026-04-26T07:31:54.069Z</time></trkpt><trkpt lat="45.8184817" lon="8.6362317"><ele>219.5</ele><time>2026-04-26T07:31:55.069Z</time></trkpt><trkpt lat="45.8183617" lon="8.6363317"><ele>219.75</ele><time>2026-04-26T07:31:56.07Z</time></trkpt><trkpt lat="45.8182483" lon="8.6364283"><ele>220.0</ele><time>2026-04-26T07:31:57.07Z</time></trkpt><trkpt lat="45.8181383" lon="8.6365167"><ele>220.0</ele><time>2026-04-26T07:31:58.069Z</time></trkpt><trkpt lat="45.8180283" lon="8.6365933"><ele>220.0</ele><time>2026-04-26T07:31:59.069Z</time></trkpt><trkpt lat="45.8179183" lon="8.6366717"><ele>220.0</ele><time>2026-04-26T07:32:00.069Z</time></trkpt><trkpt lat="45.8177983" lon="8.6367533"><ele>220.0</ele><time>2026-04-26T07:32:01.069Z</time></trkpt><trkpt lat="45.8176867" lon="8.63683"><ele>219.5</ele><time>2026-04-26T07:32:02.069Z</time></trkpt><trkpt lat="45.8175833" lon="8.6369017"><ele>219.0</ele><time>2026-04-26T07:32:03.069Z</time></trkpt><trkpt lat="45.817475" lon="8.6369683"><ele>218.5</ele><time>2026-04-26T07:32:04.07Z</time></trkpt><trkpt lat="45.8173633" lon="8.63704"><ele>218.0</ele><time>2026-04-26T07:32:05.069Z</time></trkpt><trkpt lat="45.8172517" lon="8.6371183"><ele>218.0</ele><time>2026-04-26T07:32:06.069Z</time></trkpt><trkpt lat="45.8171467" lon="8.63722"><ele>218.0</ele><time>2026-04-26T07:32:07.069Z</time></trkpt><trkpt lat="45.8170333" lon="8.6373333"><ele>218.0</ele><time>2026-04-26T07:32:08.069Z</time></trkpt><trkpt lat="45.8169217" lon="8.6374383"><ele>218.0</ele><time>2026-04-26T07:32:09.07Z</time></trkpt><trkpt lat="45.816815" lon="8.6375333"><ele>217.25</ele><time>2026-04-26T07:32:10.07Z</time></trkpt><trkpt lat="45.8167033" lon="8.63762"><ele>216.5</ele><time>2026-04-26T07:32:11.069Z</time></trkpt><trkpt lat="45.8165967" lon="8.6376983"><ele>215.75</ele><time>2026-04-26T07:32:12.069Z</time></trkpt><trkpt lat="45.8165017" lon="8.63777"><ele>215.0</ele><time>2026-04-26T07:32:13.069Z</time></trkpt><trkpt lat="45.816415" lon="8.63784"><ele>215.00000000000003</ele><time>2026-04-26T07:32:14.069Z</time></trkpt><trkpt lat="45.8163333" lon="8.6379117"><ele>215.0</ele><time>2026-04-26T07:32:15.069Z</time></trkpt><trkpt lat="45.81626" lon="8.6379683"><ele>215.0</ele><time>2026-04-26T07:32:16.069Z</time></trkpt><trkpt lat="45.8161833" lon="8.6380167"><ele>215.0</ele><time>2026-04-26T07:32:17.07Z</time></trkpt><trkpt lat="45.816125" lon="8.63806"><ele>215.00000000000003</ele><time>2026-04-26T07:32:18.069Z</time></trkpt><trkpt lat="45.816065" lon="8.6381417"><ele>215.0</ele><time>2026-04-26T07:32:20.069Z</time></trkpt><trkpt lat="45.8160867" lon="8.6382817"><ele>215.00000000000003</ele><time>2026-04-26T07:32:22.069Z</time></trkpt><trkpt lat="45.8161267" lon="8.6383683"><ele>215.0</ele><time>2026-04-26T07:32:23.069Z</time></trkpt><trkpt lat="45.8161617" lon="8.63848"><ele>215.0</ele><time>2026-04-26T07:32:24.069Z</time></trkpt><trkpt lat="45.8161783" lon="8.6385867"><ele>215.0</ele><time>2026-04-26T07:32:25.069Z</time></trkpt><trkpt lat="45.8161917" lon="8.63869"><ele>215.00000000000003</ele><time>2026-04-26T07:32:26.069Z</time></trkpt><trkpt lat="45.8162167" lon="8.6388167"><ele>215.0</ele><time>2026-04-26T07:32:27.07Z</time></trkpt><trkpt lat="45.816255" lon="8.6389567"><ele>215.6</ele><time>2026-04-26T07:32:28.069Z</time></trkpt><trkpt lat="45.81629" lon="8.63909"><ele>216.2</ele><time>2026-04-26T07:32:29.069Z</time></trkpt><trkpt lat="45.8163167" lon="8.6392333"><ele>216.8</ele><time>2026-04-26T07:32:30.069Z</time></trkpt><trkpt lat="45.816335" lon="8.639395"><ele>217.4</ele><time>2026-04-26T07:32:31.069Z</time></trkpt><trkpt lat="45.8163533" lon="8.6395633"><ele>218.0</ele><time>2026-04-26T07:32:32.069Z</time></trkpt><trkpt lat="45.8163717" lon="8.6397167"><ele>218.66666666666669</ele><time>2026-04-26T07:32:33.069Z</time></trkpt><trkpt lat="45.81639" lon="8.6398567"><ele>219.33333333333334</ele><time>2026-04-26T07:32:34.069Z</time></trkpt><trkpt lat="45.8163967" lon="8.6399933"><ele>220.0</ele><time>2026-04-26T07:32:35.069Z</time></trkpt><trkpt lat="45.8164" lon="8.6401033"><ele>220.66666666666669</ele><time>2026-04-26T07:32:36.069Z</time></trkpt><trkpt lat="45.81641" lon="8.640195"><ele>221.33333333333334</ele><time>2026-04-26T07:32:37.069Z</time></trkpt><trkpt lat="45.8164717" lon="8.6403183"><ele>222.0</ele><time>2026-04-26T07:32:39.069Z</time></trkpt><trkpt lat="45.816545" lon="8.640345"><ele>222.0</ele><time>2026-04-26T07:32:40.069Z</time></trkpt><trkpt lat="45.8166417" lon="8.6403583"><ele>222.0</ele><time>2026-04-26T07:32:41.069Z</time></trkpt><trkpt lat="45.8167617" lon="8.6403667"><ele>222.0</ele><time>2026-04-26T07:32:42.07Z</time></trkpt><trkpt lat="45.81689" lon="8.6403833"><ele>222.0</ele><time>2026-04-26T07:32:43.069Z</time></trkpt><trkpt lat="45.8169983" lon="8.640395"><ele>221.6</ele><time>2026-04-26T07:32:44.069Z</time></trkpt><trkpt lat="45.817095" lon="8.640415"><ele>221.2</ele><time>2026-04-26T07:32:45.069Z</time></trkpt><trkpt lat="45.8171717" lon="8.6404483"><ele>220.8</ele><time>2026-04-26T07:32:46.069Z</time></trkpt><trkpt lat="45.817225" lon="8.6404967"><ele>220.4</ele><time>2026-04-26T07:32:47.069Z</time></trkpt><trkpt lat="45.8173033" lon="8.6406567"><ele>220.0</ele><time>2026-04-26T07:32:49.069Z</time></trkpt><trkpt lat="45.8173217" lon="8.6407733"><ele>219.99999999999997</ele><time>2026-04-26T07:32:50.069Z</time></trkpt><trkpt lat="45.8173417" lon="8.64088"><ele>220.0</ele><time>2026-04-26T07:32:51.069Z</time></trkpt><trkpt lat="45.8173533" lon="8.640975"><ele>220.0</ele><time>2026-04-26T07:32:52.069Z</time></trkpt><trkpt lat="45.8173667" lon="8.641095"><ele>220.0</ele><time>2026-04-26T07:32:54.069Z</time></trkpt><trkpt lat="45.81737" lon="8.6412183"><ele>219.99999999999997</ele><time>2026-04-26T07:32:57.069Z</time></trkpt><trkpt lat="45.8173517" lon="8.641305"><ele>220.0</ele><time>2026-04-26T07:32:59.069Z</time></trkpt><trkpt lat="45.8173933" lon="8.6414017"><ele>219.83333333333331</ele><time>2026-04-26T07:33:03.069Z</time></trkpt><trkpt lat="45.8174333" lon="8.6415067"><ele>219.66666666666666</ele><time>2026-04-26T07:33:06.069Z</time></trkpt><trkpt lat="45.8174517" lon="8.64162"><ele>219.5</ele><time>2026-04-26T07:33:09.069Z</time></trkpt><trkpt lat="45.8174267" lon="8.6417233"><ele>219.33333333333331</ele><time>2026-04-26T07:33:12.069Z</time></trkpt><trkpt lat="45.8173983" lon="8.6418067"><ele>219.16666666666666</ele><time>2026-04-26T07:33:14.069Z</time></trkpt><trkpt lat="45.81735" lon="8.64191"><ele>219.0</ele><time>2026-04-26T07:33:16.069Z</time></trkpt><trkpt lat="45.817245" lon="8.642005"><ele>219.39999999999998</ele><time>2026-04-26T07:33:18.069Z</time></trkpt><trkpt lat="45.81718" lon="8.6420333"><ele>219.79999999999998</ele><time>2026-04-26T07:33:19.069Z</time></trkpt><trkpt lat="45.8170617" lon="8.6420717"><ele>220.20000000000002</ele><time>2026-04-26T07:33:21.069Z</time></trkpt><trkpt lat="45.816975" lon="8.6421133"><ele>220.60000000000002</ele><time>2026-04-26T07:33:23.069Z</time></trkpt><trkpt lat="45.8169267" lon="8.6422233"><ele>221.0</ele><time>2026-04-26T07:33:26.069Z</time></trkpt><trkpt lat="45.81693" lon="8.6423917"><ele>221.00000000000003</ele><time>2026-04-26T07:33:28.07Z</time></trkpt><trkpt lat="45.81693" lon="8.6425067"><ele>221.0</ele><time>2026-04-26T07:33:29.069Z</time></trkpt><trkpt lat="45.816935" lon="8.64262"><ele>221.0</ele><time>2026-04-26T07:33:30.07Z</time></trkpt><trkpt lat="45.816935" lon="8.6427233"><ele>221.0</ele><time>2026-04-26T07:33:31.069Z</time></trkpt><trkpt lat="45.8169333" lon="8.642825"><ele>221.00000000000003</ele><time>2026-04-26T07:33:32.069Z</time></trkpt><trkpt lat="45.8169317" lon="8.64293"><ele>221.0</ele><time>2026-04-26T07:33:33.069Z</time></trkpt><trkpt lat="45.8169383" lon="8.6430383"><ele>221.16666666666669</ele><time>2026-04-26T07:33:34.069Z</time></trkpt><trkpt lat="45.8169417" lon="8.6431417"><ele>221.33333333333334</ele><time>2026-04-26T07:33:35.069Z</time></trkpt><trkpt lat="45.8169433" lon="8.6432417"><ele>221.5</ele><time>2026-04-26T07:33:36.069Z</time></trkpt><trkpt lat="45.81695" lon="8.6433583"><ele>221.66666666666669</ele><time>2026-04-26T07:33:37.069Z</time></trkpt><trkpt lat="45.8169467" lon="8.64347"><ele>221.83333333333334</ele><time>2026-04-26T07:33:38.069Z</time></trkpt><trkpt lat="45.8169417" lon="8.6435833"><ele>222.0</ele><time>2026-04-26T07:33:39.069Z</time></trkpt><trkpt lat="45.8169383" lon="8.6436883"><ele>222.0</ele><time>2026-04-26T07:33:40.069Z</time></trkpt><trkpt lat="45.8169383" lon="8.6438383"><ele>222.0</ele><time>2026-04-26T07:33:42.069Z</time></trkpt><trkpt lat="45.8169583" lon="8.6439683"><ele>222.0</ele><time>2026-04-26T07:33:44.069Z</time></trkpt><trkpt lat="45.816885" lon="8.643965"><ele>222.0</ele><time>2026-04-26T07:33:46.069Z</time></trkpt><trkpt lat="45.8168" lon="8.6439133"><ele>222.0</ele><time>2026-04-26T07:33:47.069Z</time></trkpt><trkpt lat="45.8167033" lon="8.6438617"><ele>222.0</ele><time>2026-04-26T07:33:48.069Z</time></trkpt><trkpt lat="45.8165983" lon="8.6438033"><ele>222.0</ele><time>2026-04-26T07:33:49.069Z</time></trkpt><trkpt lat="45.8164867" lon="8.6437367"><ele>222.0</ele><time>2026-04-26T07:33:50.069Z</time></trkpt><trkpt lat="45.8163717" lon="8.64366"><ele>222.0</ele><time>2026-04-26T07:33:51.069Z</time></trkpt><trkpt lat="45.8162517" lon="8.6435783"><ele>221.5</ele><time>2026-04-26T07:33:52.069Z</time></trkpt><trkpt lat="45.816135" lon="8.643485"><ele>221.0</ele><time>2026-04-26T07:33:53.069Z</time></trkpt><trkpt lat="45.81602" lon="8.6433817"><ele>220.5</ele><time>2026-04-26T07:33:54.069Z</time></trkpt><trkpt lat="45.8159117" lon="8.64327"><ele>220.0</ele><time>2026-04-26T07:33:55.069Z</time></trkpt><trkpt lat="45.8158083" lon="8.6431667"><ele>220.0</ele><time>2026-04-26T07:33:56.069Z</time></trkpt><trkpt lat="45.815695" lon="8.6430617"><ele>220.0</ele><time>2026-04-26T07:33:57.069Z</time></trkpt><trkpt lat="45.8156067" lon="8.6429317"><ele>220.0</ele><time>2026-04-26T07:33:58.069Z</time></trkpt><trkpt lat="45.815485" lon="8.6428217"><ele>220.0</ele><time>2026-04-26T07:33:59.069Z</time></trkpt><trkpt lat="45.8153567" lon="8.642705"><ele>220.5</ele><time>2026-04-26T07:34:00.069Z</time></trkpt><trkpt lat="45.8152317" lon="8.6425917"><ele>221.0</ele><time>2026-04-26T07:34:01.07Z</time></trkpt><trkpt lat="45.8151183" lon="8.6424917"><ele>221.5</ele><time>2026-04-26T07:34:02.069Z</time></trkpt><trkpt lat="45.8150033" lon="8.6423917"><ele>222.0</ele><time>2026-04-26T07:34:03.07Z</time></trkpt><trkpt lat="45.8148967" lon="8.642295"><ele>222.25</ele><time>2026-04-26T07:34:04.069Z</time></trkpt><trkpt lat="45.8147867" lon="8.6422067"><ele>222.5</ele><time>2026-04-26T07:34:05.069Z</time></trkpt><trkpt lat="45.8146767" lon="8.6421267"><ele>222.75</ele><time>2026-04-26T07:34:06.069Z</time></trkpt><trkpt lat="45.81457" lon="8.64206"><ele>223.0</ele><time>2026-04-26T07:34:07.069Z</time></trkpt><trkpt lat="45.814465" lon="8.6420017"><ele>222.8</ele><time>2026-04-26T07:34:08.069Z</time></trkpt><trkpt lat="45.8143633" lon="8.64196"><ele>222.60000000000002</ele><time>2026-04-26T07:34:09.069Z</time></trkpt><trkpt lat="45.8142633" lon="8.6419283"><ele>222.39999999999998</ele><time>2026-04-26T07:34:10.069Z</time></trkpt><trkpt lat="45.8141517" lon="8.6418883"><ele>222.2</ele><time>2026-04-26T07:34:11.069Z</time></trkpt><trkpt lat="45.8140533" lon="8.6418617"><ele>222.0</ele><time>2026-04-26T07:34:12.069Z</time></trkpt><trkpt lat="45.81396" lon="8.6418483"><ele>221.0</ele><time>2026-04-26T07:34:13.069Z</time></trkpt><trkpt lat="45.8138867" lon="8.6418333"><ele>220.0</ele><time>2026-04-26T07:34:14.069Z</time></trkpt><trkpt lat="45.813815" lon="8.6418317"><ele>219.0</ele><time>2026-04-26T07:34:15.07Z</time></trkpt><trkpt lat="45.813745" lon="8.64184"><ele>218.0</ele><time>2026-04-26T07:34:16.069Z</time></trkpt><trkpt lat="45.8136767" lon="8.6418583"><ele>217.0</ele><time>2026-04-26T07:34:17.069Z</time></trkpt><trkpt lat="45.8136017" lon="8.64188"><ele>216.0</ele><time>2026-04-26T07:34:18.07Z</time></trkpt><trkpt lat="45.8135317" lon="8.6419083"><ele>215.0</ele><time>2026-04-26T07:34:19.069Z</time></trkpt><trkpt lat="45.8134533" lon="8.6419583"><ele>215.25</ele><time>2026-04-26T07:34:20.069Z</time></trkpt><trkpt lat="45.8133533" lon="8.6420267"><ele>215.5</ele><time>2026-04-26T07:34:21.069Z</time></trkpt><trkpt lat="45.81324" lon="8.6420967"><ele>215.75</ele><time>2026-04-26T07:34:22.069Z</time></trkpt><trkpt lat="45.8131267" lon="8.64217"><ele>216.0</ele><time>2026-04-26T07:34:23.069Z</time></trkpt><trkpt lat="45.8130067" lon="8.6422467"><ele>216.0</ele><time>2026-04-26T07:34:24.069Z</time></trkpt><trkpt lat="45.812895" lon="8.6423233"><ele>216.0</ele><time>2026-04-26T07:34:25.069Z</time></trkpt><trkpt lat="45.8127733" lon="8.6423967"><ele>216.0</ele><time>2026-04-26T07:34:26.069Z</time></trkpt><trkpt lat="45.8126433" lon="8.6424633"><ele>216.0</ele><time>2026-04-26T07:34:27.069Z</time></trkpt><trkpt lat="45.812525" lon="8.6425217"><ele>218.0</ele><time>2026-04-26T07:34:28.069Z</time></trkpt><trkpt lat="45.8123967" lon="8.64259"><ele>220.0</ele><time>2026-04-26T07:34:29.07Z</time></trkpt><trkpt lat="45.812275" lon="8.6426617"><ele>222.0</ele><time>2026-04-26T07:34:30.069Z</time></trkpt><trkpt lat="45.8121417" lon="8.642725"><ele>224.0</ele><time>2026-04-26T07:34:31.069Z</time></trkpt><trkpt lat="45.8120117" lon="8.642795"><ele>224.5</ele><time>2026-04-26T07:34:32.069Z</time></trkpt><trkpt lat="45.811875" lon="8.642865"><ele>225.0</ele><time>2026-04-26T07:34:33.069Z</time></trkpt><trkpt lat="45.8117417" lon="8.6429367"><ele>225.5</ele><time>2026-04-26T07:34:34.069Z</time></trkpt><trkpt lat="45.8116033" lon="8.6430033"><ele>226.0</ele><time>2026-04-26T07:34:35.069Z</time></trkpt><trkpt lat="45.8114533" lon="8.64308"><ele>227.0</ele><time>2026-04-26T07:34:36.069Z</time></trkpt><trkpt lat="45.8113183" lon="8.6431483"><ele>228.0</ele><time>2026-04-26T07:34:37.069Z</time></trkpt><trkpt lat="45.8111683" lon="8.6432367"><ele>229.0</ele><time>2026-04-26T07:34:38.069Z</time></trkpt><trkpt lat="45.811015" lon="8.6433367"><ele>228.33333333333331</ele><time>2026-04-26T07:34:39.069Z</time></trkpt><trkpt lat="45.810865" lon="8.6434267"><ele>227.66666666666669</ele><time>2026-04-26T07:34:40.069Z</time></trkpt><trkpt lat="45.8107233" lon="8.6435017"><ele>227.0</ele><time>2026-04-26T07:34:41.069Z</time></trkpt><trkpt lat="45.81059" lon="8.6435667"><ele>227.33333333333334</ele><time>2026-04-26T07:34:42.069Z</time></trkpt><trkpt lat="45.8104517" lon="8.643635"><ele>227.66666666666669</ele><time>2026-04-26T07:34:43.069Z</time></trkpt><trkpt lat="45.8103" lon="8.6437317"><ele>228.0</ele><time>2026-04-26T07:34:44.069Z</time></trkpt><trkpt lat="45.8101517" lon="8.643825"><ele>228.33333333333331</ele><time>2026-04-26T07:34:45.069Z</time></trkpt><trkpt lat="45.8100117" lon="8.6438967"><ele>228.66666666666666</ele><time>2026-04-26T07:34:46.069Z</time></trkpt><trkpt lat="45.809865" lon="8.6439767"><ele>229.0</ele><time>2026-04-26T07:34:47.069Z</time></trkpt><trkpt lat="45.8097217" lon="8.644055"><ele>229.0</ele><time>2026-04-26T07:34:48.069Z</time></trkpt><trkpt lat="45.80957" lon="8.64413"><ele>229.0</ele><time>2026-04-26T07:34:49.069Z</time></trkpt><trkpt lat="45.80943" lon="8.6442133"><ele>229.0</ele><time>2026-04-26T07:34:50.069Z</time></trkpt><trkpt lat="45.8092883" lon="8.6442883"><ele>228.25</ele><time>2026-04-26T07:34:51.069Z</time></trkpt><trkpt lat="45.8091567" lon="8.64435"><ele>227.5</ele><time>2026-04-26T07:34:52.069Z</time></trkpt><trkpt lat="45.8090233" lon="8.6444117"><ele>226.75</ele><time>2026-04-26T07:34:53.069Z</time></trkpt><trkpt lat="45.808885" lon="8.6444733"><ele>226.0</ele><time>2026-04-26T07:34:54.069Z</time></trkpt><trkpt lat="45.8087467" lon="8.6445267"><ele>226.66666666666666</ele><time>2026-04-26T07:34:55.069Z</time></trkpt><trkpt lat="45.8085967" lon="8.644585"><ele>227.33333333333331</ele><time>2026-04-26T07:34:56.069Z</time></trkpt><trkpt lat="45.808445" lon="8.6446283"><ele>228.0</ele><time>2026-04-26T07:34:57.069Z</time></trkpt><trkpt lat="45.8082917" lon="8.6446567"><ele>228.0</ele><time>2026-04-26T07:34:58.069Z</time></trkpt><trkpt lat="45.80813" lon="8.6446733"><ele>228.0</ele><time>2026-04-26T07:34:59.07Z</time></trkpt><trkpt lat="45.80797" lon="8.6446683"><ele>228.0</ele><time>2026-04-26T07:35:00.069Z</time></trkpt><trkpt lat="45.80782" lon="8.64464"><ele>228.0</ele><time>2026-04-26T07:35:01.069Z</time></trkpt><trkpt lat="45.80767" lon="8.6445983"><ele>228.0</ele><time>2026-04-26T07:35:02.069Z</time></trkpt><trkpt lat="45.807535" lon="8.6445317"><ele>228.0</ele><time>2026-04-26T07:35:03.069Z</time></trkpt><trkpt lat="45.807415" lon="8.6444467"><ele>228.0</ele><time>2026-04-26T07:35:04.069Z</time></trkpt><trkpt lat="45.8072917" lon="8.6443517"><ele>230.2</ele><time>2026-04-26T07:35:05.069Z</time></trkpt><trkpt lat="45.807185" lon="8.6442583"><ele>232.4</ele><time>2026-04-26T07:35:06.069Z</time></trkpt><trkpt lat="45.8071" lon="8.6441817"><ele>234.59999999999997</ele><time>2026-04-26T07:35:07.069Z</time></trkpt><trkpt lat="45.8070317" lon="8.6441217"><ele>236.79999999999998</ele><time>2026-04-26T07:35:08.07Z</time></trkpt><trkpt lat="45.8069733" lon="8.6440717"><ele>239.0</ele><time>2026-04-26T07:35:09.069Z</time></trkpt><trkpt lat="45.8068983" lon="8.6439917"><ele>239.00000000000003</ele><time>2026-04-26T07:35:11.069Z</time></trkpt><trkpt lat="45.806855" lon="8.6439017"><ele>239.0</ele><time>2026-04-26T07:35:14.069Z</time></trkpt><trkpt lat="45.8068367" lon="8.6437767"><ele>239.0</ele><time>2026-04-26T07:35:26.069Z</time></trkpt><trkpt lat="45.806815" lon="8.643665"><ele>239.0</ele><time>2026-04-26T07:35:28.07Z</time></trkpt><trkpt lat="45.80683" lon="8.6435367"><ele>239.00000000000003</ele><time>2026-04-26T07:35:30.069Z</time></trkpt><trkpt lat="45.8068417" lon="8.64344"><ele>239.0</ele><time>2026-04-26T07:35:32.069Z</time></trkpt><trkpt lat="45.8068467" lon="8.6433367"><ele>238.6</ele><time>2026-04-26T07:35:35.069Z</time></trkpt><trkpt lat="45.8068433" lon="8.6432417"><ele>238.2</ele><time>2026-04-26T07:38:41.069Z</time></trkpt><trkpt lat="45.806865" lon="8.6431267"><ele>237.79999999999998</ele><time>2026-04-26T07:46:03.068Z</time></trkpt><trkpt lat="45.8068667" lon="8.6429017"><ele>237.39999999999998</ele><time>2026-04-26T07:46:05.068Z</time></trkpt><trkpt lat="45.8068583" lon="8.642745"><ele>237.0</ele><time>2026-04-26T07:46:06.068Z</time></trkpt><trkpt lat="45.8068517" lon="8.6425867"><ele>236.6</ele><time>2026-04-26T07:46:07.068Z</time></trkpt><trkpt lat="45.8068417" lon="8.64244"><ele>236.2</ele><time>2026-04-26T07:46:08.068Z</time></trkpt><trkpt lat="45.8068467" lon="8.6422933"><ele>235.8</ele><time>2026-04-26T07:46:09.068Z</time></trkpt><trkpt lat="45.8068617" lon="8.64215"><ele>235.4</ele><time>2026-04-26T07:46:10.068Z</time></trkpt><trkpt lat="45.80687" lon="8.64203"><ele>235.0</ele><time>2026-04-26T07:46:11.068Z</time></trkpt><trkpt lat="45.806875" lon="8.6419233"><ele>234.99999999999997</ele><time>2026-04-26T07:46:12.068Z</time></trkpt><trkpt lat="45.8068767" lon="8.64181"><ele>235.0</ele><time>2026-04-26T07:46:13.068Z</time></trkpt><trkpt lat="45.8068683" lon="8.6417033"><ele>235.0</ele><time>2026-04-26T07:46:14.068Z</time></trkpt><trkpt lat="45.80686" lon="8.6415983"><ele>235.0</ele><time>2026-04-26T07:46:15.068Z</time></trkpt><trkpt lat="45.8068317" lon="8.6414917"><ele>234.99999999999997</ele><time>2026-04-26T07:46:16.068Z</time></trkpt><trkpt lat="45.806785" lon="8.64138"><ele>235.0</ele><time>2026-04-26T07:46:17.068Z</time></trkpt><trkpt lat="45.80674" lon="8.6412667"><ele>236.8</ele><time>2026-04-26T07:46:18.068Z</time></trkpt><trkpt lat="45.8067" lon="8.64116"><ele>238.6</ele><time>2026-04-26T07:46:19.068Z</time></trkpt><trkpt lat="45.80666" lon="8.6410533"><ele>240.39999999999998</ele><time>2026-04-26T07:46:20.068Z</time></trkpt><trkpt lat="45.806615" lon="8.6409317"><ele>242.2</ele><time>2026-04-26T07:46:21.068Z</time></trkpt><trkpt lat="45.8065683" lon="8.6408067"><ele>244.0</ele><time>2026-04-26T07:46:22.068Z</time></trkpt><trkpt lat="45.806525" lon="8.6406833"><ele>244.0</ele><time>2026-04-26T07:46:23.068Z</time></trkpt><trkpt lat="45.806475" lon="8.640565"><ele>243.99999999999997</ele><time>2026-04-26T07:46:24.068Z</time></trkpt><trkpt lat="45.8064133" lon="8.640465"><ele>243.99999999999997</ele><time>2026-04-26T07:46:25.069Z</time></trkpt><trkpt lat="45.806345" lon="8.640375"><ele>244.0</ele><time>2026-04-26T07:46:26.068Z</time></trkpt><trkpt lat="45.8062917" lon="8.64026"><ele>244.0</ele><time>2026-04-26T07:46:27.068Z</time></trkpt><trkpt lat="45.8062283" lon="8.6401467"><ele>242.75</ele><time>2026-04-26T07:46:28.068Z</time></trkpt><trkpt lat="45.806155" lon="8.64002"><ele>241.5</ele><time>2026-04-26T07:46:29.068Z</time></trkpt><trkpt lat="45.8060883" lon="8.639875"><ele>240.25</ele><time>2026-04-26T07:46:30.068Z</time></trkpt><trkpt lat="45.806005" lon="8.63975"><ele>239.0</ele><time>2026-04-26T07:46:31.068Z</time></trkpt><trkpt lat="45.805925" lon="8.6396283"><ele>240.00000000000003</ele><time>2026-04-26T07:46:32.068Z</time></trkpt><trkpt lat="45.8058517" lon="8.63953"><ele>241.0</ele><time>2026-04-26T07:46:33.068Z</time></trkpt><trkpt lat="45.8057833" lon="8.6394483"><ele>242.0</ele><time>2026-04-26T07:46:34.068Z</time></trkpt><trkpt lat="45.8057267" lon="8.6393833"><ele>243.0</ele><time>2026-04-26T07:46:35.068Z</time></trkpt><trkpt lat="45.8056767" lon="8.6393067"><ele>244.00000000000003</ele><time>2026-04-26T07:46:36.068Z</time></trkpt><trkpt lat="45.8056317" lon="8.6392067"><ele>245.0</ele><time>2026-04-26T07:46:37.068Z</time></trkpt><trkpt lat="45.8055867" lon="8.6390833"><ele>245.0</ele><time>2026-04-26T07:46:38.068Z</time></trkpt><trkpt lat="45.8055567" lon="8.6389433"><ele>245.0</ele><time>2026-04-26T07:46:39.068Z</time></trkpt><trkpt lat="45.8055367" lon="8.638825"><ele>245.0</ele><time>2026-04-26T07:46:40.068Z</time></trkpt><trkpt lat="45.8055083" lon="8.6387133"><ele>245.0</ele><time>2026-04-26T07:46:41.068Z</time></trkpt><trkpt lat="45.805465" lon="8.6386033"><ele>245.0</ele><time>2026-04-26T07:46:42.068Z</time></trkpt><trkpt lat="45.805405" lon="8.6384933"><ele>244.4</ele><time>2026-04-26T07:46:43.068Z</time></trkpt><trkpt lat="45.805335" lon="8.6384033"><ele>243.8</ele><time>2026-04-26T07:46:44.068Z</time></trkpt><trkpt lat="45.8052617" lon="8.6383333"><ele>243.2</ele><time>2026-04-26T07:46:45.068Z</time></trkpt><trkpt lat="45.80519" lon="8.63828"><ele>242.6</ele><time>2026-04-26T07:46:46.068Z</time></trkpt><trkpt lat="45.8051033" lon="8.6382433"><ele>242.0</ele><time>2026-04-26T07:46:47.068Z</time></trkpt><trkpt lat="45.805005" lon="8.6382083"><ele>243.6</ele><time>2026-04-26T07:46:48.068Z</time></trkpt><trkpt lat="45.804915" lon="8.6381617"><ele>245.2</ele><time>2026-04-26T07:46:49.068Z</time></trkpt><trkpt lat="45.8048417" lon="8.6381033"><ele>246.8</ele><time>2026-04-26T07:46:50.068Z</time></trkpt><trkpt lat="45.8047667" lon="8.6380267"><ele>248.4</ele><time>2026-04-26T07:46:51.068Z</time></trkpt><trkpt lat="45.8046817" lon="8.637935"><ele>250.0</ele><time>2026-04-26T07:46:52.069Z</time></trkpt><trkpt lat="45.8046017" lon="8.6378383"><ele>250.2</ele><time>2026-04-26T07:46:53.068Z</time></trkpt><trkpt lat="45.8045217" lon="8.63775"><ele>250.4</ele><time>2026-04-26T07:46:54.068Z</time></trkpt><trkpt lat="45.804455" lon="8.6376783"><ele>250.60000000000002</ele><time>2026-04-26T07:46:55.068Z</time></trkpt><trkpt lat="45.8043833" lon="8.6376183"><ele>250.8</ele><time>2026-04-26T07:46:56.068Z</time></trkpt><trkpt lat="45.8042833" lon="8.63756"><ele>251.0</ele><time>2026-04-26T07:46:57.068Z</time></trkpt><trkpt lat="45.8041667" lon="8.6375"><ele>251.0</ele><time>2026-04-26T07:46:58.068Z</time></trkpt><trkpt lat="45.8040567" lon="8.637445"><ele>251.00000000000003</ele><time>2026-04-26T07:46:59.068Z</time></trkpt><trkpt lat="45.8039417" lon="8.6373983"><ele>251.00000000000003</ele><time>2026-04-26T07:47:00.068Z</time></trkpt><trkpt lat="45.8038417" lon="8.6373317"><ele>251.0</ele><time>2026-04-26T07:47:01.068Z</time></trkpt><trkpt lat="45.8037633" lon="8.637275"><ele>251.0</ele><time>2026-04-26T07:47:02.068Z</time></trkpt><trkpt lat="45.8036933" lon="8.6372267"><ele>251.00000000000003</ele><time>2026-04-26T07:47:03.068Z</time></trkpt><trkpt lat="45.803635" lon="8.6371817"><ele>251.0</ele><time>2026-04-26T07:47:04.068Z</time></trkpt><trkpt lat="45.8035633" lon="8.6370967"><ele>251.0</ele><time>2026-04-26T07:47:06.068Z</time></trkpt><trkpt lat="45.8035783" lon="8.6369983"><ele>251.0</ele><time>2026-04-26T07:47:08.068Z</time></trkpt><trkpt lat="45.8036167" lon="8.636925"><ele>251.00000000000003</ele><time>2026-04-26T07:47:09.068Z</time></trkpt><trkpt lat="45.8036617" lon="8.63685"><ele>251.0</ele><time>2026-04-26T07:47:10.069Z</time></trkpt><trkpt lat="45.8037167" lon="8.6367067"><ele>248.5</ele><time>2026-04-26T07:47:12.068Z</time></trkpt><trkpt lat="45.8036683" lon="8.6365333"><ele>246.0</ele><time>2026-04-26T07:47:14.068Z</time></trkpt><trkpt lat="45.803615" lon="8.6364217"><ele>243.5</ele><time>2026-04-26T07:47:15.068Z</time></trkpt><trkpt lat="45.8035467" lon="8.636275"><ele>241.0</ele><time>2026-04-26T07:47:16.068Z</time></trkpt><trkpt lat="45.8034683" lon="8.6361267"><ele>241.0</ele><time>2026-04-26T07:47:17.069Z</time></trkpt><trkpt lat="45.803395" lon="8.6359767"><ele>241.00000000000003</ele><time>2026-04-26T07:47:18.068Z</time></trkpt><trkpt lat="45.803325" lon="8.63585"><ele>241.00000000000003</ele><time>2026-04-26T07:47:19.068Z</time></trkpt><trkpt lat="45.8032583" lon="8.63575"><ele>241.0</ele><time>2026-04-26T07:47:20.068Z</time></trkpt><trkpt lat="45.803195" lon="8.635655"><ele>241.0</ele><time>2026-04-26T07:47:21.068Z</time></trkpt><trkpt lat="45.8031333" lon="8.6355733"><ele>240.99999999999997</ele><time>2026-04-26T07:47:22.068Z</time></trkpt><trkpt lat="45.80308" lon="8.6355067"><ele>241.0</ele><time>2026-04-26T07:47:23.068Z</time></trkpt><trkpt lat="45.8029967" lon="8.6354267"><ele>241.0</ele><time>2026-04-26T07:47:25.068Z</time></trkpt><trkpt lat="45.8029567" lon="8.6353267"><ele>241.0</ele><time>2026-04-26T07:47:27.068Z</time></trkpt><trkpt lat="45.80293" lon="8.6351983"><ele>240.99999999999997</ele><time>2026-04-26T07:47:29.068Z</time></trkpt><trkpt lat="45.8029083" lon="8.63511"><ele>241.0</ele><time>2026-04-26T07:47:30.068Z</time></trkpt><trkpt lat="45.8028583" lon="8.6349617"><ele>240.16666666666666</ele><time>2026-04-26T07:47:32.068Z</time></trkpt><trkpt lat="45.80282" lon="8.6348833"><ele>239.33333333333331</ele><time>2026-04-26T07:47:33.068Z</time></trkpt><trkpt lat="45.802785" lon="8.6347933"><ele>238.5</ele><time>2026-04-26T07:47:34.068Z</time></trkpt><trkpt lat="45.8027483" lon="8.63468"><ele>237.66666666666669</ele><time>2026-04-26T07:47:35.068Z</time></trkpt><trkpt lat="45.8027217" lon="8.6345567"><ele>236.83333333333334</ele><time>2026-04-26T07:47:36.068Z</time></trkpt><trkpt lat="45.80269" lon="8.6344167"><ele>236.0</ele><time>2026-04-26T07:47:37.068Z</time></trkpt><trkpt lat="45.8026567" lon="8.63427"><ele>236.0</ele><time>2026-04-26T07:47:38.068Z</time></trkpt><trkpt lat="45.8026233" lon="8.6341433"><ele>236.00000000000003</ele><time>2026-04-26T07:47:39.068Z</time></trkpt><trkpt lat="45.80259" lon="8.634015"><ele>236.00000000000003</ele><time>2026-04-26T07:47:40.068Z</time></trkpt><trkpt lat="45.8025483" lon="8.6338683"><ele>236.0</ele><time>2026-04-26T07:47:41.068Z</time></trkpt><trkpt lat="45.8024917" lon="8.6337217"><ele>236.0</ele><time>2026-04-26T07:47:42.068Z</time></trkpt><trkpt lat="45.80243" lon="8.6335517"><ele>236.5</ele><time>2026-04-26T07:47:43.068Z</time></trkpt><trkpt lat="45.8023733" lon="8.63337"><ele>237.0</ele><time>2026-04-26T07:47:44.068Z</time></trkpt><trkpt lat="45.8023217" lon="8.6331967"><ele>237.5</ele><time>2026-04-26T07:47:45.068Z</time></trkpt><trkpt lat="45.8022667" lon="8.6330417"><ele>238.0</ele><time>2026-04-26T07:47:46.068Z</time></trkpt><trkpt lat="45.802225" lon="8.6328867"><ele>240.25</ele><time>2026-04-26T07:47:47.068Z</time></trkpt><trkpt lat="45.8021767" lon="8.6327367"><ele>242.5</ele><time>2026-04-26T07:47:48.068Z</time></trkpt><trkpt lat="45.8021233" lon="8.63257"><ele>244.75</ele><time>2026-04-26T07:47:49.068Z</time></trkpt><trkpt lat="45.802065" lon="8.6324083"><ele>247.0</ele><time>2026-04-26T07:47:50.068Z</time></trkpt><trkpt lat="45.8020017" lon="8.63225"><ele>247.0</ele><time>2026-04-26T07:47:51.068Z</time></trkpt><trkpt lat="45.80194" lon="8.632105"><ele>247.0</ele><time>2026-04-26T07:47:52.068Z</time></trkpt><trkpt lat="45.801885" lon="8.6319667"><ele>247.0</ele><time>2026-04-26T07:47:53.068Z</time></trkpt><trkpt lat="45.8018317" lon="8.63185"><ele>247.0</ele><time>2026-04-26T07:47:54.068Z</time></trkpt><trkpt lat="45.8017867" lon="8.6317233"><ele>247.0</ele><time>2026-04-26T07:47:55.068Z</time></trkpt><trkpt lat="45.8017417" lon="8.6316033"><ele>245.0</ele><time>2026-04-26T07:47:56.068Z</time></trkpt><trkpt lat="45.8016967" lon="8.6314917"><ele>243.0</ele><time>2026-04-26T07:47:57.068Z</time></trkpt><trkpt lat="45.8016483" lon="8.6313717"><ele>241.0</ele><time>2026-04-26T07:47:58.068Z</time></trkpt><trkpt lat="45.8016" lon="8.6312383"><ele>239.0</ele><time>2026-04-26T07:47:59.068Z</time></trkpt><trkpt lat="45.8015533" lon="8.63111"><ele>237.0</ele><time>2026-04-26T07:48:00.068Z</time></trkpt><trkpt lat="45.8015083" lon="8.631005"><ele>237.0</ele><time>2026-04-26T07:48:01.068Z</time></trkpt><trkpt lat="45.8014767" lon="8.6309217"><ele>237.0</ele><time>2026-04-26T07:48:02.068Z</time></trkpt><trkpt lat="45.80144" lon="8.6307967"><ele>237.0</ele><time>2026-04-26T07:48:04.068Z</time></trkpt><trkpt lat="45.8014017" lon="8.6307167"><ele>237.0</ele><time>2026-04-26T07:48:07.068Z</time></trkpt><trkpt lat="45.8013117" lon="8.6306967"><ele>237.0</ele><time>2026-04-26T07:48:09.068Z</time></trkpt><trkpt lat="45.8012233" lon="8.63073"><ele>237.0</ele><time>2026-04-26T07:48:10.068Z</time></trkpt><trkpt lat="45.8011267" lon="8.6307933"><ele>237.0</ele><time>2026-04-26T07:48:11.068Z</time></trkpt><trkpt lat="45.8010317" lon="8.6308817"><ele>237.0</ele><time>2026-04-26T07:48:12.068Z</time></trkpt><trkpt lat="45.8009333" lon="8.6309883"><ele>237.0</ele><time>2026-04-26T07:48:13.068Z</time></trkpt><trkpt lat="45.8008217" lon="8.6311067"><ele>237.0</ele><time>2026-04-26T07:48:14.068Z</time></trkpt><trkpt lat="45.8007167" lon="8.6312467"><ele>235.0</ele><time>2026-04-26T07:48:15.068Z</time></trkpt><trkpt lat="45.8006167" lon="8.6314"><ele>233.0</ele><time>2026-04-26T07:48:16.068Z</time></trkpt><trkpt lat="45.8005333" lon="8.6315517"><ele>231.0</ele><time>2026-04-26T07:48:17.068Z</time></trkpt><trkpt lat="45.800445" lon="8.6317067"><ele>229.0</ele><time>2026-04-26T07:48:18.068Z</time></trkpt><trkpt lat="45.8003683" lon="8.6318633"><ele>229.0</ele><time>2026-04-26T07:48:19.068Z</time></trkpt><trkpt lat="45.80029" lon="8.6320283"><ele>229.0</ele><time>2026-04-26T07:48:20.068Z</time></trkpt><trkpt lat="45.8002033" lon="8.632195"><ele>229.0</ele><time>2026-04-26T07:48:21.068Z</time></trkpt><trkpt lat="45.80011" lon="8.632365"><ele>229.0</ele><time>2026-04-26T07:48:22.068Z</time></trkpt><trkpt lat="45.80003" lon="8.6325267"><ele>229.0</ele><time>2026-04-26T07:48:23.069Z</time></trkpt><trkpt lat="45.7999567" lon="8.6326867"><ele>229.0</ele><time>2026-04-26T07:48:24.069Z</time></trkpt><trkpt lat="45.799885" lon="8.6328383"><ele>229.0</ele><time>2026-04-26T07:48:25.069Z</time></trkpt><trkpt lat="45.7998067" lon="8.6329833"><ele>229.0</ele><time>2026-04-26T07:48:26.068Z</time></trkpt><trkpt lat="45.7997367" lon="8.633125"><ele>229.5</ele><time>2026-04-26T07:48:27.068Z</time></trkpt><trkpt lat="45.7996633" lon="8.6332667"><ele>230.0</ele><time>2026-04-26T07:48:28.069Z</time></trkpt><trkpt lat="45.7995967" lon="8.6333983"><ele>230.5</ele><time>2026-04-26T07:48:29.068Z</time></trkpt><trkpt lat="45.7995283" lon="8.633525"><ele>231.0</ele><time>2026-04-26T07:48:30.068Z</time></trkpt><trkpt lat="45.79946" lon="8.6336567"><ele>231.25</ele><time>2026-04-26T07:48:31.068Z</time></trkpt><trkpt lat="45.79939" lon="8.6337933"><ele>231.5</ele><time>2026-04-26T07:48:32.068Z</time></trkpt><trkpt lat="45.7993183" lon="8.633935"><ele>231.75</ele><time>2026-04-26T07:48:33.068Z</time></trkpt><trkpt lat="45.7992467" lon="8.634075"><ele>232.0</ele><time>2026-04-26T07:48:34.068Z</time></trkpt><trkpt lat="45.79918" lon="8.634205"><ele>232.0</ele><time>2026-04-26T07:48:35.068Z</time></trkpt><trkpt lat="45.7991217" lon="8.6343233"><ele>232.0</ele><time>2026-04-26T07:48:36.068Z</time></trkpt><trkpt lat="45.799075" lon="8.634425"><ele>232.0</ele><time>2026-04-26T07:48:37.068Z</time></trkpt><trkpt lat="45.7990333" lon="8.6344983"><ele>232.0</ele><time>2026-04-26T07:48:38.068Z</time></trkpt><trkpt lat="45.7989617" lon="8.63457"><ele>232.0</ele><time>2026-04-26T07:48:40.068Z</time></trkpt><trkpt lat="45.7988433" lon="8.634555"><ele>232.33333333333331</ele><time>2026-04-26T07:48:42.068Z</time></trkpt><trkpt lat="45.7987683" lon="8.6345517"><ele>232.66666666666666</ele><time>2026-04-26T07:48:43.068Z</time></trkpt><trkpt lat="45.79869" lon="8.634555"><ele>233.0</ele><time>2026-04-26T07:48:44.068Z</time></trkpt><trkpt lat="45.7986133" lon="8.6345683"><ele>233.33333333333331</ele><time>2026-04-26T07:48:45.068Z</time></trkpt><trkpt lat="45.7985383" lon="8.6345817"><ele>233.66666666666666</ele><time>2026-04-26T07:48:46.068Z</time></trkpt><trkpt lat="45.7984733" lon="8.634595"><ele>234.0</ele><time>2026-04-26T07:48:47.068Z</time></trkpt><trkpt lat="45.79836" lon="8.63462"><ele>234.0</ele><time>2026-04-26T07:48:49.068Z</time></trkpt><trkpt lat="45.7982467" lon="8.63463"><ele>233.99999999999997</ele><time>2026-04-26T07:48:51.068Z</time></trkpt><trkpt lat="45.7981583" lon="8.6345683"><ele>233.99999999999997</ele><time>2026-04-26T07:48:53.068Z</time></trkpt><trkpt lat="45.7980867" lon="8.63442"><ele>234.0</ele><time>2026-04-26T07:48:55.069Z</time></trkpt><trkpt lat="45.7980583" lon="8.6343083"><ele>234.0</ele><time>2026-04-26T07:48:56.068Z</time></trkpt><trkpt lat="45.798035" lon="8.6341917"><ele>233.33333333333334</ele><time>2026-04-26T07:48:57.068Z</time></trkpt><trkpt lat="45.7980183" lon="8.6340683"><ele>232.66666666666669</ele><time>2026-04-26T07:48:58.068Z</time></trkpt><trkpt lat="45.7979883" lon="8.6339567"><ele>232.0</ele><time>2026-04-26T07:48:59.068Z</time></trkpt><trkpt lat="45.7979667" lon="8.6338383"><ele>231.33333333333334</ele><time>2026-04-26T07:49:00.068Z</time></trkpt><trkpt lat="45.797945" lon="8.63372"><ele>230.66666666666669</ele><time>2026-04-26T07:49:01.068Z</time></trkpt><trkpt lat="45.7979167" lon="8.6336"><ele>230.0</ele><time>2026-04-26T07:49:02.068Z</time></trkpt><trkpt lat="45.7978883" lon="8.6334867"><ele>230.00000000000003</ele><time>2026-04-26T07:49:03.068Z</time></trkpt><trkpt lat="45.7978667" lon="8.633385"><ele>230.0</ele><time>2026-04-26T07:49:04.068Z</time></trkpt><trkpt lat="45.797845" lon="8.6332917"><ele>230.0</ele><time>2026-04-26T07:49:05.068Z</time></trkpt><trkpt lat="45.797795" lon="8.6331667"><ele>230.0</ele><time>2026-04-26T07:49:07.068Z</time></trkpt><trkpt lat="45.7977117" lon="8.63311"><ele>230.00000000000003</ele><time>2026-04-26T07:49:09.068Z</time></trkpt><trkpt lat="45.7976083" lon="8.6331333"><ele>230.0</ele><time>2026-04-26T07:49:11.068Z</time></trkpt><trkpt lat="45.7975417" lon="8.6331767"><ele>230.16666666666669</ele><time>2026-04-26T07:49:12.068Z</time></trkpt><trkpt lat="45.7974667" lon="8.63323"><ele>230.33333333333334</ele><time>2026-04-26T07:49:13.068Z</time></trkpt><trkpt lat="45.79739" lon="8.6332817"><ele>230.5</ele><time>2026-04-26T07:49:14.068Z</time></trkpt><trkpt lat="45.7973233" lon="8.633335"><ele>230.66666666666669</ele><time>2026-04-26T07:49:15.068Z</time></trkpt><trkpt lat="45.7972683" lon="8.6333917"><ele>230.83333333333334</ele><time>2026-04-26T07:49:16.068Z</time></trkpt><trkpt lat="45.7971967" lon="8.6334417"><ele>231.0</ele><time>2026-04-26T07:49:17.068Z</time></trkpt><trkpt lat="45.7971033" lon="8.6334867"><ele>231.0</ele><time>2026-04-26T07:49:18.068Z</time></trkpt><trkpt lat="45.79699" lon="8.6335467"><ele>231.00000000000003</ele><time>2026-04-26T07:49:19.068Z</time></trkpt><trkpt lat="45.7968867" lon="8.6335967"><ele>231.00000000000003</ele><time>2026-04-26T07:49:20.068Z</time></trkpt><trkpt lat="45.796795" lon="8.6336467"><ele>231.0</ele><time>2026-04-26T07:49:21.069Z</time></trkpt><trkpt lat="45.79672" lon="8.63369"><ele>231.0</ele><time>2026-04-26T07:49:22.068Z</time></trkpt><trkpt lat="45.796615" lon="8.63377"><ele>231.0</ele><time>2026-04-26T07:49:24.068Z</time></trkpt><trkpt lat="45.79656" lon="8.6338183"><ele>231.0</ele><time>2026-04-26T07:49:25.069Z</time></trkpt><trkpt lat="45.7964467" lon="8.6338717"><ele>231.0</ele><time>2026-04-26T07:49:27.068Z</time></trkpt><trkpt lat="45.7963717" lon="8.633885"><ele>231.0</ele><time>2026-04-26T07:49:28.068Z</time></trkpt><trkpt lat="45.7962867" lon="8.6339083"><ele>231.0</ele><time>2026-04-26T07:49:29.068Z</time></trkpt><trkpt lat="45.7962067" lon="8.633935"><ele>231.0</ele><time>2026-04-26T07:49:30.068Z</time></trkpt><trkpt lat="45.796125" lon="8.6339717"><ele>231.0</ele><time>2026-04-26T07:49:31.068Z</time></trkpt><trkpt lat="45.7960433" lon="8.6340267"><ele>231.0</ele><time>2026-04-26T07:49:32.068Z</time></trkpt><trkpt lat="45.7959683" lon="8.63409"><ele>231.0</ele><time>2026-04-26T07:49:33.068Z</time></trkpt><trkpt lat="45.7959033" lon="8.6341533"><ele>231.0</ele><time>2026-04-26T07:49:34.068Z</time></trkpt><trkpt lat="45.79584" lon="8.6342267"><ele>231.0</ele><time>2026-04-26T07:49:35.068Z</time></trkpt><trkpt lat="45.7957817" lon="8.634305"><ele>231.0</ele><time>2026-04-26T07:49:36.068Z</time></trkpt><trkpt lat="45.795715" lon="8.63442"><ele>231.60000000000002</ele><time>2026-04-26T07:49:38.068Z</time></trkpt><trkpt lat="45.7956983" lon="8.6345333"><ele>232.20000000000002</ele><time>2026-04-26T07:49:40.068Z</time></trkpt><trkpt lat="45.7957433" lon="8.6347"><ele>232.79999999999998</ele><time>2026-04-26T07:49:42.068Z</time></trkpt><trkpt lat="45.7957917" lon="8.6348217"><ele>233.39999999999998</ele><time>2026-04-26T07:49:43.068Z</time></trkpt><trkpt lat="45.795855" lon="8.6349833"><ele>234.0</ele><time>2026-04-26T07:49:44.068Z</time></trkpt><trkpt lat="45.7959183" lon="8.6351433"><ele>234.0</ele><time>2026-04-26T07:49:45.068Z</time></trkpt><trkpt lat="45.7959883" lon="8.6353017"><ele>233.99999999999997</ele><time>2026-04-26T07:49:46.068Z</time></trkpt><trkpt lat="45.7960533" lon="8.63544"><ele>233.99999999999997</ele><time>2026-04-26T07:49:47.068Z</time></trkpt><trkpt lat="45.7961067" lon="8.635565"><ele>234.0</ele><time>2026-04-26T07:49:48.068Z</time></trkpt><trkpt lat="45.7961517" lon="8.6356817"><ele>234.0</ele><time>2026-04-26T07:49:49.068Z</time></trkpt><trkpt lat="45.7961933" lon="8.6358017"><ele>234.0</ele><time>2026-04-26T07:49:50.068Z</time></trkpt><trkpt lat="45.7962367" lon="8.6359183"><ele>234.0</ele><time>2026-04-26T07:49:51.068Z</time></trkpt><trkpt lat="45.7962683" lon="8.6360283"><ele>234.0</ele><time>2026-04-26T07:49:52.068Z</time></trkpt><trkpt lat="45.7962933" lon="8.6361133"><ele>234.0</ele><time>2026-04-26T07:49:53.068Z</time></trkpt><trkpt lat="45.7963133" lon="8.6362767"><ele>234.0</ele><time>2026-04-26T07:49:55.068Z</time></trkpt><trkpt lat="45.7963033" lon="8.6363883"><ele>234.0</ele><time>2026-04-26T07:49:56.068Z</time></trkpt><trkpt lat="45.7962767" lon="8.6364983"><ele>235.33333333333334</ele><time>2026-04-26T07:49:57.068Z</time></trkpt><trkpt lat="45.7962483" lon="8.6365967"><ele>236.66666666666669</ele><time>2026-04-26T07:49:58.068Z</time></trkpt><trkpt lat="45.7962183" lon="8.6366883"><ele>238.0</ele><time>2026-04-26T07:49:59.068Z</time></trkpt><trkpt lat="45.7961717" lon="8.6367617"><ele>239.33333333333334</ele><time>2026-04-26T07:50:00.068Z</time></trkpt><trkpt lat="45.79612" lon="8.636825"><ele>240.66666666666669</ele><time>2026-04-26T07:50:01.068Z</time></trkpt><trkpt lat="45.79604" lon="8.6369217"><ele>242.0</ele><time>2026-04-26T07:50:03.068Z</time></trkpt><trkpt lat="45.7959733" lon="8.6369783"><ele>241.8</ele><time>2026-04-26T07:50:05.068Z</time></trkpt><trkpt lat="45.7958883" lon="8.63699"><ele>241.6</ele><time>2026-04-26T07:50:07.068Z</time></trkpt><trkpt lat="45.79575" lon="8.6369783"><ele>241.40000000000003</ele><time>2026-04-26T07:50:09.068Z</time></trkpt><trkpt lat="45.7956633" lon="8.636975"><ele>241.20000000000002</ele><time>2026-04-26T07:50:10.068Z</time></trkpt><trkpt lat="45.7955867" lon="8.6369617"><ele>241.0</ele><time>2026-04-26T07:50:11.068Z</time></trkpt><trkpt lat="45.7955133" lon="8.6369583"><ele>241.0</ele><time>2026-04-26T07:50:12.068Z</time></trkpt><trkpt lat="45.795445" lon="8.63696"><ele>241.00000000000003</ele><time>2026-04-26T07:50:13.068Z</time></trkpt><trkpt lat="45.7953233" lon="8.636905"><ele>241.00000000000003</ele><time>2026-04-26T07:50:15.068Z</time></trkpt><trkpt lat="45.795255" lon="8.6368433"><ele>241.0</ele><time>2026-04-26T07:50:16.068Z</time></trkpt><trkpt lat="45.795195" lon="8.6367533"><ele>241.0</ele><time>2026-04-26T07:50:17.068Z</time></trkpt><trkpt lat="45.7951417" lon="8.6366483"><ele>240.49999999999997</ele><time>2026-04-26T07:50:18.069Z</time></trkpt><trkpt lat="45.795095" lon="8.6365417"><ele>240.0</ele><time>2026-04-26T07:50:19.068Z</time></trkpt><trkpt lat="45.7950567" lon="8.636435"><ele>239.5</ele><time>2026-04-26T07:50:20.068Z</time></trkpt><trkpt lat="45.7950217" lon="8.6363267"><ele>239.0</ele><time>2026-04-26T07:50:21.068Z</time></trkpt><trkpt lat="45.7949917" lon="8.6362117"><ele>238.49999999999997</ele><time>2026-04-26T07:50:22.068Z</time></trkpt><trkpt lat="45.7949567" lon="8.6361017"><ele>238.0</ele><time>2026-04-26T07:50:23.068Z</time></trkpt><trkpt lat="45.79492" lon="8.635995"><ele>237.99999999999997</ele><time>2026-04-26T07:50:24.069Z</time></trkpt><trkpt lat="45.7948867" lon="8.6358917"><ele>238.0</ele><time>2026-04-26T07:50:25.068Z</time></trkpt><trkpt lat="45.7948567" lon="8.6357817"><ele>238.0</ele><time>2026-04-26T07:50:26.068Z</time></trkpt><trkpt lat="45.7948333" lon="8.63567"><ele>238.0</ele><time>2026-04-26T07:50:27.068Z</time></trkpt><trkpt lat="45.79482" lon="8.6355633"><ele>237.99999999999997</ele><time>2026-04-26T07:50:28.068Z</time></trkpt><trkpt lat="45.7948117" lon="8.635465"><ele>238.0</ele><time>2026-04-26T07:50:29.069Z</time></trkpt><trkpt lat="45.7947967" lon="8.6353283"><ele>238.0</ele><time>2026-04-26T07:50:31.068Z</time></trkpt><trkpt lat="45.7947267" lon="8.63526"><ele>238.0</ele><time>2026-04-26T07:50:33.068Z</time></trkpt><trkpt lat="45.7946" lon="8.6353033"><ele>238.0</ele><time>2026-04-26T07:50:35.068Z</time></trkpt><trkpt lat="45.7945217" lon="8.6353417"><ele>238.0</ele><time>2026-04-26T07:50:36.068Z</time></trkpt><trkpt lat="45.794445" lon="8.6353717"><ele>238.0</ele><time>2026-04-26T07:50:37.068Z</time></trkpt><trkpt lat="45.7943667" lon="8.6353983"><ele>236.99999999999997</ele><time>2026-04-26T07:50:38.068Z</time></trkpt><trkpt lat="45.7942883" lon="8.6354167"><ele>236.0</ele><time>2026-04-26T07:50:39.068Z</time></trkpt><trkpt lat="45.7942117" lon="8.6354267"><ele>235.0</ele><time>2026-04-26T07:50:40.068Z</time></trkpt><trkpt lat="45.7941383" lon="8.6354317"><ele>234.0</ele><time>2026-04-26T07:50:41.068Z</time></trkpt><trkpt lat="45.7940283" lon="8.6354467"><ele>232.99999999999997</ele><time>2026-04-26T07:50:43.068Z</time></trkpt><trkpt lat="45.7939567" lon="8.6354783"><ele>232.0</ele><time>2026-04-26T07:50:45.068Z</time></trkpt><trkpt lat="45.7938783" lon="8.6355233"><ele>231.99999999999997</ele><time>2026-04-26T07:50:47.069Z</time></trkpt><trkpt lat="45.79381" lon="8.6356067"><ele>232.0</ele><time>2026-04-26T07:50:49.068Z</time></trkpt><trkpt lat="45.79376" lon="8.6357133"><ele>232.0</ele><time>2026-04-26T07:50:51.069Z</time></trkpt><trkpt lat="45.793695" lon="8.6357767"><ele>232.0</ele><time>2026-04-26T07:50:54.068Z</time></trkpt><trkpt lat="45.7936017" lon="8.6358417"><ele>231.99999999999997</ele><time>2026-04-26T07:51:01.068Z</time></trkpt><trkpt lat="45.7935333" lon="8.6358583"><ele>232.0</ele><time>2026-04-26T07:51:02.068Z</time></trkpt><trkpt lat="45.793465" lon="8.6358733"><ele>233.49999999999997</ele><time>2026-04-26T07:51:03.068Z</time></trkpt><trkpt lat="45.7933967" lon="8.6358767"><ele>235.0</ele><time>2026-04-26T07:51:04.068Z</time></trkpt><trkpt lat="45.7933067" lon="8.6359"><ele>236.5</ele><time>2026-04-26T07:51:06.068Z</time></trkpt><trkpt lat="45.79321" lon="8.6359317"><ele>238.0</ele><time>2026-04-26T07:51:08.068Z</time></trkpt><trkpt lat="45.79315" lon="8.63596"><ele>239.49999999999997</ele><time>2026-04-26T07:51:10.068Z</time></trkpt><trkpt lat="45.7930833" lon="8.6359917"><ele>241.0</ele><time>2026-04-26T07:51:12.069Z</time></trkpt><trkpt lat="45.79302" lon="8.6360133"><ele>241.0</ele><time>2026-04-26T07:51:13.068Z</time></trkpt><trkpt lat="45.7929517" lon="8.63605"><ele>241.00000000000003</ele><time>2026-04-26T07:51:14.068Z</time></trkpt><trkpt lat="45.7928867" lon="8.636095"><ele>241.00000000000003</ele><time>2026-04-26T07:51:15.068Z</time></trkpt><trkpt lat="45.792775" lon="8.636145"><ele>241.0</ele><time>2026-04-26T07:51:17.068Z</time></trkpt><trkpt lat="45.7926583" lon="8.6361683"><ele>241.0</ele><time>2026-04-26T07:51:19.068Z</time></trkpt><trkpt lat="45.7925783" lon="8.636185"><ele>242.60000000000002</ele><time>2026-04-26T07:51:20.068Z</time></trkpt><trkpt lat="45.7924767" lon="8.6362133"><ele>244.20000000000002</ele><time>2026-04-26T07:51:21.068Z</time></trkpt><trkpt lat="45.7923617" lon="8.6362467"><ele>245.79999999999998</ele><time>2026-04-26T07:51:22.068Z</time></trkpt><trkpt lat="45.7922583" lon="8.6362833"><ele>247.39999999999998</ele><time>2026-04-26T07:51:23.069Z</time></trkpt><trkpt lat="45.7921733" lon="8.6363"><ele>249.0</ele><time>2026-04-26T07:51:24.069Z</time></trkpt><trkpt lat="45.7920933" lon="8.6363167"><ele>249.0</ele><time>2026-04-26T07:51:25.068Z</time></trkpt><trkpt lat="45.7920283" lon="8.636325"><ele>248.99999999999997</ele><time>2026-04-26T07:51:26.068Z</time></trkpt><trkpt lat="45.7919367" lon="8.6363333"><ele>248.99999999999997</ele><time>2026-04-26T07:51:28.068Z</time></trkpt><trkpt lat="45.791865" lon="8.6363867"><ele>249.0</ele><time>2026-04-26T07:51:30.068Z</time></trkpt><trkpt lat="45.7917783" lon="8.63654"><ele>249.0</ele><time>2026-04-26T07:51:32.068Z</time></trkpt><trkpt lat="45.7917283" lon="8.63665"><ele>249.6</ele><time>2026-04-26T07:51:33.068Z</time></trkpt><trkpt lat="45.7916717" lon="8.6367633"><ele>250.2</ele><time>2026-04-26T07:51:34.068Z</time></trkpt><trkpt lat="45.791615" lon="8.6368633"><ele>250.79999999999998</ele><time>2026-04-26T07:51:35.068Z</time></trkpt><trkpt lat="45.79154" lon="8.63696"><ele>251.39999999999998</ele><time>2026-04-26T07:51:36.068Z</time></trkpt><trkpt lat="45.791455" lon="8.637045"><ele>252.0</ele><time>2026-04-26T07:51:37.068Z</time></trkpt><trkpt lat="45.791365" lon="8.6371283"><ele>252.16666666666666</ele><time>2026-04-26T07:51:38.068Z</time></trkpt><trkpt lat="45.7912817" lon="8.6371983"><ele>252.33333333333331</ele><time>2026-04-26T07:51:39.068Z</time></trkpt><trkpt lat="45.7912067" lon="8.6372733"><ele>252.5</ele><time>2026-04-26T07:51:40.068Z</time></trkpt><trkpt lat="45.79115" lon="8.6373317"><ele>252.66666666666666</ele><time>2026-04-26T07:51:41.068Z</time></trkpt><trkpt lat="45.79107" lon="8.637395"><ele>252.83333333333331</ele><time>2026-04-26T07:51:43.068Z</time></trkpt><trkpt lat="45.791005" lon="8.6374283"><ele>253.0</ele><time>2026-04-26T07:51:46.069Z</time></trkpt><trkpt lat="45.79093" lon="8.63746"><ele>253.99999999999997</ele><time>2026-04-26T07:51:49.068Z</time></trkpt><trkpt lat="45.790845" lon="8.6374967"><ele>255.0</ele><time>2026-04-26T07:51:51.068Z</time></trkpt><trkpt lat="45.79078" lon="8.6375333"><ele>256.0</ele><time>2026-04-26T07:51:52.068Z</time></trkpt><trkpt lat="45.79071" lon="8.63758"><ele>257.0</ele><time>2026-04-26T07:51:53.068Z</time></trkpt><trkpt lat="45.790625" lon="8.6376383"><ele>258.0</ele><time>2026-04-26T07:51:54.068Z</time></trkpt><trkpt lat="45.7905383" lon="8.63769"><ele>259.0</ele><time>2026-04-26T07:51:55.068Z</time></trkpt><trkpt lat="45.7904467" lon="8.6377433"><ele>259.0</ele><time>2026-04-26T07:51:56.068Z</time></trkpt><trkpt lat="45.7903617" lon="8.6377683"><ele>259.0</ele><time>2026-04-26T07:51:57.068Z</time></trkpt><trkpt lat="45.7902783" lon="8.637785"><ele>259.0</ele><time>2026-04-26T07:51:58.069Z</time></trkpt><trkpt lat="45.7902117" lon="8.6377967"><ele>259.0</ele><time>2026-04-26T07:51:59.068Z</time></trkpt><trkpt lat="45.7901433" lon="8.6378083"><ele>259.0</ele><time>2026-04-26T07:52:00.068Z</time></trkpt><trkpt lat="45.7900233" lon="8.6378633"><ele>259.0</ele><time>2026-04-26T07:52:02.068Z</time></trkpt><trkpt lat="45.7899517" lon="8.637935"><ele>260.0</ele><time>2026-04-26T07:52:03.069Z</time></trkpt><trkpt lat="45.7898883" lon="8.638035"><ele>261.0</ele><time>2026-04-26T07:52:04.068Z</time></trkpt><trkpt lat="45.789835" lon="8.6381533"><ele>262.0</ele><time>2026-04-26T07:52:05.068Z</time></trkpt><trkpt lat="45.7897833" lon="8.63826"><ele>263.0</ele><time>2026-04-26T07:52:06.068Z</time></trkpt><trkpt lat="45.7897467" lon="8.6383817"><ele>264.0</ele><time>2026-04-26T07:52:07.068Z</time></trkpt><trkpt lat="45.7897283" lon="8.6385067"><ele>263.3333333333333</ele><time>2026-04-26T07:52:08.068Z</time></trkpt><trkpt lat="45.7897083" lon="8.638635"><ele>262.6666666666667</ele><time>2026-04-26T07:52:09.069Z</time></trkpt><trkpt lat="45.7896833" lon="8.63875"><ele>262.0</ele><time>2026-04-26T07:52:10.068Z</time></trkpt><trkpt lat="45.7896583" lon="8.63886"><ele>261.33333333333337</ele><time>2026-04-26T07:52:11.068Z</time></trkpt><trkpt lat="45.789635" lon="8.6389683"><ele>260.6666666666667</ele><time>2026-04-26T07:52:12.068Z</time></trkpt><trkpt lat="45.7896067" lon="8.6390967"><ele>260.0</ele><time>2026-04-26T07:52:13.068Z</time></trkpt><trkpt lat="45.7895317" lon="8.6392433"><ele>260.0</ele><time>2026-04-26T07:52:14.068Z</time></trkpt><trkpt lat="45.789475" lon="8.6393533"><ele>260.0</ele><time>2026-04-26T07:52:15.068Z</time></trkpt><trkpt lat="45.7893983" lon="8.63942"><ele>260.0</ele><time>2026-04-26T07:52:16.068Z</time></trkpt><trkpt lat="45.7893433" lon="8.6394867"><ele>260.0</ele><time>2026-04-26T07:52:17.068Z</time></trkpt><trkpt lat="45.78929" lon="8.639595"><ele>260.0</ele><time>2026-04-26T07:52:18.068Z</time></trkpt><trkpt lat="45.7892333" lon="8.6397433"><ele>261.0</ele><time>2026-04-26T07:52:19.068Z</time></trkpt><trkpt lat="45.7891933" lon="8.6398717"><ele>262.0</ele><time>2026-04-26T07:52:20.068Z</time></trkpt><trkpt lat="45.7891533" lon="8.6399783"><ele>263.0</ele><time>2026-04-26T07:52:21.068Z</time></trkpt><trkpt lat="45.789105" lon="8.64005"><ele>264.0</ele><time>2026-04-26T07:52:22.068Z</time></trkpt><trkpt lat="45.7890333" lon="8.64012"><ele>265.0</ele><time>2026-04-26T07:52:23.068Z</time></trkpt><trkpt lat="45.7889633" lon="8.640185"><ele>266.0</ele><time>2026-04-26T07:52:24.068Z</time></trkpt><trkpt lat="45.7889017" lon="8.640245"><ele>266.1666666666667</ele><time>2026-04-26T07:52:25.068Z</time></trkpt><trkpt lat="45.78885" lon="8.6403033"><ele>266.33333333333337</ele><time>2026-04-26T07:52:26.069Z</time></trkpt><trkpt lat="45.7887883" lon="8.6404"><ele>266.5</ele><time>2026-04-26T07:52:28.068Z</time></trkpt><trkpt lat="45.7887933" lon="8.640515"><ele>266.6666666666667</ele><time>2026-04-26T07:52:30.068Z</time></trkpt><trkpt lat="45.7888583" lon="8.6406417"><ele>266.8333333333333</ele><time>2026-04-26T07:52:32.068Z</time></trkpt><trkpt lat="45.7889233" lon="8.6407417"><ele>267.0</ele><time>2026-04-26T07:52:34.068Z</time></trkpt><trkpt lat="45.7889667" lon="8.64088"><ele>267.0</ele><time>2026-04-26T07:52:55.068Z</time></trkpt><trkpt lat="45.7890183" lon="8.6409567"><ele>267.0</ele><time>2026-04-26T07:52:57.068Z</time></trkpt><trkpt lat="45.789085" lon="8.6410033"><ele>267.0</ele><time>2026-04-26T07:52:58.068Z</time></trkpt><trkpt lat="45.78917" lon="8.6410467"><ele>267.0</ele><time>2026-04-26T07:52:59.068Z</time></trkpt><trkpt lat="45.7892717" lon="8.64107"><ele>267.0</ele><time>2026-04-26T07:53:00.068Z</time></trkpt><trkpt lat="45.7893583" lon="8.6411"><ele>267.0</ele><time>2026-04-26T07:53:01.068Z</time></trkpt><trkpt lat="45.7894233" lon="8.641165"><ele>268.3333333333333</ele><time>2026-04-26T07:53:02.068Z</time></trkpt><trkpt lat="45.7894667" lon="8.6412567"><ele>269.6666666666667</ele><time>2026-04-26T07:53:03.069Z</time></trkpt><trkpt lat="45.7895017" lon="8.6413667"><ele>271.0</ele><time>2026-04-26T07:53:04.069Z</time></trkpt><trkpt lat="45.7895417" lon="8.64148"><ele>272.33333333333337</ele><time>2026-04-26T07:53:05.068Z</time></trkpt><trkpt lat="45.7895833" lon="8.6416017"><ele>273.6666666666667</ele><time>2026-04-26T07:53:06.068Z</time></trkpt><trkpt lat="45.789625" lon="8.6417283"><ele>275.0</ele><time>2026-04-26T07:53:07.068Z</time></trkpt><trkpt lat="45.7896633" lon="8.6418567"><ele>274.6</ele><time>2026-04-26T07:53:08.068Z</time></trkpt><trkpt lat="45.7897083" lon="8.64199"><ele>274.2</ele><time>2026-04-26T07:53:09.068Z</time></trkpt><trkpt lat="45.7897633" lon="8.6421317"><ele>273.8</ele><time>2026-04-26T07:53:10.068Z</time></trkpt><trkpt lat="45.7898133" lon="8.6422617"><ele>273.4</ele><time>2026-04-26T07:53:11.069Z</time></trkpt><trkpt lat="45.7898683" lon="8.64238"><ele>273.0</ele><time>2026-04-26T07:53:12.068Z</time></trkpt><trkpt lat="45.7899083" lon="8.642495"><ele>273.0</ele><time>2026-04-26T07:53:13.068Z</time></trkpt><trkpt lat="45.7899533" lon="8.642605"><ele>273.0</ele><time>2026-04-26T07:53:14.068Z</time></trkpt><trkpt lat="45.7899983" lon="8.6427133"><ele>273.0</ele><time>2026-04-26T07:53:15.068Z</time></trkpt><trkpt lat="45.7900467" lon="8.6428283"><ele>273.0</ele><time>2026-04-26T07:53:16.068Z</time></trkpt><trkpt lat="45.7900983" lon="8.6429533"><ele>273.0</ele><time>2026-04-26T07:53:17.068Z</time></trkpt><trkpt lat="45.7901583" lon="8.64307"><ele>274.2</ele><time>2026-04-26T07:53:18.069Z</time></trkpt><trkpt lat="45.7902083" lon="8.643195"><ele>275.4</ele><time>2026-04-26T07:53:19.068Z</time></trkpt><trkpt lat="45.790245" lon="8.6433267"><ele>276.59999999999997</ele><time>2026-04-26T07:53:20.068Z</time></trkpt><trkpt lat="45.7902717" lon="8.6434683"><ele>277.8</ele><time>2026-04-26T07:53:21.068Z</time></trkpt><trkpt lat="45.7903033" lon="8.64362"><ele>279.0</ele><time>2026-04-26T07:53:22.068Z</time></trkpt><trkpt lat="45.7903383" lon="8.6437783"><ele>279.0</ele><time>2026-04-26T07:53:23.068Z</time></trkpt><trkpt lat="45.790375" lon="8.643935"><ele>279.0</ele><time>2026-04-26T07:53:24.068Z</time></trkpt><trkpt lat="45.7904133" lon="8.6440867"><ele>279.0</ele><time>2026-04-26T07:53:25.068Z</time></trkpt><trkpt lat="45.7904667" lon="8.64424"><ele>279.0</ele><time>2026-04-26T07:53:26.068Z</time></trkpt><trkpt lat="45.7905333" lon="8.6443883"><ele>278.75</ele><time>2026-04-26T07:53:27.068Z</time></trkpt><trkpt lat="45.7906017" lon="8.6445317"><ele>278.5</ele><time>2026-04-26T07:53:28.068Z</time></trkpt><trkpt lat="45.79066" lon="8.644695"><ele>278.25</ele><time>2026-04-26T07:53:29.068Z</time></trkpt><trkpt lat="45.79071" lon="8.644855"><ele>278.0</ele><time>2026-04-26T07:53:30.068Z</time></trkpt><trkpt lat="45.7907633" lon="8.6450167"><ele>278.0</ele><time>2026-04-26T07:53:31.068Z</time></trkpt><trkpt lat="45.7908033" lon="8.6451933"><ele>278.0</ele><time>2026-04-26T07:53:32.068Z</time></trkpt><trkpt lat="45.7908417" lon="8.6453617"><ele>278.0</ele><time>2026-04-26T07:53:33.068Z</time></trkpt><trkpt lat="45.7908733" lon="8.6455117"><ele>278.0</ele><time>2026-04-26T07:53:34.069Z</time></trkpt><trkpt lat="45.790895" lon="8.645655"><ele>278.33333333333337</ele><time>2026-04-26T07:53:35.068Z</time></trkpt><trkpt lat="45.79091" lon="8.645785"><ele>278.6666666666667</ele><time>2026-04-26T07:53:36.068Z</time></trkpt><trkpt lat="45.7909233" lon="8.645915"><ele>279.0</ele><time>2026-04-26T07:53:37.068Z</time></trkpt><trkpt lat="45.7909383" lon="8.64604"><ele>279.3333333333333</ele><time>2026-04-26T07:53:38.068Z</time></trkpt><trkpt lat="45.79095" lon="8.6461533"><ele>279.66666666666663</ele><time>2026-04-26T07:53:39.068Z</time></trkpt><trkpt lat="45.7909717" lon="8.646265"><ele>280.0</ele><time>2026-04-26T07:53:40.068Z</time></trkpt><trkpt lat="45.7909917" lon="8.6463633"><ele>280.4</ele><time>2026-04-26T07:53:41.068Z</time></trkpt><trkpt lat="45.7910083" lon="8.646505"><ele>280.8</ele><time>2026-04-26T07:53:43.068Z</time></trkpt><trkpt lat="45.7909967" lon="8.6466133"><ele>281.2</ele><time>2026-04-26T07:53:45.068Z</time></trkpt><trkpt lat="45.7908617" lon="8.6466183"><ele>281.6</ele><time>2026-04-26T07:53:48.069Z</time></trkpt><trkpt lat="45.790775" lon="8.646605"><ele>282.0</ele><time>2026-04-26T07:53:49.068Z</time></trkpt><trkpt lat="45.7906833" lon="8.6466117"><ele>282.0</ele><time>2026-04-26T07:53:50.068Z</time></trkpt><trkpt lat="45.7905917" lon="8.64662"><ele>282.0</ele><time>2026-04-26T07:53:51.068Z</time></trkpt><trkpt lat="45.7904883" lon="8.6466067"><ele>282.0</ele><time>2026-04-26T07:53:52.068Z</time></trkpt><trkpt lat="45.7903983" lon="8.64662"><ele>282.0</ele><time>2026-04-26T07:53:53.068Z</time></trkpt><trkpt lat="45.7903" lon="8.6466217"><ele>282.0</ele><time>2026-04-26T07:53:54.068Z</time></trkpt><trkpt lat="45.790195" lon="8.64663"><ele>281.25</ele><time>2026-04-26T07:53:55.068Z</time></trkpt><trkpt lat="45.790085" lon="8.6466267"><ele>280.5</ele><time>2026-04-26T07:53:56.068Z</time></trkpt><trkpt lat="45.7899783" lon="8.6466183"><ele>279.75</ele><time>2026-04-26T07:53:57.068Z</time></trkpt><trkpt lat="45.7898633" lon="8.646605"><ele>279.0</ele><time>2026-04-26T07:53:58.068Z</time></trkpt><trkpt lat="45.7897467" lon="8.6465767"><ele>279.0</ele><time>2026-04-26T07:53:59.068Z</time></trkpt><trkpt lat="45.78964" lon="8.6465283"><ele>279.0</ele><time>2026-04-26T07:54:00.068Z</time></trkpt><trkpt lat="45.78953" lon="8.646475"><ele>279.0</ele><time>2026-04-26T07:54:01.068Z</time></trkpt><trkpt lat="45.7894317" lon="8.6464283"><ele>279.0</ele><time>2026-04-26T07:54:02.068Z</time></trkpt><trkpt lat="45.7893317" lon="8.6464017"><ele>279.0</ele><time>2026-04-26T07:54:03.068Z</time></trkpt><trkpt lat="45.7892233" lon="8.6463733"><ele>277.75</ele><time>2026-04-26T07:54:04.068Z</time></trkpt><trkpt lat="45.78911" lon="8.6463717"><ele>276.5</ele><time>2026-04-26T07:54:05.068Z</time></trkpt><trkpt lat="45.7889933" lon="8.64639"><ele>275.25</ele><time>2026-04-26T07:54:06.068Z</time></trkpt><trkpt lat="45.7888817" lon="8.6464233"><ele>274.0</ele><time>2026-04-26T07:54:07.068Z</time></trkpt><trkpt lat="45.7887517" lon="8.64648"><ele>274.0</ele><time>2026-04-26T07:54:08.068Z</time></trkpt><trkpt lat="45.7886317" lon="8.6465567"><ele>274.0</ele><time>2026-04-26T07:54:09.068Z</time></trkpt><trkpt lat="45.7885133" lon="8.646625"><ele>274.0</ele><time>2026-04-26T07:54:10.068Z</time></trkpt><trkpt lat="45.7884017" lon="8.64671"><ele>274.0</ele><time>2026-04-26T07:54:11.068Z</time></trkpt><trkpt lat="45.7883033" lon="8.6467933"><ele>275.25</ele><time>2026-04-26T07:54:12.068Z</time></trkpt><trkpt lat="45.7882033" lon="8.6468783"><ele>276.5</ele><time>2026-04-26T07:54:13.068Z</time></trkpt><trkpt lat="45.7881033" lon="8.6469533"><ele>277.75</ele><time>2026-04-26T07:54:14.068Z</time></trkpt><trkpt lat="45.7880033" lon="8.6470417"><ele>279.0</ele><time>2026-04-26T07:54:15.068Z</time></trkpt><trkpt lat="45.7878917" lon="8.6471433"><ele>279.0</ele><time>2026-04-26T07:54:16.068Z</time></trkpt><trkpt lat="45.787785" lon="8.6472383"><ele>279.0</ele><time>2026-04-26T07:54:17.068Z</time></trkpt><trkpt lat="45.7876833" lon="8.6473283"><ele>279.0</ele><time>2026-04-26T07:54:18.068Z</time></trkpt><trkpt lat="45.78758" lon="8.647415"><ele>279.0</ele><time>2026-04-26T07:54:19.068Z</time></trkpt><trkpt lat="45.7874867" lon="8.6474933"><ele>280.2</ele><time>2026-04-26T07:54:20.068Z</time></trkpt><trkpt lat="45.7873917" lon="8.6475817"><ele>281.4</ele><time>2026-04-26T07:54:21.069Z</time></trkpt><trkpt lat="45.787305" lon="8.6476617"><ele>282.6</ele><time>2026-04-26T07:54:22.068Z</time></trkpt><trkpt lat="45.787225" lon="8.6477517"><ele>283.8</ele><time>2026-04-26T07:54:23.068Z</time></trkpt><trkpt lat="45.78715" lon="8.64785"><ele>285.0</ele><time>2026-04-26T07:54:24.068Z</time></trkpt><trkpt lat="45.78708" lon="8.6479583"><ele>285.0</ele><time>2026-04-26T07:54:25.068Z</time></trkpt><trkpt lat="45.7870017" lon="8.6480733"><ele>285.0</ele><time>2026-04-26T07:54:26.068Z</time></trkpt><trkpt lat="45.7869183" lon="8.64819"><ele>285.0</ele><time>2026-04-26T07:54:27.068Z</time></trkpt><trkpt lat="45.78683" lon="8.6483067"><ele>285.0</ele><time>2026-04-26T07:54:28.068Z</time></trkpt><trkpt lat="45.7867367" lon="8.6484183"><ele>283.8</ele><time>2026-04-26T07:54:29.068Z</time></trkpt><trkpt lat="45.786655" lon="8.6485483"><ele>282.6</ele><time>2026-04-26T07:54:30.068Z</time></trkpt><trkpt lat="45.7865633" lon="8.648645"><ele>281.4</ele><time>2026-04-26T07:54:31.068Z</time></trkpt><trkpt lat="45.786485" lon="8.6487483"><ele>280.2</ele><time>2026-04-26T07:54:32.069Z</time></trkpt><trkpt lat="45.7864133" lon="8.648845"><ele>279.0</ele><time>2026-04-26T07:54:33.068Z</time></trkpt><trkpt lat="45.786345" lon="8.6489417"><ele>279.0</ele><time>2026-04-26T07:54:34.068Z</time></trkpt><trkpt lat="45.78627" lon="8.6490283"><ele>279.0</ele><time>2026-04-26T07:54:35.068Z</time></trkpt><trkpt lat="45.7862083" lon="8.64911"><ele>279.0</ele><time>2026-04-26T07:54:36.068Z</time></trkpt><trkpt lat="45.786155" lon="8.649175"><ele>279.0</ele><time>2026-04-26T07:54:37.068Z</time></trkpt><trkpt lat="45.7861033" lon="8.6492433"><ele>279.0</ele><time>2026-04-26T07:54:38.069Z</time></trkpt><trkpt lat="45.7860583" lon="8.649315"><ele>279.0</ele><time>2026-04-26T07:54:39.069Z</time></trkpt><trkpt lat="45.78599" lon="8.6494617"><ele>278.0</ele><time>2026-04-26T07:54:41.068Z</time></trkpt><trkpt lat="45.785945" lon="8.649535"><ele>277.0</ele><time>2026-04-26T07:54:42.068Z</time></trkpt><trkpt lat="45.7859033" lon="8.6496183"><ele>276.0</ele><time>2026-04-26T07:54:43.068Z</time></trkpt><trkpt lat="45.785855" lon="8.6497167"><ele>275.0</ele><time>2026-04-26T07:54:44.068Z</time></trkpt><trkpt lat="45.78581" lon="8.64984"><ele>274.0</ele><time>2026-04-26T07:54:45.068Z</time></trkpt><trkpt lat="45.7857633" lon="8.6499633"><ele>273.0</ele><time>2026-04-26T07:54:46.068Z</time></trkpt><trkpt lat="45.7857117" lon="8.6500767"><ele>273.0</ele><time>2026-04-26T07:54:47.068Z</time></trkpt><trkpt lat="45.78566" lon="8.6501883"><ele>273.0</ele><time>2026-04-26T07:54:48.068Z</time></trkpt><trkpt lat="45.7856117" lon="8.6503033"><ele>273.0</ele><time>2026-04-26T07:54:49.068Z</time></trkpt><trkpt lat="45.7855583" lon="8.6504033"><ele>273.0</ele><time>2026-04-26T07:54:50.068Z</time></trkpt><trkpt lat="45.7855033" lon="8.6505"><ele>273.0</ele><time>2026-04-26T07:54:51.068Z</time></trkpt><trkpt lat="45.78544" lon="8.6506017"><ele>272.6666666666667</ele><time>2026-04-26T07:54:52.068Z</time></trkpt><trkpt lat="45.7853683" lon="8.6506917"><ele>272.3333333333333</ele><time>2026-04-26T07:54:53.068Z</time></trkpt><trkpt lat="45.7853083" lon="8.6507833"><ele>272.0</ele><time>2026-04-26T07:54:54.068Z</time></trkpt><trkpt lat="45.7852467" lon="8.65088"><ele>271.66666666666663</ele><time>2026-04-26T07:54:55.068Z</time></trkpt><trkpt lat="45.7851883" lon="8.650975"><ele>271.3333333333333</ele><time>2026-04-26T07:54:56.068Z</time></trkpt><trkpt lat="45.7851367" lon="8.65106"><ele>271.0</ele><time>2026-04-26T07:54:57.068Z</time></trkpt><trkpt lat="45.78509" lon="8.651135"><ele>272.8</ele><time>2026-04-26T07:54:58.068Z</time></trkpt><trkpt lat="45.7850033" lon="8.65126"><ele>274.6</ele><time>2026-04-26T07:55:00.069Z</time></trkpt><trkpt lat="45.78493" lon="8.6513167"><ele>276.4</ele><time>2026-04-26T07:55:01.068Z</time></trkpt><trkpt lat="45.784855" lon="8.6513833"><ele>278.2</ele><time>2026-04-26T07:55:02.068Z</time></trkpt><trkpt lat="45.7847733" lon="8.6514433"><ele>280.0</ele><time>2026-04-26T07:55:03.068Z</time></trkpt><trkpt lat="45.7846967" lon="8.651495"><ele>280.0</ele><time>2026-04-26T07:55:04.069Z</time></trkpt><trkpt lat="45.7846233" lon="8.6515433"><ele>280.0</ele><time>2026-04-26T07:55:05.068Z</time></trkpt><trkpt lat="45.7845567" lon="8.651595"><ele>280.0</ele><time>2026-04-26T07:55:06.068Z</time></trkpt><trkpt lat="45.784505" lon="8.6516483"><ele>280.0</ele><time>2026-04-26T07:55:07.068Z</time></trkpt><trkpt lat="45.7844483" lon="8.6517183"><ele>280.0</ele><time>2026-04-26T07:55:08.068Z</time></trkpt><trkpt lat="45.7843833" lon="8.6517983"><ele>280.0</ele><time>2026-04-26T07:55:09.068Z</time></trkpt><trkpt lat="45.7843283" lon="8.65188"><ele>279.2</ele><time>2026-04-26T07:55:10.068Z</time></trkpt><trkpt lat="45.784285" lon="8.6519483"><ele>278.4</ele><time>2026-04-26T07:55:11.069Z</time></trkpt><trkpt lat="45.784205" lon="8.6520483"><ele>277.6</ele><time>2026-04-26T07:55:13.068Z</time></trkpt><trkpt lat="45.7841083" lon="8.6521267"><ele>276.8</ele><time>2026-04-26T07:55:15.068Z</time></trkpt><trkpt lat="45.7840267" lon="8.6521767"><ele>276.0</ele><time>2026-04-26T07:55:16.068Z</time></trkpt><trkpt lat="45.7839333" lon="8.6522367"><ele>277.1666666666667</ele><time>2026-04-26T07:55:17.068Z</time></trkpt><trkpt lat="45.7838583" lon="8.65229"><ele>278.3333333333333</ele><time>2026-04-26T07:55:18.068Z</time></trkpt><trkpt lat="45.78379" lon="8.6523333"><ele>279.5</ele><time>2026-04-26T07:55:19.068Z</time></trkpt><trkpt lat="45.7837283" lon="8.6523767"><ele>280.66666666666663</ele><time>2026-04-26T07:55:20.068Z</time></trkpt><trkpt lat="45.7836333" lon="8.6524517"><ele>281.8333333333333</ele><time>2026-04-26T07:55:22.068Z</time></trkpt><trkpt lat="45.7835683" lon="8.6524933"><ele>283.0</ele><time>2026-04-26T07:55:25.068Z</time></trkpt><trkpt lat="45.7834983" lon="8.6524533"><ele>283.0</ele><time>2026-04-26T07:57:14.069Z</time></trkpt><trkpt lat="45.7834167" lon="8.6524417"><ele>283.0</ele><time>2026-04-26T07:57:18.068Z</time></trkpt><trkpt lat="45.7833533" lon="8.6524583"><ele>283.0</ele><time>2026-04-26T07:57:23.068Z</time></trkpt><trkpt lat="45.78321" lon="8.65252"><ele>283.0</ele><time>2026-04-26T07:57:56.068Z</time></trkpt><trkpt lat="45.78309" lon="8.6525333"><ele>283.0</ele><time>2026-04-26T07:58:01.068Z</time></trkpt><trkpt lat="45.7829983" lon="8.6525467"><ele>283.0</ele><time>2026-04-26T07:58:05.068Z</time></trkpt><trkpt lat="45.7829333" lon="8.6525917"><ele>283.0</ele><time>2026-04-26T07:58:07.068Z</time></trkpt><trkpt lat="45.782835" lon="8.65262"><ele>283.0</ele><time>2026-04-26T07:58:10.068Z</time></trkpt><trkpt lat="45.782735" lon="8.652645"><ele>283.0</ele><time>2026-04-26T07:58:12.068Z</time></trkpt><trkpt lat="45.7826167" lon="8.6526833"><ele>283.0</ele><time>2026-04-26T07:58:14.068Z</time></trkpt><trkpt lat="45.7825" lon="8.6527033"><ele>282.6</ele><time>2026-04-26T07:58:16.068Z</time></trkpt><trkpt lat="45.7823967" lon="8.6527283"><ele>282.20000000000005</ele><time>2026-04-26T07:58:18.068Z</time></trkpt><trkpt lat="45.78231" lon="8.65275"><ele>281.8</ele><time>2026-04-26T07:58:20.068Z</time></trkpt><trkpt lat="45.7822133" lon="8.6527733"><ele>281.40000000000003</ele><time>2026-04-26T07:58:22.068Z</time></trkpt><trkpt lat="45.7821033" lon="8.6528"><ele>281.0</ele><time>2026-04-26T07:58:24.068Z</time></trkpt><trkpt lat="45.7819767" lon="8.6528467"><ele>281.7142857142857</ele><time>2026-04-26T07:58:26.069Z</time></trkpt><trkpt lat="45.7819133" lon="8.6528717"><ele>282.42857142857144</ele><time>2026-04-26T07:58:27.068Z</time></trkpt><trkpt lat="45.7818467" lon="8.6528933"><ele>283.1428571428571</ele><time>2026-04-26T07:58:28.068Z</time></trkpt><trkpt lat="45.781785" lon="8.6529133"><ele>283.8571428571429</ele><time>2026-04-26T07:58:29.068Z</time></trkpt><trkpt lat="45.7817217" lon="8.6529283"><ele>284.57142857142856</ele><time>2026-04-26T07:58:30.068Z</time></trkpt><trkpt lat="45.781655" lon="8.6529433"><ele>285.2857142857143</ele><time>2026-04-26T07:58:31.068Z</time></trkpt><trkpt lat="45.7815417" lon="8.6529617"><ele>286.0</ele><time>2026-04-26T07:58:33.068Z</time></trkpt><trkpt lat="45.7814217" lon="8.6529683"><ele>286.0</ele><time>2026-04-26T07:58:35.068Z</time></trkpt><trkpt lat="45.7813" lon="8.6529767"><ele>286.0</ele><time>2026-04-26T07:58:37.069Z</time></trkpt><trkpt lat="45.7811933" lon="8.6529817"><ele>286.0</ele><time>2026-04-26T07:58:39.068Z</time></trkpt><trkpt lat="45.7810983" lon="8.6529917"><ele>286.0</ele><time>2026-04-26T07:58:41.068Z</time></trkpt><trkpt lat="45.781" lon="8.6530117"><ele>286.0</ele><time>2026-04-26T07:58:43.068Z</time></trkpt><trkpt lat="45.7808933" lon="8.653045"><ele>286.40000000000003</ele><time>2026-04-26T07:58:45.068Z</time></trkpt><trkpt lat="45.7807733" lon="8.653075"><ele>286.8</ele><time>2026-04-26T07:58:47.068Z</time></trkpt><trkpt lat="45.780655" lon="8.6531083"><ele>287.20000000000005</ele><time>2026-04-26T07:58:49.068Z</time></trkpt><trkpt lat="45.7805633" lon="8.6531383"><ele>287.6</ele><time>2026-04-26T07:58:51.068Z</time></trkpt><trkpt lat="45.78046" lon="8.65316"><ele>288.0</ele><time>2026-04-26T07:58:53.068Z</time></trkpt><trkpt lat="45.780395" lon="8.6531633"><ele>288.0</ele><time>2026-04-26T07:58:54.068Z</time></trkpt><trkpt lat="45.7803283" lon="8.6531733"><ele>288.0</ele><time>2026-04-26T07:58:55.068Z</time></trkpt><trkpt lat="45.7802633" lon="8.6531733"><ele>288.0</ele><time>2026-04-26T07:58:56.068Z</time></trkpt><trkpt lat="45.7801983" lon="8.6531767"><ele>288.0</ele><time>2026-04-26T07:58:57.068Z</time></trkpt><trkpt lat="45.78013" lon="8.6531617"><ele>288.0</ele><time>2026-04-26T07:58:58.068Z</time></trkpt><trkpt lat="45.7800083" lon="8.6531617"><ele>288.0</ele><time>2026-04-26T07:59:00.068Z</time></trkpt><trkpt lat="45.77993" lon="8.65316"><ele>286.8</ele><time>2026-04-26T07:59:01.068Z</time></trkpt><trkpt lat="45.7798383" lon="8.653155"><ele>285.6</ele><time>2026-04-26T07:59:02.068Z</time></trkpt><trkpt lat="45.77974" lon="8.6531617"><ele>284.4</ele><time>2026-04-26T07:59:03.068Z</time></trkpt><trkpt lat="45.7796433" lon="8.6531867"><ele>283.2</ele><time>2026-04-26T07:59:04.068Z</time></trkpt><trkpt lat="45.7795433" lon="8.6532217"><ele>282.0</ele><time>2026-04-26T07:59:05.068Z</time></trkpt><trkpt lat="45.77946" lon="8.6532583"><ele>282.0</ele><time>2026-04-26T07:59:06.068Z</time></trkpt><trkpt lat="45.7793883" lon="8.6532783"><ele>282.0</ele><time>2026-04-26T07:59:07.068Z</time></trkpt><trkpt lat="45.7793117" lon="8.6533017"><ele>282.0</ele><time>2026-04-26T07:59:08.068Z</time></trkpt><trkpt lat="45.7792333" lon="8.6533283"><ele>282.0</ele><time>2026-04-26T07:59:09.068Z</time></trkpt><trkpt lat="45.77917" lon="8.6533733"><ele>282.0</ele><time>2026-04-26T07:59:10.068Z</time></trkpt><trkpt lat="45.7790567" lon="8.6534333"><ele>282.0</ele><time>2026-04-26T07:59:12.068Z</time></trkpt><trkpt lat="45.77895" lon="8.6535217"><ele>281.2857142857143</ele><time>2026-04-26T07:59:14.068Z</time></trkpt><trkpt lat="45.7789033" lon="8.65359"><ele>280.57142857142856</ele><time>2026-04-26T07:59:15.068Z</time></trkpt><trkpt lat="45.77886" lon="8.6536717"><ele>279.85714285714283</ele><time>2026-04-26T07:59:16.068Z</time></trkpt><trkpt lat="45.7788267" lon="8.6537567"><ele>279.1428571428571</ele><time>2026-04-26T07:59:17.068Z</time></trkpt><trkpt lat="45.7787833" lon="8.6538417"><ele>278.4285714285714</ele><time>2026-04-26T07:59:18.068Z</time></trkpt><trkpt lat="45.7787233" lon="8.6539133"><ele>277.7142857142857</ele><time>2026-04-26T07:59:19.068Z</time></trkpt><trkpt lat="45.7786467" lon="8.6539667"><ele>277.0</ele><time>2026-04-26T07:59:20.068Z</time></trkpt><trkpt lat="45.77856" lon="8.654005"><ele>280.25</ele><time>2026-04-26T07:59:21.069Z</time></trkpt><trkpt lat="45.77845" lon="8.6540283"><ele>283.5</ele><time>2026-04-26T07:59:22.068Z</time></trkpt><trkpt lat="45.7783333" lon="8.6540417"><ele>286.75</ele><time>2026-04-26T07:59:23.068Z</time></trkpt><trkpt lat="45.7782133" lon="8.6540583"><ele>290.0</ele><time>2026-04-26T07:59:24.068Z</time></trkpt><trkpt lat="45.7780933" lon="8.654085"><ele>290.0</ele><time>2026-04-26T07:59:25.068Z</time></trkpt><trkpt lat="45.77798" lon="8.6541033"><ele>290.0</ele><time>2026-04-26T07:59:26.068Z</time></trkpt><trkpt lat="45.777855" lon="8.654115"><ele>290.0</ele><time>2026-04-26T07:59:27.068Z</time></trkpt><trkpt lat="45.777745" lon="8.6541167"><ele>290.0</ele><time>2026-04-26T07:59:28.068Z</time></trkpt><trkpt lat="45.7776367" lon="8.65412"><ele>290.2</ele><time>2026-04-26T07:59:29.068Z</time></trkpt><trkpt lat="45.7775383" lon="8.654135"><ele>290.4</ele><time>2026-04-26T07:59:30.068Z</time></trkpt><trkpt lat="45.7774617" lon="8.6541483"><ele>290.6</ele><time>2026-04-26T07:59:31.068Z</time></trkpt><trkpt lat="45.7773567" lon="8.65418"><ele>290.8</ele><time>2026-04-26T07:59:33.068Z</time></trkpt><trkpt lat="45.77729" lon="8.6541883"><ele>291.0</ele><time>2026-04-26T07:59:35.068Z</time></trkpt><trkpt lat="45.7773967" lon="8.65431"><ele>291.0</ele><time>2026-04-26T07:59:43.069Z</time></trkpt><trkpt lat="45.7775267" lon="8.6543767"><ele>291.0</ele><time>2026-04-26T07:59:44.068Z</time></trkpt><trkpt lat="45.7776183" lon="8.65441"><ele>291.0</ele><time>2026-04-26T07:59:45.068Z</time></trkpt><trkpt lat="45.777705" lon="8.65443"><ele>291.0</ele><time>2026-04-26T07:59:46.068Z</time></trkpt><trkpt lat="45.7777933" lon="8.6544533"><ele>291.0</ele><time>2026-04-26T07:59:47.069Z</time></trkpt><trkpt lat="45.7778717" lon="8.6544683"><ele>293.0</ele><time>2026-04-26T07:59:48.068Z</time></trkpt><trkpt lat="45.7779417" lon="8.6544917"><ele>295.0</ele><time>2026-04-26T07:59:49.068Z</time></trkpt><trkpt lat="45.7780133" lon="8.6545067"><ele>297.0</ele><time>2026-04-26T07:59:50.068Z</time></trkpt><trkpt lat="45.7780867" lon="8.6545267"><ele>299.0</ele><time>2026-04-26T07:59:51.068Z</time></trkpt><trkpt lat="45.7781717" lon="8.6545683"><ele>301.0</ele><time>2026-04-26T07:59:53.068Z</time></trkpt><trkpt lat="45.7780468" lon="8.6545797"><ele>303.0</ele><time>2026-04-26T08:00:39.178Z</time></trkpt><trkpt lat="45.7779861" lon="8.6546086"><ele>303.0</ele><time>2026-04-26T08:00:46.104Z</time></trkpt><trkpt lat="45.7779234" lon="8.6546393"><ele>303.0</ele><time>2026-04-26T08:00:55.128Z</time></trkpt><trkpt lat="45.77786" lon="8.6546617"><ele>303.0</ele><time>2026-04-26T08:01:04.068Z</time></trkpt><trkpt lat="45.7777833" lon="8.6546917"><ele>303.0</ele><time>2026-04-26T08:01:12.068Z</time></trkpt><trkpt lat="45.7777333" lon="8.6547633"><ele>303.0</ele><time>2026-04-26T08:01:15.068Z</time></trkpt><trkpt lat="45.777605" lon="8.6548567"><ele>303.0</ele><time>2026-04-26T08:01:19.068Z</time></trkpt><trkpt lat="45.7775617" lon="8.6549517"><ele>303.3333333333333</ele><time>2026-04-26T08:01:22.068Z</time></trkpt><trkpt lat="45.777565" lon="8.6550483"><ele>303.6666666666667</ele><time>2026-04-26T08:01:26.068Z</time></trkpt><trkpt lat="45.7775933" lon="8.655165"><ele>304.0</ele><time>2026-04-26T08:01:29.068Z</time></trkpt><trkpt lat="45.77763" lon="8.65527"><ele>304.33333333333337</ele><time>2026-04-26T08:01:33.068Z</time></trkpt><trkpt lat="45.7776417" lon="8.6553617"><ele>304.6666666666667</ele><time>2026-04-26T08:01:37.069Z</time></trkpt><trkpt lat="45.7776333" lon="8.65547"><ele>305.0</ele><time>2026-04-26T08:01:42.068Z</time></trkpt><trkpt lat="45.77754" lon="8.6555433"><ele>307.1666666666667</ele><time>2026-04-26T08:01:46.068Z</time></trkpt><trkpt lat="45.7774617" lon="8.6556083"><ele>309.33333333333337</ele><time>2026-04-26T08:01:48.068Z</time></trkpt><trkpt lat="45.7773967" lon="8.6557"><ele>311.5</ele><time>2026-04-26T08:01:51.068Z</time></trkpt><trkpt lat="45.7774033" lon="8.6558017"><ele>313.6666666666667</ele><time>2026-04-26T08:01:55.069Z</time></trkpt><trkpt lat="45.7774383" lon="8.655885"><ele>315.8333333333333</ele><time>2026-04-26T08:01:58.069Z</time></trkpt><trkpt lat="45.777495" lon="8.655965"><ele>318.0</ele><time>2026-04-26T08:02:01.068Z</time></trkpt><trkpt lat="45.7775517" lon="8.6560333"><ele>318.0</ele><time>2026-04-26T08:02:02.068Z</time></trkpt><trkpt lat="45.7776083" lon="8.6561017"><ele>318.0</ele><time>2026-04-26T08:02:04.068Z</time></trkpt><trkpt lat="45.7776783" lon="8.65615"><ele>318.0</ele><time>2026-04-26T08:02:06.068Z</time></trkpt><trkpt lat="45.7777483" lon="8.6561633"><ele>318.0</ele><time>2026-04-26T08:02:08.068Z</time></trkpt><trkpt lat="45.7778017" lon="8.656255"><ele>318.0</ele><time>2026-04-26T08:02:11.068Z</time></trkpt><trkpt lat="45.7778617" lon="8.6563417"><ele>318.0</ele><time>2026-04-26T08:02:13.068Z</time></trkpt><trkpt lat="45.7779233" lon="8.65643"><ele>319.7142857142857</ele><time>2026-04-26T08:02:15.068Z</time></trkpt><trkpt lat="45.777975" lon="8.656505"><ele>321.42857142857144</ele><time>2026-04-26T08:02:17.068Z</time></trkpt><trkpt lat="45.77802" lon="8.65657"><ele>323.14285714285717</ele><time>2026-04-26T08:02:20.068Z</time></trkpt><trkpt lat="45.7780333" lon="8.6566667"><ele>324.8571428571429</ele><time>2026-04-26T08:02:26.068Z</time></trkpt><trkpt lat="45.7780433" lon="8.65676"><ele>326.57142857142856</ele><time>2026-04-26T08:02:33.068Z</time></trkpt><trkpt lat="45.778085" lon="8.656875"><ele>328.28571428571433</ele><time>2026-04-26T08:02:36.068Z</time></trkpt><trkpt lat="45.7780817" lon="8.65699"><ele>330.0</ele><time>2026-04-26T08:02:39.068Z</time></trkpt><trkpt lat="45.778055" lon="8.6571383"><ele>331.4</ele><time>2026-04-26T08:02:43.068Z</time></trkpt><trkpt lat="45.7780083" lon="8.6572567"><ele>332.8</ele><time>2026-04-26T08:02:46.068Z</time></trkpt><trkpt lat="45.7780483" lon="8.657365"><ele>334.20000000000005</ele><time>2026-04-26T08:02:49.068Z</time></trkpt><trkpt lat="45.7781" lon="8.6574367"><ele>335.6</ele><time>2026-04-26T08:02:52.068Z</time></trkpt><trkpt lat="45.778085" lon="8.6576183"><ele>337.0</ele><time>2026-04-26T08:03:10.068Z</time></trkpt><trkpt lat="45.7781067" lon="8.6577283"><ele>338.8333333333333</ele><time>2026-04-26T08:03:16.068Z</time></trkpt><trkpt lat="45.7781683" lon="8.6577883"><ele>340.66666666666663</ele><time>2026-04-26T08:03:20.068Z</time></trkpt><trkpt lat="45.778185" lon="8.6578783"><ele>342.5</ele><time>2026-04-26T08:03:24.068Z</time></trkpt><trkpt lat="45.7782433" lon="8.6579633"><ele>344.3333333333333</ele><time>2026-04-26T08:03:28.068Z</time></trkpt><trkpt lat="45.7782967" lon="8.6580233"><ele>346.1666666666667</ele><time>2026-04-26T08:03:30.068Z</time></trkpt><trkpt lat="45.7783617" lon="8.6581017"><ele>348.0</ele><time>2026-04-26T08:03:32.068Z</time></trkpt><trkpt lat="45.7784267" lon="8.6581867"><ele>348.0</ele><time>2026-04-26T08:03:34.068Z</time></trkpt><trkpt lat="45.778495" lon="8.6582583"><ele>348.0</ele><time>2026-04-26T08:03:36.068Z</time></trkpt><trkpt lat="45.7785467" lon="8.6583183"><ele>348.0</ele><time>2026-04-26T08:03:37.068Z</time></trkpt><trkpt lat="45.778605" lon="8.6583867"><ele>348.0</ele><time>2026-04-26T08:03:38.068Z</time></trkpt><trkpt lat="45.778665" lon="8.65845"><ele>348.0</ele><time>2026-04-26T08:03:40.068Z</time></trkpt><trkpt lat="45.7787433" lon="8.658515"><ele>348.0</ele><time>2026-04-26T08:03:44.068Z</time></trkpt><trkpt lat="45.77872" lon="8.6586417"><ele>350.3333333333333</ele><time>2026-04-26T08:04:46.068Z</time></trkpt><trkpt lat="45.7786333" lon="8.658655"><ele>352.6666666666667</ele><time>2026-04-26T08:04:48.068Z</time></trkpt><trkpt lat="45.7785667" lon="8.6586583"><ele>355.0</ele><time>2026-04-26T08:04:49.068Z</time></trkpt><trkpt lat="45.7784867" lon="8.658655"><ele>357.33333333333337</ele><time>2026-04-26T08:04:50.068Z</time></trkpt><trkpt lat="45.778395" lon="8.65865"><ele>359.6666666666667</ele><time>2026-04-26T08:04:51.068Z</time></trkpt><trkpt lat="45.778305" lon="8.658645"><ele>362.0</ele><time>2026-04-26T08:04:52.068Z</time></trkpt><trkpt lat="45.77822" lon="8.658645"><ele>362.0</ele><time>2026-04-26T08:04:53.068Z</time></trkpt><trkpt lat="45.7781433" lon="8.658655"><ele>362.0</ele><time>2026-04-26T08:04:54.068Z</time></trkpt><trkpt lat="45.77807" lon="8.65866"><ele>362.0</ele><time>2026-04-26T08:04:55.069Z</time></trkpt><trkpt lat="45.7779967" lon="8.658665"><ele>362.0</ele><time>2026-04-26T08:04:56.068Z</time></trkpt><trkpt lat="45.7779283" lon="8.6586633"><ele>362.0</ele><time>2026-04-26T08:04:57.068Z</time></trkpt><trkpt lat="45.77783" lon="8.6586483"><ele>362.0</ele><time>2026-04-26T08:04:59.069Z</time></trkpt><trkpt lat="45.7777617" lon="8.6586233"><ele>362.83333333333337</ele><time>2026-04-26T08:05:02.068Z</time></trkpt><trkpt lat="45.7776567" lon="8.6585933"><ele>363.6666666666667</ele><time>2026-04-26T08:05:29.068Z</time></trkpt><trkpt lat="45.7775917" lon="8.6585367"><ele>364.5</ele><time>2026-04-26T08:05:34.068Z</time></trkpt><trkpt lat="45.7775167" lon="8.6585417"><ele>365.3333333333333</ele><time>2026-04-26T08:05:36.068Z</time></trkpt><trkpt lat="45.7774233" lon="8.658575"><ele>366.16666666666663</ele><time>2026-04-26T08:05:38.068Z</time></trkpt><trkpt lat="45.77735" lon="8.658575"><ele>367.0</ele><time>2026-04-26T08:05:40.068Z</time></trkpt><trkpt lat="45.7772167" lon="8.658645"><ele>367.0</ele><time>2026-04-26T08:06:03.068Z</time></trkpt><trkpt lat="45.7771317" lon="8.6586383"><ele>367.0</ele><time>2026-04-26T08:06:05.068Z</time></trkpt><trkpt lat="45.777015" lon="8.6586467"><ele>367.0</ele><time>2026-04-26T08:06:07.068Z</time></trkpt><trkpt lat="45.7769067" lon="8.6586483"><ele>367.0</ele><time>2026-04-26T08:06:09.068Z</time></trkpt><trkpt lat="45.776815" lon="8.6586317"><ele>367.0</ele><time>2026-04-26T08:06:11.068Z</time></trkpt><trkpt lat="45.7767433" lon="8.6586317"><ele>367.40000000000003</ele><time>2026-04-26T08:06:13.069Z</time></trkpt><trkpt lat="45.7766533" lon="8.6586217"><ele>367.8</ele><time>2026-04-26T08:06:15.068Z</time></trkpt><trkpt lat="45.7764933" lon="8.6586367"><ele>368.2</ele><time>2026-04-26T08:06:17.068Z</time></trkpt><trkpt lat="45.7764067" lon="8.6586467"><ele>368.6</ele><time>2026-04-26T08:06:18.068Z</time></trkpt><trkpt lat="45.7763233" lon="8.6586417"><ele>369.0</ele><time>2026-04-26T08:06:19.068Z</time></trkpt><trkpt lat="45.7762483" lon="8.65864"><ele>369.0</ele><time>2026-04-26T08:06:20.068Z</time></trkpt><trkpt lat="45.7761683" lon="8.6586283"><ele>369.0</ele><time>2026-04-26T08:06:21.068Z</time></trkpt><trkpt lat="45.7761033" lon="8.6586283"><ele>369.0</ele><time>2026-04-26T08:06:22.068Z</time></trkpt><trkpt lat="45.7760367" lon="8.6586283"><ele>369.0</ele><time>2026-04-26T08:06:23.068Z</time></trkpt><trkpt lat="45.7759617" lon="8.6586117"><ele>369.0</ele><time>2026-04-26T08:06:24.068Z</time></trkpt><trkpt lat="45.775875" lon="8.65857"><ele>369.0</ele><time>2026-04-26T08:06:25.068Z</time></trkpt><trkpt lat="45.7757833" lon="8.658515"><ele>367.1666666666667</ele><time>2026-04-26T08:06:26.068Z</time></trkpt><trkpt lat="45.7757017" lon="8.6584767"><ele>365.3333333333333</ele><time>2026-04-26T08:06:27.068Z</time></trkpt><trkpt lat="45.775625" lon="8.65844"><ele>363.5</ele><time>2026-04-26T08:06:28.068Z</time></trkpt><trkpt lat="45.77554" lon="8.6584117"><ele>361.66666666666663</ele><time>2026-04-26T08:06:29.069Z</time></trkpt><trkpt lat="45.7754483" lon="8.65839"><ele>359.8333333333333</ele><time>2026-04-26T08:06:30.068Z</time></trkpt><trkpt lat="45.7753667" lon="8.6583683"><ele>358.0</ele><time>2026-04-26T08:06:31.068Z</time></trkpt><trkpt lat="45.7752917" lon="8.65834"><ele>358.0</ele><time>2026-04-26T08:06:32.068Z</time></trkpt><trkpt lat="45.7752217" lon="8.658305"><ele>358.0</ele><time>2026-04-26T08:06:33.068Z</time></trkpt><trkpt lat="45.77515" lon="8.6582717"><ele>358.0</ele><time>2026-04-26T08:06:34.068Z</time></trkpt><trkpt lat="45.7750717" lon="8.6582483"><ele>358.0</ele><time>2026-04-26T08:06:35.068Z</time></trkpt><trkpt lat="45.7749967" lon="8.65823"><ele>358.0</ele><time>2026-04-26T08:06:36.069Z</time></trkpt><trkpt lat="45.7749217" lon="8.6582117"><ele>358.0</ele><time>2026-04-26T08:06:37.068Z</time></trkpt><trkpt lat="45.7748433" lon="8.6581817"><ele>358.0</ele><time>2026-04-26T08:06:38.068Z</time></trkpt><trkpt lat="45.774765" lon="8.65817"><ele>358.0</ele><time>2026-04-26T08:06:39.068Z</time></trkpt><trkpt lat="45.77469" lon="8.6581533"><ele>358.0</ele><time>2026-04-26T08:06:40.069Z</time></trkpt><trkpt lat="45.77461" lon="8.6581383"><ele>358.0</ele><time>2026-04-26T08:06:41.068Z</time></trkpt><trkpt lat="45.774525" lon="8.65811"><ele>358.0</ele><time>2026-04-26T08:06:42.069Z</time></trkpt><trkpt lat="45.77446" lon="8.65811"><ele>358.0</ele><time>2026-04-26T08:06:43.068Z</time></trkpt><trkpt lat="45.7743483" lon="8.6581067"><ele>358.0</ele><time>2026-04-26T08:06:45.068Z</time></trkpt><trkpt lat="45.7742567" lon="8.6580817"><ele>358.0</ele><time>2026-04-26T08:06:47.068Z</time></trkpt><trkpt lat="45.7741967" lon="8.6581133"><ele>358.0</ele><time>2026-04-26T08:06:54.068Z</time></trkpt><trkpt lat="45.7741283" lon="8.6581133"><ele>358.0</ele><time>2026-04-26T08:06:57.068Z</time></trkpt><trkpt lat="45.77409" lon="8.6581867"><ele>358.0</ele><time>2026-04-26T08:07:00.069Z</time></trkpt><trkpt lat="45.7740717" lon="8.658315"><ele>358.0</ele><time>2026-04-26T08:07:03.068Z</time></trkpt><trkpt lat="45.7740517" lon="8.65845"><ele>358.0</ele><time>2026-04-26T08:07:06.068Z</time></trkpt><trkpt lat="45.77404" lon="8.6585667"><ele>358.0</ele><time>2026-04-26T08:07:08.068Z</time></trkpt><trkpt lat="45.774025" lon="8.6586683"><ele>358.0</ele><time>2026-04-26T08:07:10.068Z</time></trkpt><trkpt lat="45.7740217" lon="8.65877"><ele>358.0</ele><time>2026-04-26T08:07:12.068Z</time></trkpt><trkpt lat="45.7740133" lon="8.65886"><ele>358.0</ele><time>2026-04-26T08:07:14.068Z</time></trkpt><trkpt lat="45.7739817" lon="8.6589917"><ele>358.0</ele><time>2026-04-26T08:07:17.069Z</time></trkpt><trkpt lat="45.7739793" lon="8.6591031"><ele>360.42857142857144</ele><time>2026-04-26T08:07:20.051Z</time></trkpt><trkpt lat="45.7739332" lon="8.6591904"><ele>362.8571428571429</ele><time>2026-04-26T08:07:23.088Z</time></trkpt><trkpt lat="45.7738657" lon="8.6591802"><ele>365.28571428571433</ele><time>2026-04-26T08:07:27.076Z</time></trkpt><trkpt lat="45.773797" lon="8.6591571"><ele>367.7142857142857</ele><time>2026-04-26T08:07:35.129Z</time></trkpt><trkpt lat="45.7737161" lon="8.6591383"><ele>370.1428571428571</ele><time>2026-04-26T08:07:39.131Z</time></trkpt><trkpt lat="45.773632" lon="8.6591503"><ele>372.5714285714286</ele><time>2026-04-26T08:07:42.053Z</time></trkpt><trkpt lat="45.7735712" lon="8.6591763"><ele>375.0</ele><time>2026-04-26T08:07:44.076Z</time></trkpt><trkpt lat="45.7734933" lon="8.6591796"><ele>376.5714285714286</ele><time>2026-04-26T08:07:46.072Z</time></trkpt><trkpt lat="45.7734226" lon="8.6591683"><ele>378.1428571428571</ele><time>2026-04-26T08:07:48.169Z</time></trkpt><trkpt lat="45.7733502" lon="8.659186"><ele>379.7142857142857</ele><time>2026-04-26T08:07:50.069Z</time></trkpt><trkpt lat="45.7732781" lon="8.6592214"><ele>381.28571428571433</ele><time>2026-04-26T08:07:52.068Z</time></trkpt><trkpt lat="45.7732117" lon="8.6592443"><ele>382.8571428571429</ele><time>2026-04-26T08:07:54.151Z</time></trkpt><trkpt lat="45.773138" lon="8.6592502"><ele>384.42857142857144</ele><time>2026-04-26T08:07:56.145Z</time></trkpt><trkpt lat="45.773061" lon="8.6592879"><ele>386.0</ele><time>2026-04-26T08:07:58.139Z</time></trkpt><trkpt lat="45.7729757" lon="8.6593462"><ele>385.99999999999994</ele><time>2026-04-26T08:08:00.092Z</time></trkpt><trkpt lat="45.7728935" lon="8.6593878"><ele>386.0</ele><time>2026-04-26T08:08:02.127Z</time></trkpt><trkpt lat="45.7728129" lon="8.6594397"><ele>386.0</ele><time>2026-04-26T08:08:04.131Z</time></trkpt><trkpt lat="45.7727441" lon="8.6594721"><ele>386.0</ele><time>2026-04-26T08:08:06.115Z</time></trkpt><trkpt lat="45.7726912" lon="8.6595226"><ele>385.99999999999994</ele><time>2026-04-26T08:08:07.99Z</time></trkpt><trkpt lat="45.7726224" lon="8.6595731"><ele>386.0</ele><time>2026-04-26T08:08:10.102Z</time></trkpt><trkpt lat="45.7725603" lon="8.659628"><ele>390.6</ele><time>2026-04-26T08:08:12.096Z</time></trkpt><trkpt lat="45.7724928" lon="8.6596525"><ele>395.20000000000005</ele><time>2026-04-26T08:08:14.09Z</time></trkpt><trkpt lat="45.7724283" lon="8.6596867"><ele>399.79999999999995</ele><time>2026-04-26T08:08:15.068Z</time></trkpt><trkpt lat="45.7723433" lon="8.6597533"><ele>404.4</ele><time>2026-04-26T08:08:17.068Z</time></trkpt><trkpt lat="45.7722783" lon="8.6598183"><ele>409.0</ele><time>2026-04-26T08:08:19.068Z</time></trkpt><trkpt lat="45.7721583" lon="8.6599533"><ele>409.0</ele><time>2026-04-26T08:08:22.068Z</time></trkpt><trkpt lat="45.7720633" lon="8.66002"><ele>409.0</ele><time>2026-04-26T08:08:23.068Z</time></trkpt><trkpt lat="45.7719833" lon="8.6601033"><ele>409.0</ele><time>2026-04-26T08:08:25.068Z</time></trkpt><trkpt lat="45.7719317" lon="8.660225"><ele>409.0</ele><time>2026-04-26T08:08:27.068Z</time></trkpt><trkpt lat="45.7719383" lon="8.6603417"><ele>409.0</ele><time>2026-04-26T08:08:29.069Z</time></trkpt><trkpt lat="45.7720217" lon="8.6604667"><ele>411.6666666666667</ele><time>2026-04-26T08:08:31.068Z</time></trkpt><trkpt lat="45.7721033" lon="8.6605367"><ele>414.33333333333337</ele><time>2026-04-26T08:08:32.068Z</time></trkpt><trkpt lat="45.772175" lon="8.66059"><ele>417.0</ele><time>2026-04-26T08:08:33.068Z</time></trkpt><trkpt lat="45.7722517" lon="8.6606383"><ele>419.66666666666663</ele><time>2026-04-26T08:08:34.069Z</time></trkpt><trkpt lat="45.7723117" lon="8.66068"><ele>422.3333333333333</ele><time>2026-04-26T08:08:35.068Z</time></trkpt><trkpt lat="45.7723933" lon="8.66075"><ele>425.0</ele><time>2026-04-26T08:08:37.068Z</time></trkpt><trkpt lat="45.77245" lon="8.66085"><ele>425.0</ele><time>2026-04-26T08:08:39.068Z</time></trkpt><trkpt lat="45.7724917" lon="8.660925"><ele>425.0</ele><time>2026-04-26T08:08:41.068Z</time></trkpt><trkpt lat="45.7725933" lon="8.6609717"><ele>425.0</ele><time>2026-04-26T08:09:37.068Z</time></trkpt><trkpt lat="45.7727233" lon="8.6610217"><ele>425.0</ele><time>2026-04-26T08:09:49.068Z</time></trkpt><trkpt lat="45.772695" lon="8.6611233"><ele>425.0</ele><time>2026-04-26T08:09:52.068Z</time></trkpt><trkpt lat="45.7727367" lon="8.6612017"><ele>428.6</ele><time>2026-04-26T08:09:57.068Z</time></trkpt><trkpt lat="45.7728283" lon="8.6612883"><ele>432.2</ele><time>2026-04-26T08:10:07.068Z</time></trkpt><trkpt lat="45.7729183" lon="8.661365"><ele>435.79999999999995</ele><time>2026-04-26T08:10:09.068Z</time></trkpt><trkpt lat="45.77306" lon="8.661445"><ele>439.4</ele><time>2026-04-26T08:10:12.068Z</time></trkpt><trkpt lat="45.7731233" lon="8.6614733"><ele>443.0</ele><time>2026-04-26T08:10:13.068Z</time></trkpt><trkpt lat="45.7732217" lon="8.66151"><ele>443.0</ele><time>2026-04-26T08:10:15.068Z</time></trkpt><trkpt lat="45.7732833" lon="8.6615317"><ele>442.99999999999994</ele><time>2026-04-26T08:10:16.068Z</time></trkpt><trkpt lat="45.7734083" lon="8.6615767"><ele>442.99999999999994</ele><time>2026-04-26T08:10:18.068Z</time></trkpt><trkpt lat="45.7735067" lon="8.66163"><ele>443.0</ele><time>2026-04-26T08:10:20.067Z</time></trkpt><trkpt lat="45.77359" lon="8.6616867"><ele>443.0</ele><time>2026-04-26T08:10:22.067Z</time></trkpt><trkpt lat="45.773675" lon="8.6617417"><ele>442.0</ele><time>2026-04-26T08:10:24.067Z</time></trkpt><trkpt lat="45.7737383" lon="8.6617833"><ele>440.99999999999994</ele><time>2026-04-26T08:10:25.067Z</time></trkpt><trkpt lat="45.77382" lon="8.661835"><ele>439.99999999999994</ele><time>2026-04-26T08:10:26.067Z</time></trkpt><trkpt lat="45.7739133" lon="8.661905"><ele>439.0</ele><time>2026-04-26T08:10:27.067Z</time></trkpt><trkpt lat="45.7740033" lon="8.661975"><ele>438.0</ele><time>2026-04-26T08:10:28.067Z</time></trkpt><trkpt lat="45.7740767" lon="8.66204"><ele>437.2</ele><time>2026-04-26T08:10:29.067Z</time></trkpt><trkpt lat="45.7741483" lon="8.6621267"><ele>436.4</ele><time>2026-04-26T08:10:30.067Z</time></trkpt><trkpt lat="45.774215" lon="8.662205"><ele>435.59999999999997</ele><time>2026-04-26T08:10:31.068Z</time></trkpt><trkpt lat="45.774295" lon="8.6622983"><ele>434.79999999999995</ele><time>2026-04-26T08:10:32.068Z</time></trkpt><trkpt lat="45.7743717" lon="8.662385"><ele>434.0</ele><time>2026-04-26T08:10:33.067Z</time></trkpt><trkpt lat="45.7744417" lon="8.6624667"><ele>433.99999999999994</ele><time>2026-04-26T08:10:34.068Z</time></trkpt><trkpt lat="45.7745067" lon="8.6625417"><ele>434.0</ele><time>2026-04-26T08:10:35.067Z</time></trkpt><trkpt lat="45.7745817" lon="8.6626383"><ele>434.0</ele><time>2026-04-26T08:10:37.067Z</time></trkpt><trkpt lat="45.7746333" lon="8.6627183"><ele>434.0</ele><time>2026-04-26T08:10:40.068Z</time></trkpt><trkpt lat="45.7746783" lon="8.662785"><ele>433.99999999999994</ele><time>2026-04-26T08:10:43.067Z</time></trkpt><trkpt lat="45.7747033" lon="8.662875"><ele>434.0</ele><time>2026-04-26T08:10:47.067Z</time></trkpt><trkpt lat="45.774725" lon="8.662995"><ele>433.4</ele><time>2026-04-26T08:10:50.067Z</time></trkpt><trkpt lat="45.7747467" lon="8.6631183"><ele>432.79999999999995</ele><time>2026-04-26T08:10:53.067Z</time></trkpt><trkpt lat="45.7747617" lon="8.663235"><ele>432.20000000000005</ele><time>2026-04-26T08:10:55.067Z</time></trkpt><trkpt lat="45.7747617" lon="8.663365"><ele>431.6</ele><time>2026-04-26T08:10:57.067Z</time></trkpt><trkpt lat="45.7747667" lon="8.66351"><ele>431.0</ele><time>2026-04-26T08:10:59.067Z</time></trkpt><trkpt lat="45.7747333" lon="8.66369"><ele>430.66666666666663</ele><time>2026-04-26T08:11:01.067Z</time></trkpt><trkpt lat="45.774705" lon="8.6637983"><ele>430.3333333333333</ele><time>2026-04-26T08:11:02.067Z</time></trkpt><trkpt lat="45.7746733" lon="8.663915"><ele>430.0</ele><time>2026-04-26T08:11:03.067Z</time></trkpt><trkpt lat="45.77465" lon="8.6640333"><ele>429.66666666666663</ele><time>2026-04-26T08:11:04.067Z</time></trkpt><trkpt lat="45.7746267" lon="8.6641483"><ele>429.3333333333333</ele><time>2026-04-26T08:11:05.067Z</time></trkpt><trkpt lat="45.774605" lon="8.6642483"><ele>429.0</ele><time>2026-04-26T08:11:06.067Z</time></trkpt><trkpt lat="45.7745833" lon="8.6643333"><ele>429.2857142857143</ele><time>2026-04-26T08:11:07.067Z</time></trkpt><trkpt lat="45.7745483" lon="8.6644683"><ele>429.57142857142856</ele><time>2026-04-26T08:11:09.067Z</time></trkpt><trkpt lat="45.774555" lon="8.6645767"><ele>429.8571428571429</ele><time>2026-04-26T08:11:11.067Z</time></trkpt><trkpt lat="45.77457" lon="8.6646767"><ele>430.1428571428571</ele><time>2026-04-26T08:11:13.067Z</time></trkpt><trkpt lat="45.7746067" lon="8.6647533"><ele>430.4285714285714</ele><time>2026-04-26T08:11:15.067Z</time></trkpt><trkpt lat="45.7746567" lon="8.6648183"><ele>430.7142857142857</ele><time>2026-04-26T08:11:18.067Z</time></trkpt><trkpt lat="45.7746967" lon="8.6648883"><ele>431.0</ele><time>2026-04-26T08:11:21.067Z</time></trkpt><trkpt lat="45.7747567" lon="8.6649633"><ele>431.0</ele><time>2026-04-26T08:11:23.067Z</time></trkpt><trkpt lat="45.774865" lon="8.6650717"><ele>431.0</ele><time>2026-04-26T08:11:25.067Z</time></trkpt><trkpt lat="45.7749467" lon="8.665145"><ele>431.0</ele><time>2026-04-26T08:11:26.067Z</time></trkpt><trkpt lat="45.7750317" lon="8.6652233"><ele>431.0</ele><time>2026-04-26T08:11:27.067Z</time></trkpt><trkpt lat="45.77511" lon="8.6652933"><ele>431.0</ele><time>2026-04-26T08:11:28.067Z</time></trkpt><trkpt lat="45.7751783" lon="8.6653467"><ele>431.99999999999994</ele><time>2026-04-26T08:11:29.067Z</time></trkpt><trkpt lat="45.77525" lon="8.6653867"><ele>433.0</ele><time>2026-04-26T08:11:30.068Z</time></trkpt><trkpt lat="45.775315" lon="8.6654283"><ele>434.0</ele><time>2026-04-26T08:11:31.067Z</time></trkpt><trkpt lat="45.7753883" lon="8.6654683"><ele>435.0</ele><time>2026-04-26T08:11:32.067Z</time></trkpt><trkpt lat="45.7754633" lon="8.6655067"><ele>435.99999999999994</ele><time>2026-04-26T08:11:33.067Z</time></trkpt><trkpt lat="45.77553" lon="8.6655433"><ele>437.0</ele><time>2026-04-26T08:11:34.068Z</time></trkpt><trkpt lat="45.7756067" lon="8.665585"><ele>437.0</ele><time>2026-04-26T08:11:35.067Z</time></trkpt><trkpt lat="45.7756883" lon="8.6656267"><ele>437.00000000000006</ele><time>2026-04-26T08:11:36.067Z</time></trkpt><trkpt lat="45.7757767" lon="8.66568"><ele>437.00000000000006</ele><time>2026-04-26T08:11:37.067Z</time></trkpt><trkpt lat="45.775865" lon="8.6657333"><ele>437.0</ele><time>2026-04-26T08:11:38.068Z</time></trkpt><trkpt lat="45.7759483" lon="8.66578"><ele>437.0</ele><time>2026-04-26T08:11:39.067Z</time></trkpt><trkpt lat="45.7760267" lon="8.6658183"><ele>436.16666666666663</ele><time>2026-04-26T08:11:40.067Z</time></trkpt><trkpt lat="45.7760933" lon="8.6658583"><ele>435.3333333333333</ele><time>2026-04-26T08:11:41.067Z</time></trkpt><trkpt lat="45.7761567" lon="8.6659033"><ele>434.5</ele><time>2026-04-26T08:11:42.067Z</time></trkpt><trkpt lat="45.7762417" lon="8.66597"><ele>433.66666666666663</ele><time>2026-04-26T08:11:44.067Z</time></trkpt><trkpt lat="45.7763033" lon="8.666025"><ele>432.8333333333333</ele><time>2026-04-26T08:11:46.067Z</time></trkpt><trkpt lat="45.7763583" lon="8.6660917"><ele>432.0</ele><time>2026-04-26T08:11:48.067Z</time></trkpt><trkpt lat="45.7764033" lon="8.66616"><ele>433.6666666666667</ele><time>2026-04-26T08:11:50.067Z</time></trkpt><trkpt lat="45.776465" lon="8.6662917"><ele>435.33333333333337</ele><time>2026-04-26T08:11:52.067Z</time></trkpt><trkpt lat="45.7765367" lon="8.6664317"><ele>437.0</ele><time>2026-04-26T08:11:54.067Z</time></trkpt><trkpt lat="45.776585" lon="8.6665033"><ele>438.6666666666667</ele><time>2026-04-26T08:11:56.067Z</time></trkpt><trkpt lat="45.7766167" lon="8.6665833"><ele>440.33333333333337</ele><time>2026-04-26T08:12:00.067Z</time></trkpt><trkpt lat="45.7765467" lon="8.6666317"><ele>442.0</ele><time>2026-04-26T08:12:04.067Z</time></trkpt><trkpt lat="45.7765033" lon="8.66673"><ele>442.00000000000006</ele><time>2026-04-26T08:12:08.067Z</time></trkpt><trkpt lat="45.7764383" lon="8.6668067"><ele>442.0</ele><time>2026-04-26T08:12:11.067Z</time></trkpt><trkpt lat="45.77637" lon="8.6668717"><ele>442.0</ele><time>2026-04-26T08:12:13.068Z</time></trkpt><trkpt lat="45.7763017" lon="8.6669533"><ele>442.0</ele><time>2026-04-26T08:12:15.067Z</time></trkpt><trkpt lat="45.7762233" lon="8.666975"><ele>442.00000000000006</ele><time>2026-04-26T08:12:17.067Z</time></trkpt><trkpt lat="45.7761467" lon="8.66699"><ele>442.0</ele><time>2026-04-26T08:12:19.067Z</time></trkpt><trkpt lat="45.776065" lon="8.6670583"><ele>445.40000000000003</ele><time>2026-04-26T08:12:21.067Z</time></trkpt><trkpt lat="45.7760017" lon="8.667145"><ele>448.80000000000007</ele><time>2026-04-26T08:12:23.067Z</time></trkpt><trkpt lat="45.77593" lon="8.6672017"><ele>452.2</ele><time>2026-04-26T08:12:25.067Z</time></trkpt><trkpt lat="45.7758683" lon="8.667245"><ele>455.6</ele><time>2026-04-26T08:12:27.067Z</time></trkpt><trkpt lat="45.7757683" lon="8.667335"><ele>459.0</ele><time>2026-04-26T08:12:29.067Z</time></trkpt><trkpt lat="45.7756933" lon="8.66742"><ele>459.0</ele><time>2026-04-26T08:12:31.067Z</time></trkpt><trkpt lat="45.7756917" lon="8.667525"><ele>459.0</ele><time>2026-04-26T08:12:33.067Z</time></trkpt><trkpt lat="45.7757633" lon="8.6676117"><ele>459.0</ele><time>2026-04-26T08:12:35.067Z</time></trkpt><trkpt lat="45.7758567" lon="8.6677083"><ele>459.0</ele><time>2026-04-26T08:12:37.067Z</time></trkpt><trkpt lat="45.77592" lon="8.6677783"><ele>459.0</ele><time>2026-04-26T08:12:38.067Z</time></trkpt><trkpt lat="45.7759683" lon="8.66785"><ele>459.0</ele><time>2026-04-26T08:12:39.067Z</time></trkpt><trkpt lat="45.7760267" lon="8.6679533"><ele>459.6</ele><time>2026-04-26T08:12:41.068Z</time></trkpt><trkpt lat="45.776045" lon="8.6680567"><ele>460.2</ele><time>2026-04-26T08:12:43.067Z</time></trkpt><trkpt lat="45.776025" lon="8.6682033"><ele>460.80000000000007</ele><time>2026-04-26T08:12:45.067Z</time></trkpt><trkpt lat="45.776" lon="8.6683533"><ele>461.40000000000003</ele><time>2026-04-26T08:12:47.067Z</time></trkpt><trkpt lat="45.7760083" lon="8.6684883"><ele>462.0</ele><time>2026-04-26T08:12:50.067Z</time></trkpt><trkpt lat="45.77603" lon="8.668685"><ele>465.0</ele><time>2026-04-26T08:13:14.067Z</time></trkpt><trkpt lat="45.7761317" lon="8.6687083"><ele>465.0</ele><time>2026-04-26T08:13:56.067Z</time></trkpt><trkpt lat="45.77605" lon="8.66879"><ele>465.0</ele><time>2026-04-26T08:14:36.067Z</time></trkpt></trkseg></trk></gpx>